[[{"header":{"parameterUnit":"m.s-1","parameterCategory":1,"la1":31.0,"la2":29.5877,"lo1":-88.7671,"lo2":-86.6584,"dy":0.0162,"dx":0.0185,"nx":115,"ny":88,"refTime":"2023-09-04T12:00:00:Z","depth":0,"parameterNumber":2,"parameterNumberName":"U-component_of_WINDS"},"data":[0.0,0.0,0.0,0.0,0.0,0.0,0.0,0.0,0.0,0.0,0.0,0.0,0.0,0.0,0.0,0.0,0.0,0.0,0.0,0.0,0.0,0.0,0.0,0.0,0.0,0.0,0.0,0.0,0.0,0.0,0.0,0.0,0.0,0.0,0.0,0.0,0.0,0.0,0.0,0.0,0.0,0.0,0.0,0.0,0.0,0.0,0.0,0.0,0.0,0.0,0.0,0.0,0.0,0.0,0.0,0.0,0.0,0.0,0.0,0.0,0.0,0.0,0.0,0.0,0.0,0.0,0.0,0.0,0.0,0.0,0.0,0.0,0.0,0.0,0.0,0.0,0.0,0.0,0.0,0.0,0.0,0.0,0.0,0.0,0.0,0.0,0.0,0.0,0.0,0.0,0.0,0.0,0.0,0.0,0.0,0.0,0.0,0.0,0.0,0.0,0.0,0.0,0.0,0.0,0.0,0.0,0.0,0.0,0.0,0.0,0.0,0.0,0.0,0.0,0.0,0.0,0.0,0.0,0.0,0.0,0.0,0.0,0.0,0.0,0.0,0.0,0.0,0.0,0.0,0.0,0.0,0.0,0.0,0.0,0.0,0.0,0.0,0.0,0.0,0.0,0.0,0.0,0.0,0.0,0.0,0.0,0.0,0.0,0.0,0.0,0.0,0.0,0.0,0.0,0.0,0.0,0.0,0.0,0.0,0.0,0.0,0.0,0.0,0.0,0.0,0.0,0.0,0.0,0.0,0.0,0.0,0.0,0.0,0.0,0.0,0.0,0.0,0.0,0.0,0.0,0.0,0.0,0.0,0.0,0.0,0.0,0.0,0.0,0.0,0.0,0.0,0.0,0.0,0.0,0.0,0.0,0.0,0.0,0.0,0.0,0.0,0.0,0.0,0.0,0.0,0.0,0.0,0.0,0.0,0.0,0.0,0.0,0.0,0.0,0.0,0.0,0.0,0.0,0.0,0.0,0.0,0.0,0.0,0.0,0.0,0.0,0.0,0.0,0.0,0.0,0.0,0.0,0.0,0.0,0.0,0.0,0.0,0.0,0.0,0.0,0.0,0.0,0.0,0.0,0.0,0.0,0.0,0.0,0.0,0.0,0.0,0.0,0.0,0.0,0.0,0.0,0.0,0.0,0.0,0.0,0.0,0.0,0.0,0.0,0.0,0.0,0.0,0.0,0.0,0.0,0.0,0.0,0.0,0.0,0.0,0.0,0.0,0.0,0.0,0.0,0.0,0.0,0.0,0.0,0.0,0.0,0.0,0.0,0.0,0.0,0.0,0.0,0.0,0.0,0.0,0.0,0.0,0.0,0.0,0.0,0.0,0.0,0.0,0.0,0.0,0.0,0.0,0.0,0.0,0.0,0.0,0.0,0.0,0.0,0.0,0.0,0.0,0.0,0.0,0.0,0.0,0.0,0.0,0.0,0.0,0.0,0.0,0.0,0.0,0.0,0.0,0.0,0.0,0.0,0.0,0.0,0.0,0.0,0.0,0.0,0.0,0.0,0.0,0.0,0.0,0.0,0.0,0.0,0.0,0.0,0.0,0.0,0.0,0.0,0.0,0.0,0.0,0.0,0.0,0.0,0.0,0.0,0.0,0.0,0.0,0.0,0.0,0.0,0.0,0.0,0.0,0.0,0.0,0.0,0.0,0.0,0.0,0.0,0.0,0.0,0.0,0.0,0.0,0.0,0.0,0.0,0.0,0.0,0.0,0.0,0.0,0.0,0.0,0.0,0.0,0.0,0.0,0.0,0.0,0.0,0.0,0.0,0.0,0.0,0.0,0.0,0.0,0.0,0.0,0.0,0.0,0.0,0.0,0.0,0.0,0.0,0.0,0.0,0.0,0.0,0.0,0.0,0.0,0.0,0.0,0.0,0.0,0.0,0.0,0.0,0.0,0.0,0.0,0.0,0.0,0.0,0.0,0.0,0.0,0.0,0.0,0.0,0.0,0.0,0.0,0.0,0.0,0.0,0.0,0.0,0.0,0.0,0.0,0.0,0.0,0.0,0.0,0.0,0.0,0.0,0.0,0.0,0.0,0.0,0.0,0.0,0.0,0.0,0.0,0.0,0.0,0.0,0.0,0.0,0.0,0.0,0.0,0.0,0.0,0.0,0.0,0.0,0.0,0.0,0.0,0.0,0.0,0.0,0.0,0.0,0.0,0.0,0.0,0.0,0.0,0.0,0.0,0.0,0.0,0.0,0.0,0.0,0.0,0.0,0.0,0.0,0.0,0.0,0.0,0.0,0.0,0.0,0.0,0.0,0.0,0.0,0.0,0.0,0.0,0.0,0.0,0.0,0.0,0.0,0.0,0.0,0.0,0.0,0.0,0.0,0.0,0.0,0.0,0.0,0.0,0.0,0.0,0.0,0.0,0.0,0.0,0.0,0.0,0.0,0.0,0.0,0.0,0.0,0.0,0.0,0.0,0.0,0.0,0.0,0.0,0.0,0.0,0.0,0.0,0.0,0.0,0.0,0.0,0.0,0.0,0.0,0.0,0.0,0.0,0.0,0.0,0.0,0.0,0.0,0.0,0.0,0.0,0.0,0.0,0.0,0.0,0.0,0.0,0.0,0.0,0.0,0.0,0.0,0.0,0.0,0.0,0.0,0.0,0.0,0.0,0.0,0.0,0.0,0.0,0.0,0.0,0.0,0.0,0.0,0.0,0.0,0.0,0.0,0.0,0.0,0.0,0.0,0.0,0.0,0.0,0.0,0.0,0.0,0.0,0.0,0.0,0.0,0.0,0.0,0.0,0.0,0.0,0.0,0.0,0.0,0.0,0.0,0.0,0.0,0.0,0.0,0.0,0.0,0.0,0.0,0.0,0.0,0.0,0.0,0.0,0.0,0.0,0.0,0.0,0.0,0.0,0.0,0.0,0.0,0.0,0.0,0.0,0.0,0.0,0.0,0.0,0.0,0.0,0.0,0.0,0.0,0.0,0.0,0.0,0.0,0.0,0.0,0.0,0.0,0.0,0.0,0.0,0.0,0.0,0.0,0.0,0.0,0.0,0.0,0.0,0.0,0.0,0.0,0.0,0.0,0.0,0.0,0.0,0.0,0.0,0.0,0.0,0.0,0.0,0.0,0.0,0.0,0.0,0.0,0.0,0.0,0.0,0.0,0.0,0.0,0.0,0.0,0.0,0.0,0.0,0.0,0.0,0.0,0.0,0.0,0.0,0.0,0.0,0.0,0.0,0.0,0.0,0.0,0.0,0.0,0.0,0.0,0.0,0.0,0.0,0.0,0.0,0.0,0.0,0.0,0.0,0.0,0.0,0.0,0.0,0.0,0.0,0.0,0.0,0.0,0.0,0.0,0.0,0.0,0.0,0.0,0.0,0.0,0.0,0.0,0.0,0.0,0.0,0.0,0.0,0.0,0.0,0.0,0.0,0.0,0.0,0.0,0.0,0.0,0.0,0.0,0.0,0.0,0.0,0.0,0.0,0.0,0.0,0.0,0.0,0.0,0.0,0.0,0.0,0.0,0.0,0.0,0.0,0.0,0.0,0.0,0.0,0.0,0.0,0.0,0.0,0.0,0.0,0.0,0.0,0.0,0.0,0.0,0.0,0.0,0.0,0.0,0.0,0.0,0.0,0.0,0.0,0.0,0.0,0.0,0.0,0.0,0.0,0.0,0.0,0.0,0.0,0.0,0.0,0.0,0.0,0.0,0.0,0.0,0.0,0.0,0.0,0.0,0.0,0.0,0.0,0.0,0.0,0.0,0.0,0.0,0.0,0.0,0.0,0.0,0.0,0.0,0.0,0.0,0.0,0.0,0.0,0.0,0.0,0.0,0.0,0.0,0.0,0.0,0.0,0.0,0.0,0.0,0.0,0.0,0.0,0.0,0.0,0.0,0.0,0.0,0.0,0.0,0.0,0.0,0.0,0.0,0.0,0.0,0.0,0.0,0.0,0.0,0.0,0.0,0.0,0.0,0.0,0.0,0.0,0.0,0.0,0.0,0.0,0.0,0.0,0.0,0.0,0.0,0.0,0.0,0.0,0.0,0.0,0.0,0.0,0.0,0.0,0.0,0.0,0.0,0.0,0.0,0.0,0.0,0.0,0.0,0.0,0.0,0.0,0.0,0.0,0.0,0.0,0.0,0.0,0.0,0.0,0.0,0.0,0.0,0.0,0.0,0.0,0.0,0.0,0.0,0.0,0.0,0.0,0.0,0.0,0.0,0.0,0.0,0.0,0.0,0.0,0.0,0.0,0.0,0.0,0.0,0.0,0.0,0.0,0.0,0.0,0.0,0.0,0.0,0.7213,0.0,0.0,0.0,0.0,0.0,0.0,0.0,0.0,0.0,0.0,0.0,0.0,0.0,0.0,0.0,0.0,0.0,0.0,0.0,0.0,0.0,0.0,0.0,0.0,0.0,0.0,0.0,0.0,0.0,0.0,0.0,0.0,0.0,0.0,0.0,0.0,0.0,0.0,0.0,0.0,0.0,0.0,0.0,0.0,0.0,0.0,0.0,0.0,0.0,0.0,0.0,0.0,0.0,0.0,0.0,0.0,0.0,0.0,0.0,0.0,0.0,0.0,0.0,0.0,0.0,0.0,0.0,0.0,0.0,0.0,0.0,0.0,0.0,0.0,0.0,0.0,0.0,0.0,0.0,0.0,0.0,0.0,0.0,0.0,0.0,0.0,0.0,0.0,0.0,0.0,0.0,0.0,0.0,0.0,0.0,0.0,0.0,0.0,0.0,0.0,0.0,0.0,0.0,0.0,0.0,0.0,0.0,0.0,0.0,0.0,0.7335,0.7199,0.7044,0.6924,0.6917,0.0,0.0,0.0,0.0,0.0,0.0,0.0,0.0,0.0,0.0,0.0,0.0,0.0,0.0,0.0,0.0,0.0,0.0,0.0,0.0,0.0,0.0,0.0,0.0,0.0,0.0,0.0,0.0,0.0,0.0,0.0,0.0,0.0,0.0,0.0,0.0,0.0,0.0,0.0,0.0,0.0,0.0,0.0,0.0,0.0,0.0,0.0,0.0,0.0,0.0,0.0,0.0,0.0,0.0,0.0,0.0,0.0,0.0,0.0,0.0,0.0,0.0,0.0,0.0,0.0,0.0,0.0,0.0,0.0,0.0,0.0,0.0,0.0,0.0,0.0,0.0,0.0,0.0,0.0,0.0,0.0,0.0,0.0,0.0,0.0,0.0,0.0,0.0,0.0,0.0,0.0,0.0,0.0,0.0,0.0,0.0,0.0,0.0,0.0,0.0,0.0,0.0,0.0,0.0,0.0,0.0,0.0,0.0,0.0,0.0,0.0,0.0,0.6699,0.6584,0.6538,0.0,0.0,0.0,0.0,0.0,0.0,0.0,0.0,0.0,0.0,0.0,0.0,0.0,0.0,0.0,0.0,0.0,0.0,0.0,0.0,0.0,0.0,0.0,0.0,0.0,0.0,0.0,0.0,0.0,0.0,0.0,0.0,0.0,0.0,0.0,0.0,0.0,0.0,0.0,0.0,0.0,0.0,0.0,0.0,0.0,0.0,0.0,0.0,0.0,0.0,0.0,0.0,0.0,0.0,0.0,0.0,0.0,0.0,0.0,0.0,0.0,0.0,0.0,0.0,0.0,0.0,0.0,0.0,0.0,0.0,0.0,0.0,0.0,0.0,0.0,0.0,0.0,0.0,0.0,0.0,0.0,0.0,0.0,0.0,0.0,0.0,0.0,0.0,0.0,0.0,0.0,0.0,0.0,0.0,0.0,0.0,0.0,0.0,0.0,0.0,0.0,0.0,0.0,0.0,0.0,0.0,0.0,0.0,0.0,0.0,0.6829,0.6568,0.6447,0.0,0.6107,0.0,0.0,0.0,0.0,0.0,0.0,0.0,0.0,0.0,0.0,0.0,0.0,0.0,0.0,0.0,0.0,0.0,0.0,0.0,0.0,0.0,0.0,0.0,0.0,0.0,0.0,0.0,0.0,0.0,0.0,0.0,0.0,0.0,0.0,0.0,0.0,0.0,0.0,0.0,0.0,0.0,0.0,0.0,0.0,0.0,0.0,0.0,0.0,0.0,0.0,0.0,0.0,0.0,0.0,0.0,0.0,0.0,0.0,0.0,0.0,0.0,0.0,0.0,0.0,0.0,0.0,0.0,0.0,0.0,0.0,0.0,0.0,0.0,0.0,0.0,0.0,0.0,0.0,0.0,0.0,0.0,0.0,0.0,0.0,0.0,0.0,0.0,0.0,0.0,0.0,0.0,0.0,0.0,0.0,0.0,0.0,0.0,0.0,0.0,0.0,0.0,0.0,0.0,0.0,0.0,0.0,0.0,0.0,0.0,0.0,0.6529,0.631,0.6139,0.6016,0.0,0.0,0.0,0.0,0.0,0.0,0.0,0.0,0.0,0.0,0.0,0.0,0.0,0.0,0.0,0.0,0.0,0.0,0.0,0.0,0.0,0.0,0.0,0.0,0.0,0.0,0.0,0.0,0.0,0.0,0.0,0.0,0.0,0.0,0.0,0.0,0.0,0.0,0.0,0.0,0.0,0.0,0.0,0.0,0.0,0.0,0.0,0.0,0.0,0.0,0.0,0.0,0.0,0.0,0.0,0.0,0.0,0.0,0.0,0.0,0.0,0.0,0.0,0.0,0.0,0.0,0.0,0.0,0.0,0.0,0.0,0.0,0.0,0.0,0.0,0.0,0.0,0.0,0.0,0.0,0.0,0.0,0.0,0.0,0.0,0.0,0.0,0.0,0.0,0.0,0.0,0.0,0.0,0.0,0.0,0.0,0.0,0.0,0.0,0.0,0.0,0.0,0.0,0.0,0.0,0.0,0.0,0.0,0.0,0.0,0.6316,0.6147,0.6007,0.5836,0.5747,0.5841,0.0,0.0,0.0,0.0,0.0,0.0,0.0,0.0,0.0,0.0,0.0,0.0,0.0,0.0,0.0,0.0,0.0,0.0,0.0,0.0,0.0,0.0,0.0,0.0,0.0,0.0,0.0,0.0,0.0,0.0,0.0,0.0,0.0,0.0,0.0,0.0,0.0,0.0,0.0,0.0,0.0,0.0,0.0,0.0,0.0,0.0,0.0,0.0,0.0,0.0,0.0,0.0,0.0,0.0,0.0,0.0,0.0,0.0,0.0,0.0,0.0,0.0,0.0,0.0,0.0,0.0,0.0,0.0,0.0,0.0,0.0,0.0,0.0,0.0,0.0,0.0,0.0,0.0,0.0,0.0,0.0,0.0,0.0,0.0,0.0,0.0,0.0,0.0,0.0,0.0,0.0,0.0,0.0,0.0,0.0,0.0,0.0,0.0,0.0,0.0,0.0,0.0,0.0,0.0,0.0,0.0,0.0,0.0,0.5879,0.5836,0.5752,0.5534,0.5539,0.5537,0.0,0.0,0.0,0.0,0.0,0.0,0.0,0.0,0.0,0.0,0.0,0.0,0.0,0.0,0.0,0.0,0.0,0.0,0.0,0.0,0.0,0.0,0.0,0.0,0.0,0.0,0.0,0.0,0.0,0.0,0.0,0.0,0.0,0.0,0.0,0.0,0.0,0.0,0.0,0.0,0.0,0.0,0.0,0.0,0.0,0.0,0.0,0.0,0.0,0.0,0.0,0.0,0.0,0.0,0.0,0.0,0.0,0.0,0.0,0.0,0.0,0.0,0.0,0.0,0.0,0.0,0.0,0.0,0.0,0.0,0.0,0.0,0.0,0.0,0.0,0.0,0.0,0.0,0.0,0.0,0.0,0.0,0.0,0.0,0.0,0.0,0.0,0.0,0.0,0.0,0.0,0.0,0.0,0.0,0.0,0.0,0.0,0.0,0.0,0.0,0.0,0.0,0.0,0.0,0.0,0.0,0.0,0.0,0.0,0.5618,0.5539,0.5455,0.5369,0.5323,0.5323,0.0,0.0,0.0,0.0,0.0,0.0,0.0,0.0,0.0,0.0,0.0,0.0,0.0,0.0,0.0,0.0,0.0,0.0,0.0,0.0,0.0,0.0,0.0,0.0,0.0,0.0,0.0,0.0,0.0,0.0,0.0,0.0,0.0,0.0,0.0,0.0,0.0,0.0,0.0,0.0,0.0,0.0,0.0,0.0,0.0,0.0,0.0,0.0,0.0,0.0,0.0,0.0,0.0,0.0,0.0,0.0,0.0,0.0,0.0,0.0,0.0,0.0,0.0,0.0,0.0,0.0,0.0,0.0,0.0,0.0,0.0,0.0,0.0,0.0,0.0,0.0,0.0,0.0,0.0,0.0,0.0,0.0,0.0,0.0,0.0,0.0,0.0,0.0,0.0,0.0,0.0,0.0,0.0,0.0,0.0,0.0,0.0,0.0,0.0,0.0,0.0,0.0,0.0,0.0,0.0,0.0,0.0,0.0,0.0,0.5366,0.0,0.5106,0.5108,0.5106,0.5152,0.0,0.0,0.0,0.0,0.0,0.0,0.0,0.0,0.0,0.0,0.0,0.0,0.0,0.0,0.0,0.0,0.0,0.0,0.0,0.0,0.0,0.0,0.0,0.0,0.0,0.0,0.0,0.0,0.0,0.0,0.0,0.0,0.0,0.0,0.0,0.0,0.0,0.0,0.0,0.0,0.0,0.0,0.0,0.0,0.0,0.0,0.0,0.0,0.0,0.0,0.0,0.0,0.0,0.0,0.0,0.0,0.0,0.0,0.0,0.0,0.0,0.0,0.0,0.0,0.0,0.0,0.0,0.0,0.0,0.0,0.0,0.0,0.0,0.0,0.0,0.0,0.0,0.0,0.0,0.0,0.0,0.0,0.0,0.0,0.0,0.0,0.0,0.0,0.0,0.0,0.0,0.0,0.0,0.0,0.0,0.0,0.0,0.0,0.0,0.0,0.0,0.0,0.0,0.0,0.0,0.0,0.0,0.0,0.5323,0.4985,0.4753,0.4707,0.4799,0.4845,0.493,0.0,0.0,0.0,0.0,0.0,0.0,0.0,0.0,0.0,0.0,0.0,0.0,0.0,0.0,0.0,0.0,0.0,0.0,0.0,0.0,0.0,0.0,0.0,0.0,0.0,0.0,0.0,0.0,0.0,0.0,0.0,0.0,0.0,0.0,0.0,0.0,0.0,0.0,0.0,0.0,0.0,0.0,0.0,0.0,0.0,0.0,0.0,0.0,0.0,0.0,0.0,0.0,0.0,0.0,0.0,0.0,0.0,0.0,0.0,0.0,0.0,0.0,0.0,0.0,0.0,0.0,0.0,0.0,0.0,0.0,0.0,0.0,0.0,0.0,0.0,0.0,0.0,0.0,0.0,0.0,0.0,0.0,0.0,0.0,0.0,0.0,0.0,0.0,0.0,0.0,0.0,0.0,0.0,0.0,0.0,0.0,0.0,0.0,0.0,0.0,0.0,0.0,0.0,0.0,0.0,0.0,0.0,0.0,0.0,0.4847,0.4799,0.4799,0.4937,0.4937,0.4983,0.0,0.0,0.0,0.0,0.0,0.0,0.0,0.0,0.0,0.0,0.0,0.0,0.0,0.0,0.0,0.0,0.0,0.0,0.0,0.0,0.0,0.0,0.0,0.0,0.0,0.0,0.0,0.0,0.0,0.0,0.0,0.0,0.0,0.0,0.0,0.0,0.0,0.0,0.0,0.0,0.0,0.0,0.0,0.0,0.0,0.0,0.0,0.0,0.0,0.0,0.0,0.0,0.0,0.0,0.0,0.0,0.0,0.0,0.0,0.0,0.0,0.0,0.0,0.0,0.0,0.0,0.0,0.0,0.0,0.0,0.0,0.0,0.0,0.0,0.0,0.0,0.0,0.0,0.0,0.0,0.0,0.0,0.0,0.0,0.0,0.0,0.0,0.0,0.0,0.0,0.0,0.0,0.0,0.0,0.0,0.0,0.0,0.0,0.0,0.0,0.0,0.0,0.0,0.0,0.0,0.0,0.0,0.0,0.0,0.4709,0.4714,0.476,0.4893,0.4937,0.4939,0.4985,0.0,0.0,0.0,0.0,0.0,0.0,0.0,0.0,0.0,0.0,0.0,0.0,0.0,0.0,0.0,0.0,0.0,0.0,0.0,0.0,0.0,0.0,0.0,0.0,0.0,0.0,0.0,0.0,0.0,0.0,0.0,0.0,0.0,0.0,0.0,0.0,0.0,0.0,0.0,0.0,0.0,0.0,0.0,0.0,0.0,0.0,0.0,0.0,0.0,0.0,0.0,0.0,0.0,0.0,0.0,0.0,0.0,0.0,0.0,0.0,0.0,0.0,0.0,0.0,0.0,0.0,0.0,0.0,0.0,0.0,0.0,0.0,0.0,0.0,0.0,0.0,0.0,0.0,0.0,0.0,0.0,0.0,0.0,0.0,0.0,0.0,0.0,0.0,0.0,0.0,0.0,0.0,0.0,0.0,0.0,0.0,0.0,0.0,0.0,0.0,0.0,0.0,0.0,0.0,0.0,0.0,0.0,0.0,0.4631,0.4545,0.4585,0.4801,0.4801,0.4847,0.0,0.0,0.0,0.0,0.0,0.0,0.0,0.0,0.0,0.0,0.0,0.0,0.0,0.0,0.0,0.0,0.0,0.0,0.0,0.0,0.0,0.0,0.0,0.0,0.0,0.0,0.0,0.0,0.0,0.0,0.0,0.0,0.0,0.0,0.0,0.0,0.0,0.0,0.0,0.0,0.0,0.0,0.0,0.0,0.0,0.0,0.0,0.0,0.0,0.0,0.0,0.0,0.0,0.0,0.0,0.0,0.0,0.0,0.0,0.0,0.0,0.0,0.0,0.0,0.0,0.0,0.0,0.0,0.0,0.0,0.0,0.0,0.0,0.0,0.0,0.0,0.0,0.0,0.0,0.0,0.0,0.0,0.0,0.0,0.0,0.0,0.0,0.0,0.0,0.0,0.0,0.0,0.0,0.0,0.0,0.0,0.0,0.0,0.0,0.0,0.0,0.0,0.0,0.0,0.0,0.0,0.0,0.0,0.0,0.4781,0.4655,0.4714,0.4939,0.4939,0.4939,0.0,0.0,0.0,0.0,0.0,0.0,0.0,0.0,0.0,0.0,0.0,0.0,0.0,0.0,0.0,0.0,0.0,0.0,0.0,0.0,0.0,0.0,0.0,0.0,0.0,0.0,0.0,0.0,0.0,0.0,0.0,0.0,0.0,0.0,0.0,0.0,0.0,0.0,0.0,0.0,0.0,0.0,0.0,0.0,0.0,0.0,0.0,0.0,0.0,0.0,0.0,0.0,0.0,0.0,0.0,0.0,0.0,0.0,0.0,0.0,0.0,0.0,0.0,0.0,0.0,0.0,0.0,0.0,0.0,0.0,0.0,0.0,0.0,0.0,0.0,0.0,0.0,0.0,0.0,0.0,0.0,0.0,0.0,0.0,0.0,0.0,0.0,0.0,0.0,0.0,0.0,0.0,0.0,0.0,0.0,0.0,0.0,0.0,0.0,0.0,0.0,0.0,0.0,0.0,0.0,0.0,0.0,0.0,0.4656,0.5035,0.4988,0.5016,0.5112,0.5115,0.507,0.0,0.0,0.0,0.0,0.0,0.0,0.0,0.0,0.0,0.0,0.0,0.0,0.0,0.0,0.0,0.0,0.0,0.0,0.0,0.0,0.0,0.0,0.0,0.0,0.0,0.0,0.0,0.0,0.0,0.0,0.0,0.0,0.0,0.0,0.0,0.0,0.0,0.0,0.0,0.0,0.0,0.0,0.0,0.0,0.0,0.0,0.0,0.0,0.0,0.0,0.0,0.0,0.0,0.0,0.0,0.0,0.0,0.0,0.0,0.0,0.0,0.0,0.0,0.0,0.0,0.0,0.0,0.0,0.0,0.0,0.0,0.0,0.0,0.0,0.0,0.0,0.0,0.0,0.0,0.0,0.0,0.0,0.0,0.0,0.0,0.0,0.0,0.0,0.0,0.0,0.0,0.0,0.0,0.0,0.0,0.0,0.0,0.0,0.0,0.0,0.0,0.0,0.0,0.0,0.0,0.0,0.0,0.0,0.4977,0.5287,0.5436,0.5458,0.538,0.5262,0.5193,0.0,0.0,0.0,0.0,0.0,0.0,0.0,0.0,0.0,0.0,0.0,0.0,0.0,0.0,0.0,0.0,0.0,0.0,0.0,0.0,0.0,0.0,0.0,0.0,0.0,0.0,0.0,0.0,0.0,0.0,0.0,0.0,0.0,0.0,0.0,0.0,0.0,0.0,0.0,0.0,0.0,0.0,0.0,0.0,0.0,0.0,0.0,0.0,0.0,0.0,0.0,0.0,0.0,0.0,0.0,0.0,0.0,0.0,0.0,0.0,0.0,0.0,0.0,0.0,0.0,0.0,0.0,0.0,0.0,0.0,0.0,0.0,0.0,0.0,0.0,0.0,0.0,0.0,0.0,0.0,0.0,0.0,0.0,0.0,0.0,0.0,0.0,0.0,0.0,0.0,0.0,0.0,0.0,0.0,0.0,0.0,0.0,0.0,0.0,0.0,0.0,0.0,0.0,0.0,0.0,0.0,0.0,0.0,0.5179,0.5726,0.5635,0.5643,0.5764,0.5447,0.5239,0.0,0.0,0.0,0.0,0.0,0.0,0.0,0.0,0.0,0.0,0.0,0.0,0.0,0.0,0.0,0.0,0.0,0.0,0.0,0.0,0.0,0.0,0.0,0.0,0.0,0.0,0.0,0.0,0.0,0.0,0.0,0.0,0.0,0.0,0.0,0.0,0.0,0.0,0.0,0.0,0.0,0.0,0.0,0.0,0.0,0.0,0.0,0.0,0.5288,0.0,0.0,0.0,0.0,0.0,0.0,0.0,0.0,0.0,0.0,0.0,0.0,0.0,0.0,0.0,0.0,0.0,0.0,0.0,0.0,0.0,0.0,0.0,0.0,0.0,0.0,0.0,0.0,0.0,0.0,0.0,0.0,0.0,0.0,0.0,0.0,0.0,0.0,0.0,0.0,0.0,0.0,0.0,0.0,0.0,0.0,0.0,0.0,0.0,0.0,0.0,0.0,0.0,0.0,0.0,0.0,0.0,0.0,0.0,0.5638,0.6043,0.6047,0.6084,0.6218,0.6038,0.5768,0.0,0.0,0.0,0.0,0.0,0.0,0.0,0.0,0.0,0.0,0.0,0.0,0.0,0.0,0.0,0.0,0.0,0.0,0.0,0.0,0.0,0.0,0.0,0.0,0.0,0.0,0.0,0.0,0.0,0.0,0.0,0.0,0.0,0.0,0.0,0.0,0.0,0.0,0.0,0.0,0.0,0.0,0.0,0.0,0.0,0.0,0.0,0.0,0.0,0.0,0.0,0.0,0.0,0.0,0.0,0.0,0.0,0.0,0.0,0.0,0.0,0.0,0.0,0.0,0.0,0.0,0.0,0.0,0.0,0.0,0.0,0.0,0.0,0.0,0.0,0.0,0.0,0.0,0.0,0.0,0.0,0.0,0.0,0.0,0.0,0.0,0.0,0.0,0.0,0.0,0.0,0.0,0.0,0.0,0.0,0.0,0.0,0.0,0.0,0.0,0.0,0.0,0.0,0.0,0.0,0.0,0.0,0.5756,0.612,0.6317,0.6518,0.6659,0.6727,0.669,0.6404,0.5883,0.0,0.0,0.0,0.0,0.0,0.0,0.0,0.0,0.0,0.0,0.0,0.0,0.0,0.0,0.0,0.0,0.0,0.0,0.0,0.0,0.0,0.0,0.0,0.0,0.0,0.0,0.0,0.0,0.0,0.0,0.0,0.0,0.0,0.0,0.0,0.0,0.0,0.0,0.4401,0.4425,0.0,0.0,0.0,0.0,0.0,0.0,0.0,0.0,0.6453,0.0,0.0,0.0,0.0,0.0,0.0,0.0,0.0,0.0,0.0,0.0,0.0,0.0,0.0,0.0,0.0,0.0,0.0,0.0,0.0,0.0,0.0,0.0,0.0,0.0,0.0,0.0,0.0,0.0,0.0,0.0,0.0,0.0,0.0,0.0,0.0,0.0,0.0,0.0,0.0,0.0,0.0,0.0,0.0,0.0,0.0,0.0,0.0,0.0,0.0,0.0,0.0,0.0,0.0,0.0,0.0,0.5643,0.6058,0.6485,0.6969,0.6993,0.7089,0.726,0.7163,0.6956,0.6645,0.0,0.0,0.0,0.0,0.0,0.0,0.0,0.0,0.0,0.0,0.0,0.0,0.0,0.0,0.0,0.0,0.0,0.0,0.0,0.0,0.0,0.0,0.0,0.0,0.0,0.0,0.0,0.0,0.0,0.0,0.0,0.0,0.0,0.0,0.0,0.0,0.0,0.0,0.0,0.4847,0.5078,0.0,0.0,0.0,0.0,0.0,0.0,0.0,0.0,0.7346,0.0,0.0,0.0,0.0,0.0,0.0,0.0,0.0,0.0,0.0,0.0,0.0,0.0,0.0,0.0,0.0,0.0,0.0,0.0,0.0,0.0,0.0,0.0,0.0,0.0,0.0,0.0,0.0,0.0,0.0,0.0,0.0,0.0,0.0,0.0,0.0,0.0,0.0,0.0,0.0,0.0,0.0,0.0,0.0,0.0,0.0,0.0,0.0,0.0,0.0,0.0,0.0,0.0,0.0,0.0,0.6112,0.6592,0.6921,0.7192,0.7354,0.7511,0.766,0.7709,0.7568,0.0,0.0,0.0,0.0,0.0,0.0,0.0,0.0,0.0,0.0,0.0,0.0,0.0,0.0,0.0,0.0,0.0,0.0,0.0,0.0,0.0,0.0,0.0,0.0,0.0,0.0,0.0,0.0,0.0,0.0,0.0,0.0,0.0,0.0,0.0,0.0,0.0,0.0,0.0,0.0,0.5333,0.5772,0.629,0.0,0.0,0.0,0.0,0.0,0.0,0.7779,0.787,0.0,0.0,0.0,0.0,0.0,0.0,0.0,0.0,0.0,0.0,0.0,0.0,0.0,0.0,0.0,0.0,0.0,0.0,0.0,0.0,0.0,0.0,0.0,0.0,0.0,0.0,0.0,0.0,0.0,0.0,0.0,0.0,0.0,0.0,0.0,0.0,0.0,0.0,0.0,0.0,0.0,0.0,0.0,0.0,0.0,0.0,0.0,0.0,0.0,0.0,0.0,0.0,0.0,0.0,0.0,0.6584,0.7131,0.7419,0.7475,0.7732,0.7889,0.8055,0.8221,0.8111,0.0,0.0,0.0,0.0,0.0,0.0,0.0,0.0,0.0,0.0,0.0,0.0,0.0,0.0,0.0,0.0,0.0,0.0,0.0,0.0,0.0,0.0,0.0,0.0,0.0,0.0,0.0,0.0,0.0,0.0,0.0,0.0,0.0,0.0,0.0,0.0,0.0,0.0,0.0,0.0,0.0,0.6438,0.7081,0.7345,0.0,0.0,0.0,0.0,0.8151,0.8252,0.0,0.0,0.0,0.0,0.0,0.0,0.0,0.0,0.0,0.0,0.0,0.0,0.0,0.0,0.0,0.0,0.0,0.0,0.0,0.0,0.0,0.0,0.0,0.0,0.0,0.0,0.0,0.0,0.0,0.0,0.0,0.0,0.0,0.0,0.0,0.0,0.0,0.0,0.0,0.0,0.0,0.0,0.0,0.0,0.0,0.0,0.0,0.0,0.0,0.0,0.0,0.0,0.0,0.0,0.0,0.0,0.7246,0.7541,0.7785,0.8112,0.8209,0.8368,0.8524,0.8639,0.8476,0.0,0.0,0.0,0.0,0.0,0.0,0.0,0.0,0.0,0.0,0.0,0.0,0.0,0.0,0.0,0.0,0.0,0.0,0.0,0.0,0.0,0.0,0.0,0.0,0.0,0.0,0.0,0.0,0.0,0.0,0.0,0.0,0.0,0.0,0.0,0.0,0.0,0.0,0.0,0.0,0.0,0.6883,0.7918,0.8051,0.8032,0.0,0.0,0.8448,0.8496,0.8809,0.0,0.0,0.0,0.0,0.0,0.0,0.0,0.0,0.0,0.0,0.0,0.0,0.0,0.0,0.0,0.0,0.0,0.0,0.0,0.0,0.0,0.0,0.0,0.0,0.0,0.0,0.0,0.0,0.0,0.0,0.0,0.0,0.0,0.0,0.0,0.0,0.0,0.0,0.0,0.0,0.0,0.0,0.0,0.0,0.0,0.0,0.0,0.0,0.0,0.0,0.0,0.0,0.0,0.0,0.0,0.711,0.7663,0.8044,0.8259,0.8424,0.8689,0.8844,0.8847,0.9106,0.8921,0.0,0.0,0.0,0.0,0.0,0.0,0.0,0.0,0.0,0.0,0.0,0.0,0.0,0.0,0.0,0.0,0.0,0.0,0.0,0.0,0.0,0.0,0.0,0.0,0.0,0.0,0.0,0.0,0.0,0.0,0.0,0.0,0.0,0.0,0.0,0.0,0.0,0.0,0.0,0.0,0.0,0.0,0.8078,0.8303,0.0,0.0,0.0,0.898,0.9121,0.0,0.0,0.0,0.0,0.0,0.0,0.0,0.0,0.0,0.0,0.0,0.0,0.0,0.0,0.0,0.0,0.0,0.0,0.0,0.0,0.0,0.0,0.0,0.0,0.0,0.0,0.0,0.0,0.0,0.0,0.0,0.0,0.0,0.0,0.0,0.0,0.0,0.0,0.0,0.0,0.0,0.0,0.0,0.0,0.0,0.0,0.0,0.0,0.0,0.0,0.0,0.0,0.0,0.0,0.0,0.0,0.0,0.8096,0.8527,0.8735,0.8784,0.9152,0.9271,0.9162,0.9569,0.0,0.0,0.0,0.0,0.0,0.0,0.0,0.0,0.0,0.0,0.0,0.0,0.0,0.0,0.0,0.0,0.0,0.0,0.0,0.0,0.0,0.0,0.0,0.0,0.0,0.0,0.0,0.6278,0.0,0.0,0.0,0.0,0.0,0.0,0.0,0.0,0.0,0.0,0.0,0.0,0.0,0.0,0.7657,0.8122,0.8568,0.8903,0.0,0.0,0.9247,0.9455,0.9551,0.9739,0.0,0.0,0.0,0.0,0.0,0.0,0.0,0.0,0.0,0.0,0.0,0.0,0.0,0.0,0.0,0.0,0.0,0.0,0.0,0.0,0.0,0.0,0.0,0.0,0.0,0.0,0.0,0.0,0.0,0.0,0.0,0.0,0.0,0.0,0.0,0.0,0.0,0.0,0.0,0.0,0.0,0.0,0.0,0.0,0.0,0.0,0.0,0.0,0.0,0.0,0.0,0.0,0.0,0.0,0.0,0.8676,0.8906,0.9106,0.9361,0.9636,0.9681,0.9562,0.9995,0.9945,0.0,0.0,0.0,0.0,0.0,0.0,0.0,0.0,0.0,0.0,0.0,0.0,0.0,0.0,0.0,0.0,0.0,0.0,0.0,0.0,0.0,0.0,0.0,0.0,0.0,0.0,0.0,0.0,0.0,0.0,0.0,0.0,0.0,0.0,0.0,0.0,0.0,0.0,0.0,0.0,0.0,0.7883,0.8384,0.8878,0.9076,0.0,0.0,0.9062,0.9187,0.9482,0.9924,1.0431,0.0,0.0,0.0,0.0,0.0,0.0,0.0,0.0,0.0,0.0,0.0,0.0,0.0,0.0,0.0,0.0,0.0,0.0,0.0,0.0,0.0,0.0,0.0,0.0,0.0,0.0,0.0,0.0,0.0,0.0,0.0,0.0,0.0,0.0,0.0,0.0,0.0,0.0,0.0,0.0,0.0,0.0,0.0,0.0,0.0,0.0,0.0,0.0,0.0,0.0,0.0,0.0,0.0,0.8151,0.9044,0.9364,0.9573,0.9788,1.0154,1.0312,1.0146,1.0518,1.035,0.0,0.0,0.0,0.0,0.0,0.0,0.0,0.0,0.0,0.0,0.0,0.0,0.0,0.0,0.0,0.0,0.0,0.0,0.0,0.0,0.0,0.0,0.0,0.0,0.0,0.0,0.0,0.0,0.7726,0.774,0.7582,0.0,0.0,0.0,0.0,0.0,0.0,0.0,0.0,0.0,0.0,0.8273,0.8697,0.8862,0.0,0.0,0.9464,0.9525,0.9706,1.0045,1.0335,1.0438,1.0475,0.0,0.0,0.0,0.0,0.0,0.0,0.0,0.0,0.0,0.0,0.0,0.0,0.0,0.0,0.0,0.0,0.0,0.0,0.0,0.0,0.0,0.0,0.0,0.0,0.0,0.0,0.0,0.0,0.0,0.0,0.0,0.0,0.0,0.0,0.0,0.0,0.0,0.0,0.0,0.0,0.0,0.0,0.0,0.0,0.0,0.0,0.0,0.0,0.0,0.0,0.0,0.0,0.8494,0.9361,0.9729,0.9984,1.0162,1.0569,1.0769,1.0671,1.0922,1.0797,0.0,0.0,0.0,0.0,0.0,0.0,0.0,0.0,0.0,0.0,0.0,0.0,0.0,0.0,0.0,0.0,0.0,0.0,0.0,0.0,0.0,0.0,0.0,0.0,0.0,0.0,0.0,0.0,0.8187,0.8113,0.7738,0.0,0.0,0.0,0.0,0.0,0.0,0.0,0.0,0.0,0.0,0.8574,0.8867,0.8948,0.9139,0.9809,0.9869,0.9952,1.0315,1.0634,1.0822,1.0774,0.0,0.0,0.0,0.0,0.0,0.0,0.0,0.0,0.0,0.0,0.0,0.0,0.0,0.0,0.0,0.0,0.0,0.0,0.0,0.0,0.0,0.0,0.0,0.0,0.0,0.0,0.0,0.0,0.0,0.0,0.756,0.0,0.0,0.0,0.0,0.0,0.0,0.0,0.0,0.0,0.0,0.0,0.0,0.0,0.0,0.0,0.0,0.0,0.0,0.0,0.0,0.0,0.0,0.8797,0.9788,1.0051,1.0304,1.0518,1.0871,1.107,1.1129,1.1372,1.1414,1.1242,0.0,0.0,0.0,0.0,0.0,0.0,0.0,0.0,0.0,0.0,0.0,0.0,0.0,0.0,0.0,0.0,0.0,0.0,0.0,0.0,0.0,0.0,0.0,0.0,0.0,0.0,0.8213,0.8569,0.8468,0.0,0.0,0.0,0.0,0.0,0.0,0.0,0.0,0.0,0.0,0.8795,0.884,0.9023,0.9146,0.939,0.9871,1.0071,1.0339,1.0831,1.1169,1.1439,0.0,0.0,0.0,0.0,0.0,0.0,0.0,0.0,0.0,0.0,0.0,0.0,0.0,0.0,0.0,0.0,0.0,0.0,0.0,0.0,0.0,0.0,0.0,0.0,0.0,0.0,0.0,0.8581,0.8167,0.0,0.0,0.0,0.0,0.0,0.0,0.0,0.0,0.0,0.0,0.0,0.7934,0.7931,0.0,0.0,0.0,0.0,0.0,0.0,0.0,0.0,0.0,0.0,0.0,0.0,0.9559,1.0237,1.0616,1.0871,1.1023,1.1326,1.1528,1.1628,1.1723,1.1648,1.1423,0.0,0.0,0.0,0.0,0.0,0.0,0.0,0.0,0.0,0.0,0.0,0.0,0.0,0.0,0.0,0.0,0.0,0.0,0.0,0.0,0.0,0.0,0.0,0.0,0.0,0.8541,0.0,0.0,0.0,0.0,0.0,0.0,0.0,0.0,0.0,0.0,0.0,0.9571,0.9711,0.9824,0.9934,1.0158,0.9946,1.0002,0.0,0.0,0.0,0.0,0.0,0.0,0.0,0.0,0.0,0.0,0.0,0.0,0.0,0.0,1.0786,1.0126,1.0347,1.0655,1.0766,0.0,0.0,0.0,0.0,0.0,0.0,0.0,0.0,0.0,0.0,0.0,0.0,0.0,0.0,0.9446,0.0,0.8902,0.0,0.0,0.0,0.0,0.0,0.0,0.0,0.0,0.8911,0.8813,0.8639,0.8633,0.8586,0.0,0.8397,0.8158,0.0,0.0,0.0,0.0,0.0,0.0,0.0,0.0,1.0162,1.0706,1.112,1.1372,1.1423,1.1773,1.1977,1.2121,1.2175,1.2143,1.1921,1.1859,1.1668,0.0,0.0,0.0,0.0,0.0,0.0,0.0,0.0,0.0,0.0,0.0,0.0,0.0,0.0,0.0,0.0,0.0,0.0,0.0,0.0,0.0,0.0,0.0,0.8943,0.0,0.0,0.0,0.0,0.0,0.0,0.0,0.0,0.0,0.9526,1.0091,1.0544,1.048,1.0506,1.0575,1.0694,0.0,0.0,0.0,0.0,0.0,0.0,0.0,1.2708,1.2541,1.27,1.2793,1.2862,1.2474,1.2123,1.1834,0.0,0.0,1.1047,1.1263,1.1577,1.1748,1.2092,1.2443,1.2558,1.28,1.3033,0.0,0.0,0.0,0.0,0.0,0.0,0.0,0.0,1.0156,1.0193,0.0,0.9858,0.0,0.0,0.0,0.0,0.0,0.956,0.0,0.0,0.9144,0.9113,0.9005,0.9008,0.9012,0.9008,0.8903,0.8949,0.9169,0.8459,0.0,0.0,0.0,0.0,0.0,0.0,1.0663,1.1112,1.1523,1.1719,1.1728,1.2126,1.2382,1.2534,1.2774,1.2827,1.2725,1.2813,1.2719,1.2278,1.2151,0.0,0.0,0.0,0.0,0.0,0.0,0.0,0.0,0.0,0.0,0.0,0.0,0.0,0.0,0.0,0.0,0.0,0.0,0.0,0.0,0.9289,0.0,0.0,0.0,0.0,0.0,0.0,0.0,0.0,0.0,0.0,1.0758,1.1045,1.1245,1.1063,0.0,0.0,0.0,0.0,1.0717,1.1161,1.1654,1.2108,1.2385,1.2923,1.3222,1.2988,0.0,0.0,1.3042,1.3025,1.2996,1.3,1.298,1.2781,1.198,1.235,1.2822,1.2952,1.3226,1.3623,1.3937,1.4054,1.4319,0.8709,0.0,0.0,0.0,0.0,1.0699,1.0788,1.0583,1.0872,1.0865,1.064,1.0549,0.0,0.0,0.0,0.0,0.0,0.0,0.9576,0.9489,0.954,0.9478,0.926,0.9312,0.9305,0.9413,0.9357,0.9521,0.9725,0.9548,0.9459,0.9563,0.0,0.0,0.0,0.0,1.131,1.1514,1.1823,1.2017,1.2126,1.2426,1.2666,1.2871,1.3147,1.3228,1.3185,1.3334,1.3278,1.3079,1.2786,0.0,0.0,0.0,0.0,0.0,0.0,0.0,0.0,0.0,0.0,0.0,0.0,0.0,0.0,0.0,0.0,0.0,0.0,0.0,0.973,0.9891,0.9943,0.0,0.0,0.0,0.0,0.0,0.0,0.0,0.0,0.0,1.2171,1.1956,1.1783,0.0,0.0,1.1411,1.1487,1.1328,1.1345,1.1555,1.1824,0.0,0.0,1.2697,1.305,1.2998,1.3279,1.3547,1.3541,1.3588,1.3519,1.3385,1.345,1.3481,1.3275,1.3257,1.3398,1.3524,1.3941,1.4236,1.4359,1.4602,1.4857,0.9324,0.9557,0.9913,1.0246,1.0611,1.1103,1.1261,1.1185,1.1305,1.1248,1.1041,1.0793,1.0647,1.0642,1.0354,0.0,0.0,0.0,0.9825,0.971,0.9764,0.9713,0.9636,0.9732,0.9784,0.9884,0.9936,1.0095,1.0364,1.0407,1.051,1.0659,0.0,0.0,1.1221,1.1573,1.1823,1.2017,1.2278,1.2475,1.2573,1.291,1.3099,1.3238,1.3478,1.3615,1.3563,1.3668,1.3721,1.361,1.3408,1.3129,0.0,0.0,0.0,0.0,0.0,0.0,0.0,0.0,0.0,0.0,0.0,0.9392,0.962,0.0,0.0,0.0,1.0594,1.0532,1.0442,1.0637,0.0,0.0,0.0,0.0,0.0,0.0,0.0,1.2163,1.2482,1.2794,1.3201,1.2688,1.2324,1.2301,1.2196,1.2128,1.2054,0.0,1.1878,1.19,1.2241,1.2502,1.2502,1.3167,1.3684,1.3693,1.3885,1.4055,1.4122,1.4249,1.4249,1.4181,1.4181,1.4309,1.4245,1.4185,1.4061,1.4121,1.4424,1.4715,1.4775,1.4902,1.5152,0.9958,1.0418,1.0363,1.0555,1.0919,1.123,1.1525,1.1841,1.1654,1.1577,1.1535,1.0943,1.0766,1.1005,1.0846,0.0,1.0253,1.0122,0.9964,0.9799,0.9795,0.9899,1.0051,1.0213,1.0316,1.0368,1.0466,1.0675,1.0977,1.107,1.1368,1.1778,1.1453,1.1403,1.1778,1.2026,1.2274,1.2524,1.2779,1.2973,1.305,1.343,1.3615,1.3668,1.391,1.3962,1.3863,1.402,1.4067,1.4062,1.4067,1.3818,1.3302,0.0,0.0,0.0,0.0,0.0,0.0,0.0,0.0,0.0,0.0,0.0,0.0,0.0,0.0,0.0,1.1319,0.0,1.1175,1.1329,0.0,0.0,0.0,1.1153,1.0996,1.112,1.1597,1.2527,0.0,0.0,1.3874,1.3287,1.2857,1.2824,1.2881,1.275,1.2351,1.2405,1.2428,1.2199,1.2756,1.3226,1.3148,1.3863,1.4394,1.4508,1.4695,1.4641,1.4706,1.4848,1.4975,1.4916,1.498,1.498,1.5029,1.497,1.4966,1.4706,1.4834,1.5088,1.5201,1.5264,1.5386,1.0123,1.0585,1.0616,1.103,1.1559,1.1813,1.1981,1.2046,1.2089,1.2119,1.2108,1.1957,1.158,1.1092,1.0772,1.0424,1.0068,1.0008,1.0023,0.9947,0.9951,1.0102,1.0368,1.0419,1.0624,1.0918,1.0922,1.1124,1.1477,1.1523,1.1823,1.2292,1.2531,1.2521,1.2332,1.248,1.2676,1.2861,1.304,1.3276,1.3588,1.3721,1.3852,1.4035,1.4239,1.4337,1.4389,1.4534,1.454,1.4441,1.4384,1.419,1.3968,1.3302,0.0,0.0,0.0,0.0,0.0,0.0,0.0,0.0,0.0,1.0831,1.1416,0.0,1.2139,0.0,1.2474,1.2244,1.1595,1.1606,0.0,0.0,1.1311,1.1537,1.1735,1.1965,1.236,1.3,1.3113,1.3232,1.3483,1.3286,1.3141,1.324,1.2742,1.228,1.2177,1.2368,1.2539,1.2572,1.2719,1.2879,1.308,1.335,1.3844,1.4162,1.4391,1.4606,1.5031,1.5034,1.5039,1.5039,1.5093,1.5147,1.5132,1.5381,1.5541,1.5531,1.5415,1.542,1.5647,1.5821,1.5994,1.0784,1.1082,1.1312,1.171,1.2042,1.202,1.2043,1.2166,1.2202,1.2192,1.2189,1.2023,1.1744,1.1378,1.1122,1.0934,1.0824,1.0709,1.0762,1.0804,1.0614,1.0648,1.0902,1.0843,1.0968,1.1171,1.1377,1.1619,1.1873,1.1923,1.2308,1.2955,1.3186,1.3379,1.359,1.3534,1.3496,1.3584,1.357,1.371,1.4051,1.4046,1.4197,1.443,1.4523,1.4627,1.4673,1.4782,1.4782,1.4684,1.4627,1.4523,1.4466,1.3886,1.3491,0.0,0.0,0.0,0.0,0.0,0.0,0.0,0.0,0.0,0.0,0.0,1.2624,1.2793,1.2761,1.2516,1.2,1.2044,1.197,1.1696,1.1782,1.1953,1.21,1.2258,1.2562,1.3115,1.3157,1.3236,1.3521,1.3385,1.3268,1.3326,1.2878,1.2542,1.2717,1.2905,1.3036,1.2944,1.316,1.3422,1.3656,1.3792,1.392,1.4208,1.4341,1.4544,1.4824,1.4812,1.4807,1.4812,1.4868,1.4924,1.498,1.5092,1.5305,1.5461,1.5401,1.5548,1.6074,1.6131,1.6114,1.1681,1.1747,1.2185,1.2363,1.2339,1.2034,1.2085,1.2351,1.2162,1.2091,1.2126,1.1819,1.1752,1.1844,1.1712,1.1684,1.1775,1.1712,1.1732,1.1876,1.1525,1.1436,1.1531,1.1524,1.1519,1.1575,1.1921,1.2232,1.2378,1.2477,1.2967,1.3677,1.375,1.4222,1.507,1.4862,1.4607,1.4364,1.4216,1.4262,1.4425,1.4425,1.4569,1.4822,1.4822,1.4822,1.4874,1.4874,1.4868,1.4868,1.4863,1.4822,1.4811,1.4311,1.3978,0.0,1.3216,0.0,0.0,0.0,0.0,0.0,0.0,0.0,0.0,1.2974,1.2983,1.2779,1.2724,1.2591,1.2382,1.2549,1.2517,1.2185,1.2346,1.2415,1.2375,1.2372,1.2558,1.3019,1.3103,1.3256,1.3571,1.3441,1.3316,1.3282,1.3209,1.313,1.3466,1.3576,1.3531,1.3258,1.3702,1.4082,1.4328,1.4432,1.444,1.447,1.4503,1.4518,1.4611,1.4611,1.4543,1.4601,1.4636,1.4664,1.4734,1.4818,1.4965,1.5211,1.5269,1.5548,1.6153,1.6116,1.6003,1.1937,1.2432,1.2502,1.2679,1.2858,1.2789,1.274,1.2679,1.2663,1.27,1.2813,1.2748,1.2451,1.1989,1.2204,1.2064,1.1742,1.1982,1.2175,1.2346,1.2278,1.2303,1.246,1.2558,1.2739,1.2954,1.316,1.3479,1.3801,1.3863,1.416,1.4722,1.508,1.5468,1.5886,0.0,0.0,0.0,1.4855,1.4783,1.4545,1.4673,1.4765,1.4869,1.4875,0.0,1.5176,1.5182,1.5261,1.534,1.5153,0.0,0.0,0.0,0.0,0.0,0.0,0.0,0.0,0.0,0.0,0.0,1.359,1.3438,1.3329,1.3531,1.3546,1.3182,1.3427,1.3402,1.2866,1.2802,1.2713,1.245,1.2551,1.2615,1.2637,1.2769,1.29,1.3018,1.3111,1.3184,1.3283,1.3238,1.3257,1.3369,1.3438,1.3566,1.3702,1.3578,1.3479,1.353,1.3825,1.3994,1.3971,1.4205,1.4337,1.4373,1.4516,1.4689,1.4799,1.4846,1.4799,1.4783,1.4934,1.4956,1.5013,1.5247,1.5401,1.5609,1.5747,1.5858,1.5956,1.5883,1.5921,1.1751,0.0,1.2224,1.2342,0.0,1.2451,1.2447,1.2518,1.2636,1.2615,1.2572,1.263,1.2638,1.2579,1.277,1.286,1.2841,1.3032,1.3185,1.3301,1.3168,1.3132,1.3296,1.3319,1.3391,1.3558,1.3863,1.4131,1.4407,1.447,1.4836,1.543,1.5664,1.6118,1.6677,1.7081,1.6618,1.5365,1.5318,1.5152,1.4776,1.4891,1.4989,1.5114,0.0,0.0,0.0,0.0,0.0,0.0,0.0,0.0,0.0,0.0,0.0,1.4949,1.4603,1.4434,1.4501,1.4384,1.4347,1.4435,1.4514,1.4298,1.3551,1.359,1.3582,1.3344,1.3488,1.3441,1.308,1.3007,1.291,1.2856,1.2861,1.291,1.3045,1.3142,1.3243,1.3281,1.3377,1.3409,1.342,1.3467,1.352,1.3563,1.3716,1.3821,1.3868,1.3773,1.3763,1.3847,1.3999,1.4098,1.4015,1.4116,1.421,1.4204,1.4268,1.4409,1.4479,1.4474,1.4464,1.4547,1.4602,1.4701,1.4854,1.5012,1.517,1.5273,1.537,1.5456,1.5419,1.5542,1.572,1.1763,1.1824,1.2097,1.2211,1.222,1.2276,1.2335,1.2457,0.0,0.0,0.0,1.2423,1.2759,1.3173,1.3358,1.3673,1.4077,1.4089,1.4249,1.4355,1.409,1.405,1.4146,1.4099,1.4162,1.4157,1.4518,1.4787,1.4905,1.507,1.547,1.6081,1.6162,1.6589,1.7368,1.7656,1.7215,1.6144,1.5903,1.5598,1.5108,1.524,1.5297,1.5351,1.543,1.5513,1.5507,1.5564,1.5564,1.5558,1.5558,1.5513,1.5513,1.5478,1.54,1.5291,1.5274,1.5123,1.4929,1.5152,1.5274,1.5115,1.5327,1.5036,1.3887,1.3686,1.3549,1.352,1.3372,1.3319,1.3319,1.3185,1.319,1.3271,1.3185,1.3243,1.3415,1.351,1.3615,1.3658,1.3705,1.371,1.371,1.3763,1.3868,1.3915,1.4015,1.4067,1.4109,1.4109,1.4098,1.428,1.4326,1.4332,1.4326,1.4291,1.4233,1.4141,1.4094,1.4067,1.4062,1.4062,1.415,1.4361,1.4326,1.4458,1.4586,1.4734,1.4719,1.4879,1.492,1.4954,1.5142,1.5348,1.558,1.2768,1.303,1.3186,1.3361,1.3549,1.3668,1.3651,1.3437,1.2815,1.2603,1.2747,1.3233,1.3294,1.3139,1.3973,1.4343,1.4331,1.4499,1.4779,0.0,1.5026,1.5007,1.5002,1.5293,1.5436,1.5436,1.5698,1.594,1.6177,1.6387,1.6709,1.7041,1.7213,1.7407,1.7645,1.7926,1.775,1.7185,1.7151,1.6709,1.5785,1.6015,1.5898,1.5504,1.5513,1.5558,1.5671,1.5665,1.5709,1.5748,1.5709,1.5665,1.5683,1.5973,1.6121,1.5986,1.6298,1.6431,1.6141,1.617,1.6165,1.593,1.5884,1.5473,1.4648,1.4403,1.4207,1.3979,1.3815,1.3721,1.3716,1.3757,1.373,1.3604,1.3636,1.3721,1.3815,1.4005,1.4146,1.4199,1.4134,1.4167,1.422,1.4094,1.4141,1.4255,1.4359,1.443,1.4586,1.4482,1.4482,1.4638,1.4736,1.4736,1.4673,1.4581,1.4477,1.4384,1.4332,1.4337,1.4332,1.4436,1.4529,1.4678,1.4673,1.4759,1.4875,1.4971,1.5074,1.5227,1.5306,1.539,1.5474,1.558,1.5672,1.268,1.2862,1.3089,1.32,1.33,1.3491,1.3582,1.3599,1.3355,1.3214,1.3296,1.3576,1.3793,1.3974,1.4388,1.4687,1.496,1.509,1.5357,1.5599,1.5657,1.5725,1.5773,1.6072,1.6239,1.6296,1.6508,1.674,1.6971,1.7139,1.7312,1.7551,1.7706,1.792,1.809,1.8302,1.824,1.8055,1.7775,1.728,1.6557,1.6722,1.6563,1.5984,1.6075,1.6029,1.5887,1.5792,1.5792,1.5919,1.6113,1.6178,1.6196,1.658,1.6764,1.6716,1.6769,1.6749,1.6606,1.6763,1.6887,1.7047,1.6975,1.6599,1.6005,1.5482,1.5144,1.5039,1.4913,1.4804,1.4798,1.4809,1.4798,1.4754,1.4858,1.4913,1.4963,1.511,1.5263,1.5344,1.5338,1.5344,1.5344,1.5026,1.4862,1.4982,1.4851,1.48,1.5,1.4989,1.4886,1.4851,1.4903,1.4943,1.4886,1.4794,1.4702,1.4632,1.4638,1.4632,1.4621,1.4713,1.4794,1.4937,1.4994,1.5125,1.5193,1.5283,1.5385,1.5486,1.5576,1.5659,1.5736,1.5881,1.5931,1.2768,1.2759,1.3105,1.3308,1.3415,1.357,1.3784,1.41,1.427,1.4212,1.4071,1.4125,1.431,1.4578,1.488,1.5216,1.5618,1.571,1.5884,1.6046,1.6171,1.6348,1.641,1.6627,1.6802,1.6976,1.7078,1.7296,1.7584,1.7639,1.775,1.7926,1.8139,1.8302,1.847,1.8619,1.8715,1.8691,1.837,1.7879,1.7399,1.7438,1.7219,1.6787,1.6845,1.6751,1.6428,1.6332,1.6281,1.6422,1.672,1.6845,1.6822,1.7231,1.742,1.7383,1.7296,1.7254,1.7221,1.7376,1.7672,1.8021,1.7914,1.7701,1.7328,1.6729,1.6177,1.6017,1.5816,1.5782,1.576,1.5827,1.5855,1.5855,1.5906,1.5918,1.6013,1.6081,1.6233,1.6373,1.6384,1.635,1.6361,1.6033,1.5756,1.5564,1.5279,1.5125,1.53,1.5357,1.53,1.5193,1.5142,1.5142,1.504,1.5045,1.5017,1.4914,1.4914,1.4908,1.4954,1.4977,1.5057,1.5153,1.5249,1.539,1.5519,1.5552,1.5603,1.5748,1.5842,1.5881,1.6038,1.6138,1.6182,1.3853,1.3903,1.4214,1.4599,1.4916,1.5114,1.5331,1.5661,1.581,1.5695,1.5374,1.5214,1.4968,1.4767,1.568,1.6218,1.6451,1.6291,1.6348,1.6575,1.6694,1.6761,1.6812,1.7022,1.7245,1.7423,1.759,1.775,1.7903,1.8139,1.8362,1.8512,1.8554,1.8625,1.8738,1.8887,1.9034,1.9127,1.9208,1.8882,1.8169,1.8216,1.8111,1.7707,1.7676,1.7664,1.7589,1.7621,1.7597,1.7663,1.7646,1.7622,1.7569,1.8019,1.8172,1.796,1.8323,1.859,1.846,1.846,1.8447,1.8494,1.8416,1.829,1.8226,1.8174,1.7588,1.6661,1.621,1.6209,1.6221,1.6317,1.6367,1.6401,1.6367,1.6266,1.6334,1.6311,1.6473,1.6663,1.6773,1.6708,1.6883,1.6729,1.6475,1.6136,1.5753,1.5512,1.5557,1.5593,1.5626,1.557,1.5519,1.5468,1.5418,1.5424,1.534,1.5267,1.5267,1.5267,1.5261,1.5261,1.5306,1.5468,1.5513,1.5608,1.5703,1.5792,1.5881,1.6057,1.615,1.62,1.6312,1.6355,1.6349,1.4369,1.4478,1.472,1.502,1.5303,1.5525,1.5761,1.6046,1.6291,1.6201,1.6011,1.6447,1.6254,1.5524,1.6009,1.6419,1.6955,1.6965,1.7078,1.7251,1.7418,1.7473,1.759,1.7695,1.7805,1.8035,1.8096,1.8187,1.8338,1.8518,1.8738,1.8922,1.8975,1.904,1.9164,1.9204,1.9297,1.9402,1.9506,1.9459,1.9261,1.9082,1.878,1.8351,1.8283,1.8172,1.7931,1.7852,1.7858,1.7918,1.8154,1.8234,1.8222,1.8686,1.8928,1.8756,1.8826,1.8839,1.8732,1.8732,1.8738,1.8732,1.8572,1.8518,1.8637,1.8572,1.8265,1.7886,1.7583,1.7478,1.7507,1.7524,1.7577,1.7571,1.7618,1.7606,1.7571,1.7606,1.7723,1.7833,1.7833,1.7827,1.7832,1.7558,1.7223,1.681,1.6338,1.6077,1.6111,1.5963,1.5766,1.5754,1.5792,1.5742,1.5659,1.5564,1.5519,1.5531,1.5543,1.5537,1.557,1.5697,1.5742,1.578,1.583,1.5875,1.6013,1.6063,1.6106,1.6281,1.6355,1.6399,1.6436,1.6479,1.6485,1.481,1.4942,1.5195,1.5478,1.5758,1.595,1.6136,1.6451,1.6745,1.6708,1.6493,1.7288,1.7194,1.6574,1.6607,1.6983,1.7435,1.7634,1.7805,1.7871,1.8078,1.8193,1.8302,1.8296,1.8464,1.8572,1.8631,1.8679,1.8827,1.8893,1.9099,1.9291,1.9285,1.9408,1.9525,1.9583,1.9623,1.9778,1.9766,1.9881,1.9978,1.9784,1.943,1.907,1.9039,1.889,1.8601,1.8485,1.8491,1.8589,1.8871,1.8982,1.8944,1.9257,1.9374,1.9269,1.9158,1.9052,1.8952,1.8952,1.8905,1.8958,1.8774,1.878,1.8833,1.8833,1.8833,1.8863,1.8798,1.8596,1.8464,1.847,1.853,1.8464,1.8572,1.856,1.8506,1.8619,1.8632,1.8762,1.8614,1.8721,1.8638,1.8252,1.7754,1.7492,1.7063,1.6775,1.6774,1.6465,1.6167,1.6136,1.6122,1.5963,1.5798,1.5786,1.5742,1.5792,1.5842,1.5848,1.5887,1.6007,1.605,1.6013,1.615,1.6194,1.6231,1.6231,1.6324,1.6454,1.6534,1.6571,1.6614,1.662,1.6663,1.5313,1.558,1.5904,1.6229,1.657,1.6706,1.6957,1.7217,1.749,1.7437,1.7192,1.7397,1.7456,1.7572,1.7852,1.805,1.8078,1.8176,1.8278,1.8338,1.8572,1.8738,1.8744,1.8887,1.9034,1.9127,1.9133,1.9198,1.9374,1.9374,1.9466,1.9571,1.961,1.972,1.9933,1.9984,2.0042,2.0175,2.0175,2.0175,2.0175,2.0182,2.0163,2.0105,2.0131,2.0023,2.0054,2.008,2.0067,2.0092,1.994,1.9863,1.9761,1.9631,1.9519,1.942,1.9368,1.9368,1.9322,1.9223,1.9223,1.9316,1.9093,1.9034,1.9133,1.9158,1.9158,1.9186,1.9251,1.9152,1.8715,1.8792,1.8792,1.8679,1.8619,1.8667,1.8798,1.8792,1.8893,1.9087,1.9034,1.8987,1.8975,1.8536,1.8295,1.8135,1.7793,1.7557,1.749,1.7201,1.6965,1.6831,1.6567,1.6169,1.6057,1.6007,1.6106,1.615,1.61,1.6156,1.6194,1.6194,1.6194,1.62,1.6244,1.6324,1.6355,1.6442,1.6491,1.6583,1.6682,1.6718,1.6748,1.684,1.6882,1.5979,1.628,1.6467,1.6742,1.7016,1.7169,1.7401,1.7695,1.7903,1.8035,1.8154,1.8342,1.8547,1.8756,1.8943,1.8881,1.8572,1.8667,1.8815,1.8863,1.8981,1.9146,1.9303,1.935,1.9448,1.9546,1.9598,1.9662,1.9784,1.9778,1.9888,1.9971,2.0074,2.0175,2.0271,2.0321,2.0466,2.056,2.0603,2.0623,2.0686,2.0686,2.0729,2.0686,2.0378,2.0226,2.0226,2.0226,2.0226,2.0226,2.0125,2.0131,2.0016,1.985,1.9701,1.9656,1.9571,1.9512,1.942,1.9414,1.9414,1.9368,1.9309,1.9303,1.9408,1.942,1.9414,1.9546,1.9598,1.95,1.9303,1.921,1.9152,1.9146,1.9099,1.9099,1.9164,1.9164,1.921,1.9303,1.9257,1.9263,1.9226,1.9086,1.8977,1.8922,1.8558,1.8314,1.8185,1.7811,1.7515,1.7503,1.7443,1.7177,1.6788,1.6378,1.6206,1.6275,1.6312,1.6355,1.6355,1.6399,1.6405,1.6497,1.6497,1.6547,1.662,1.6663,1.6712,1.6754,1.6852,1.6846,1.6876,1.6918,1.696,1.6729,1.696,1.7101,1.7274,1.7512,1.7754,1.7972,1.817,1.8387,1.8661,1.8887,1.9146,1.9402,1.9617,1.9766,1.9668,1.9309,1.9362,1.9356,1.9442,1.95,1.961,1.9766,1.9817,1.9862,1.9952,2.0055,2.0118,2.0175,2.0175,2.0271,2.0429,2.051,2.056,2.0623,2.0729,2.0865,2.0908,2.0957,2.1026,2.1124,2.1124,2.1138,2.1082,2.0785,2.0529,2.0429,2.0485,2.0485,2.0442,2.0378,2.0283,2.0175,2.0022,1.9907,1.992,1.9862,1.9766,1.9668,1.9662,1.9656,1.9668,1.9525,1.9466,1.972,1.9623,1.9662,1.9805,1.9901,1.9856,1.9772,1.9675,1.9623,1.9519,1.9466,1.9519,1.9577,1.9565,1.9525,1.9466,1.9466,1.9466,1.942,1.9414,1.9402,1.942,1.9082,1.8937,1.8856,1.8524,1.8214,1.8231,1.8147,1.7978,1.7748,1.7413,1.676,1.6691,1.6566,1.6578,1.6565,1.6614,1.6656,1.6712,1.6797,1.6846,1.6846,1.6888,1.6931,1.6931,1.6924,1.6918,1.6954,1.6996,1.7031,1.7556,1.77,1.788,1.799,1.8187,1.8446,1.8608,1.8721,1.9182,1.9393,1.9408,1.9708,1.9901,2.0061,2.0175,2.0271,2.0321,2.0125,2.0035,1.9984,2.0125,2.0182,2.0175,2.022,2.0271,2.0409,2.0566,2.061,2.0616,2.0616,2.066,2.0802,2.0858,2.0914,2.0983,2.1124,2.1235,2.1229,2.1313,2.1375,2.141,2.1416,2.1416,2.1416,2.1375,2.1229,2.0983,2.0983,2.0941,2.0934,2.0716,2.0466,2.0277,2.0226,2.0239,2.022,2.0175,2.0175,2.0125,1.9971,1.9907,2.0022,1.972,1.9681,2.0029,1.9914,1.9862,2.0029,2.0131,2.0131,2.0035,2.008,2.0022,1.9708,1.9668,1.9772,1.9888,1.9869,1.9753,1.9656,1.9656,1.9558,1.9466,1.9466,1.9519,1.9512,1.9515,1.9562,1.9506,1.9189,1.9126,1.9092,1.8909,1.8703,1.8614,1.8484,1.7753,1.7187,1.6972,1.6858,1.6786,1.6797,1.6791,1.6882,1.6924,1.6967,1.6967,1.7009,1.7009,1.7009,1.7038,1.708,1.7122,1.7164,1.7192,1.834,1.847,1.8506,1.8721,1.8999,1.9105,1.9251,1.9442,1.9701,1.9875,1.9971,2.0213,2.0472,2.0673,2.0835,2.097,2.1075,2.0977,2.0785,2.0479,2.0459,2.051,2.0616,2.0603,2.0666,2.0828,2.0934,2.1026,2.1026,2.1124,2.1166,2.1209,2.1306,2.1361,2.1423,2.1554,2.1616,2.1616,2.165,2.1657,2.165,2.1705,2.165,2.1657,2.1664,2.1664,2.1568,2.1271,2.1138,2.1138,2.0977,2.0835,2.0736,2.0573,2.0459,2.0472,2.0271,2.0226,2.0175,2.0118,2.0125,2.0182,2.0029,2.0029,2.0175,2.0131,2.0125,2.0296,2.0435,2.0422,2.0398,2.0435,2.0315,2.0029,2.0022,2.0022,2.0137,2.0131,2.008,2.0022,2.0022,1.9971,1.9971,1.9926,1.9926,1.9933,1.9978,1.9965,1.9984,1.9864,1.9832,1.9838,1.9658,1.9409,1.9307,1.9223,1.8776,1.8029,1.7593,1.721,1.7136,1.6967,1.6967,1.7015,1.7051,1.7086,1.7128,1.7128,1.7122,1.717,1.7212,1.7253,1.7302,1.733,1.7317,1.8989,1.89,1.8894,1.9107,1.9376,1.9385,1.9684,2.0086,2.0301,2.0477,2.0673,2.0865,2.1118,2.1368,2.1465,2.1561,2.1712,2.1698,2.1506,2.1202,2.0957,2.0957,2.1006,2.1055,2.1118,2.1222,2.1361,2.1471,2.1513,2.1554,2.165,2.1698,2.18,2.1807,2.1855,2.1949,2.2037,2.2044,2.2077,2.2084,2.2091,2.2091,2.2077,2.2091,2.2091,2.2091,2.2091,2.18,2.1568,2.1423,2.1271,2.118,2.1089,2.0927,2.0815,2.0723,2.0592,2.0505,2.0485,2.0391,2.0347,2.0404,2.0334,2.0334,2.0385,2.0385,2.0435,2.0542,2.0586,2.0636,2.0629,2.0642,2.0642,2.0536,2.0378,2.0365,2.0416,2.0365,2.0321,2.0271,2.0226,2.0226,2.0226,2.0226,2.0226,2.0226,2.0226,2.0226,2.0226,2.0169,2.0226,2.0283,2.0218,2.0012,1.9956,1.9801,1.9713,1.9045,1.8319,1.7892,1.7562,1.7193,1.708,1.7177,1.7225,1.7295,1.7295,1.7323,1.7317,1.7371,1.7378,1.7413,1.7406,1.7441,1.7427,1.9544,1.9179,1.9128,1.9258,1.9432,1.9565,2.0033,2.067,2.0948,2.1176,2.1396,2.1561,2.1759,2.199,2.1983,2.2084,2.2184,2.221,2.2177,2.203,2.1739,2.1554,2.1513,2.1561,2.1616,2.1664,2.1746,2.1888,2.1996,2.1996,2.2091,2.217,2.2217,2.2224,2.227,2.237,2.241,2.241,2.2555,2.2562,2.2562,2.2608,2.2593,2.2593,2.2562,2.2562,2.2555,2.2402,2.2163,2.1848,2.1657,2.152,2.1284,2.1235,2.1138,2.1033,2.0967,2.0918,2.0898,2.0699,2.0618,2.0825,2.0649,2.0529,2.0642,2.0629,2.0629,2.0679,2.0742,2.0792,2.0822,2.0904,2.0918,2.099,2.0772,2.066,2.0752,2.0653,2.0616,2.0472,2.0328,2.0277,2.0328,2.0328,2.0328,2.0328,2.0328,2.0378,2.0328,2.0385,2.0391,2.0448,2.0555,2.0534,2.0374,2.0398,2.0253,1.9926,1.9179,1.8583,1.7957,1.7506,1.7199,1.7295,1.7391,1.7426,1.7454,1.7441,1.7434,1.7434,1.7434,1.7468,1.7516,1.7564,1.7605,1.9969,1.9797,1.9363,1.9568,2.0127,2.0213,2.071,2.1465,2.167,2.1759,2.1888,2.2077,2.2231,2.2317,2.2424,2.247,2.2509,2.2533,2.2572,2.2572,2.2558,2.2296,2.203,2.2037,2.2044,2.2084,2.2184,2.2278,2.2331,2.2417,2.2456,2.2572,2.2572,2.2625,2.2716,2.2754,2.2761,2.2754,2.2814,2.2814,2.2852,2.2852,2.2814,2.2806,2.2814,2.2806,2.2814,2.2709,2.2395,2.199,2.1942,2.1855,2.1664,2.1561,2.1458,2.1319,2.1187,2.1102,2.099,2.0947,2.0911,2.0961,2.0898,2.0885,2.0885,2.0878,2.0885,2.0934,2.099,2.1089,2.1075,2.1158,2.12,2.1222,2.1129,2.0961,2.097,2.0927,2.0885,2.0835,2.0779,2.0785,2.0729,2.0736,2.0736,2.0742,2.0742,2.0736,2.0686,2.0692,2.0699,2.0799,2.0848,2.0898,2.0865,2.0858,2.0835,2.0689,2.0066,1.9336,1.8568,1.7796,1.7545,1.7447,1.7461,1.7502,1.7495,1.7482,1.7516,1.7557,1.7564,1.7611,1.7666,1.7713,1.7794,2.0436,1.9884,1.9556,1.9876,2.0533,2.0567,2.1175,2.2051,2.2249,2.2342,2.2495,2.2586,2.273,2.2776,2.2873,2.2873,2.2918,2.2949,2.2934,2.2979,2.3076,2.2897,2.2579,2.2487,2.2487,2.2487,2.2586,2.2632,2.2678,2.2776,2.2859,2.2942,2.2934,2.3024,2.3127,2.3172,2.3165,2.3201,2.3201,2.3201,2.3201,2.3201,2.3201,2.3194,2.3165,2.3135,2.3083,2.2979,2.2754,2.2388,2.2263,2.2184,2.2091,2.1935,2.18,2.165,2.1465,2.1361,2.1319,2.1222,2.118,2.1235,2.1235,2.1235,2.118,2.1222,2.1222,2.1277,2.1284,2.1326,2.1477,2.1675,2.1874,2.2082,2.1888,2.1694,2.1408,2.1277,2.1222,2.118,2.1138,2.1039,2.1033,2.099,2.0997,2.0997,2.0947,2.0947,2.0947,2.0997,2.1046,2.1089,2.1039,2.1039,2.1039,2.1033,2.118,2.1066,2.088,2.0111,1.9128,1.8247,1.7898,1.7724,1.7644,1.7618,1.7659,1.7659,1.77,1.774,1.7754,1.7754,1.7842,1.7842,1.7922,2.0913,1.9845,1.9781,2.0215,2.0868,2.0904,2.1693,2.2655,2.2785,2.2927,2.3076,2.3172,2.3172,2.3312,2.3268,2.3312,2.3312,2.3312,2.3356,2.34,2.3458,2.3363,2.3083,2.2979,2.2972,2.2979,2.2979,2.3024,2.312,2.3172,2.3216,2.3297,2.3348,2.3407,2.3502,2.3545,2.3581,2.3617,2.3602,2.3602,2.3602,2.3602,2.3602,2.3602,2.3574,2.3502,2.34,2.3348,2.3172,2.2837,2.273,2.2601,2.2417,2.231,2.217,2.2044,2.1855,2.1752,2.1759,2.1609,2.1561,2.1664,2.1657,2.1609,2.1554,2.1609,2.165,2.1664,2.1568,2.1719,2.2042,2.2457,2.2825,2.3014,2.3049,2.2714,2.2152,2.1794,2.1609,2.1458,2.1313,2.1229,2.1131,2.1082,2.1138,2.1271,2.1277,2.1277,2.1277,2.1271,2.1271,2.1222,2.1173,2.1124,2.1124,2.1124,2.1319,2.1417,2.1341,2.0777,1.9755,1.894,1.838,1.8118,1.8031,1.795,1.7916,1.7916,1.7916,1.7909,1.7949,1.7949,1.7949,1.7956,1.8036,2.1226,2.0922,2.0463,2.0973,2.2012,2.2138,2.2594,2.3348,2.3421,2.3421,2.3472,2.3516,2.3516,2.3559,2.3566,2.3523,2.3574,2.3653,2.3746,2.3847,2.3862,2.3862,2.3711,2.3551,2.3465,2.3472,2.3465,2.3465,2.3516,2.3516,2.3551,2.3696,2.3696,2.3761,2.3855,2.3897,2.3897,2.3932,2.3932,2.3925,2.3925,2.3925,2.3925,2.3925,2.3897,2.3897,2.3839,2.3746,2.3653,2.353,2.3216,2.2949,2.2716,2.2618,2.2487,2.2363,2.2278,2.2184,2.2123,2.2084,2.2044,2.2077,2.2077,2.2044,2.203,2.2037,2.2084,2.2091,2.2051,2.2232,2.274,2.2992,2.3582,2.4013,2.4071,2.3843,2.3281,2.2472,2.1971,2.1752,2.1705,2.1664,2.1616,2.1609,2.1609,2.1602,2.1602,2.1602,2.1602,2.1554,2.1554,2.1506,2.1561,2.1513,2.1561,2.1561,2.1705,2.1848,2.1813,2.1742,2.0687,1.9742,1.9314,1.8797,1.8378,1.8302,1.8232,1.8123,1.8123,1.8116,1.8109,1.8156,1.8156,1.8116,1.8109,2.2199,2.188,2.1569,2.2025,2.2892,2.2991,2.3322,2.3868,2.3909,2.3902,2.3909,2.3909,2.3902,2.3902,2.3909,2.3952,2.3959,2.4002,2.4051,2.4143,2.42,2.425,2.4242,2.4128,2.4029,2.3902,2.3917,2.3917,2.3959,2.3952,2.3952,2.4051,2.4051,2.4101,2.42,2.4242,2.4227,2.4268,2.4268,2.4261,2.4261,2.4268,2.4276,2.4234,2.4242,2.4193,2.4135,2.4094,2.3994,2.3909,2.3688,2.3428,2.3113,2.2934,2.2852,2.2768,2.2685,2.2639,2.254,2.2533,2.254,2.2533,2.254,2.254,2.2533,2.2533,2.2533,2.254,2.259,2.279,2.3433,2.4309,2.4794,2.5125,2.522,2.4994,2.437,2.3416,2.2513,2.225,2.2091,2.2044,2.2044,2.2037,2.1942,2.1888,2.1848,2.1848,2.1752,2.1752,2.1793,2.1841,2.1942,2.1996,2.1996,2.2091,2.2184,2.2317,2.2385,2.2355,2.1962,2.1068,2.0274,1.9676,1.907,1.8646,1.8521,1.8451,1.8375,1.8361,1.8361,1.8361,1.8361,1.8354,1.8354,2.3378,2.2852,2.2844,2.3177,2.3686,2.374,2.398,2.4372,2.4385,2.4377,2.4392,2.4426,2.4426,2.4377,2.4392,2.4426,2.4392,2.44,2.4434,2.4482,2.4523,2.4572,2.4564,2.4597,2.4541,2.4328,2.4343,2.4351,2.44,2.4385,2.4418,2.4426,2.4385,2.4475,2.4572,2.458,2.4613,2.4645,2.4638,2.4638,2.4692,2.477,2.4885,2.5111,2.5077,2.5035,2.4955,2.4789,2.4578,2.4391,2.4265,2.4051,2.3754,2.3414,2.3224,2.3209,2.312,2.3076,2.3076,2.3024,2.3031,2.3068,2.3031,2.3031,2.3031,2.3076,2.3076,2.3127,2.3229,2.3639,2.4326,2.5242,2.6066,2.6424,2.651,2.6105,2.535,2.44,2.362,2.263,2.2456,2.241,2.2363,2.2317,2.2217,2.2123,2.213,2.2091,2.2037,2.2037,2.2163,2.2256,2.2356,2.2456,2.2502,2.2618,2.2723,2.2776,2.2904,2.2905,2.2936,2.2411,2.1504,2.0434,1.9804,1.9346,1.8963,1.8807,1.8744,1.8623,1.8602,1.8641,1.8595,1.8549,1.8549,2.4037,2.3925,2.3875,2.4242,2.4752,2.4776,2.4784,2.4871,2.4878,2.4878,2.4886,2.4878,2.4886,2.4886,2.4894,2.4886,2.4871,2.4871,2.4886,2.4926,2.4926,2.4966,2.4966,2.5037,2.5037,2.5005,2.4886,2.4774,2.4774,2.4814,2.4871,2.4878,2.4878,2.4926,2.4926,2.4926,2.4926,2.4989,2.5037,2.5084,2.5163,2.5574,2.6048,2.6393,2.6459,2.6456,2.6409,2.602,2.5696,2.5633,2.5041,2.4717,2.4492,2.4128,2.3875,2.3696,2.3653,2.361,2.361,2.3559,2.3617,2.3711,2.3703,2.3653,2.3653,2.3746,2.3739,2.3861,2.4274,2.4972,2.6353,2.6645,2.7078,2.7516,2.7569,2.7126,2.6165,2.5475,2.4623,2.3405,2.3072,2.2814,2.2806,2.2761,2.2663,2.2618,2.2618,2.2572,2.2526,2.2618,2.2754,2.2754,2.2806,2.2904,2.2956,2.3113,2.3238,2.3253,2.3348,2.3428,2.3435,2.3435,2.2756,2.1772,2.0782,2.0078,1.9684,1.9344,1.9096,1.8979,1.8941,1.8917,1.8903,1.8851,1.8805,2.5151,2.5098,2.5057,2.5169,2.5368,2.5378,2.5339,2.5301,2.5317,2.5309,2.5309,2.5325,2.5325,2.5309,2.5317,2.5347,2.5378,2.5462,2.5478,2.547,2.547,2.5462,2.547,2.5492,2.5538,2.5546,2.547,2.5309,2.5224,2.527,2.5317,2.5309,2.5309,2.5309,2.5293,2.5301,2.5309,2.5349,2.5621,2.5838,2.5918,2.6551,2.7128,2.7377,2.7514,2.7474,2.741,2.7184,2.667,2.6278,2.5895,2.5504,2.5187,2.4863,2.4581,2.4294,2.4219,2.4177,2.4219,2.4162,2.417,2.4302,2.4302,2.4294,2.4253,2.4294,2.4377,2.4559,2.5275,2.6072,2.6771,2.7419,2.8068,2.8378,2.8463,2.7968,2.7172,2.658,2.5528,2.428,2.3724,2.3429,2.3282,2.3194,2.315,2.3106,2.3098,2.3061,2.3061,2.315,2.3282,2.337,2.3377,2.3465,2.3559,2.3673,2.3794,2.3759,2.3817,2.3902,2.3952,2.3937,2.3819,2.3284,2.2274,2.1037,2.0284,1.9855,1.9597,1.9354,1.9272,1.9205,1.9198,1.9146,1.9071,2.6118,2.609,2.5982,2.5909,2.5811,2.5811,2.5783,2.5717,2.5688,2.568,2.5725,2.5696,2.5704,2.5733,2.5725,2.5762,2.582,2.5917,2.5926,2.5917,2.5917,2.5954,2.5962,2.5962,2.5954,2.599,2.601,2.5946,2.5725,2.5717,2.5725,2.5725,2.5725,2.5725,2.5709,2.5717,2.5725,2.5896,2.6238,2.6629,2.7109,2.7736,2.8249,2.8347,2.8355,2.8437,2.8543,2.8258,2.7875,2.7347,2.6844,2.6391,2.5875,2.564,2.537,2.5013,2.4839,2.4751,2.4743,2.4775,2.4767,2.4887,2.4942,2.4902,2.4871,2.4918,2.5045,2.5338,2.592,2.6882,2.745,2.8213,2.8813,2.9128,2.9042,2.879,2.8018,2.7328,2.6592,2.5512,2.4595,2.407,2.3894,2.3752,2.3709,2.3716,2.3666,2.3673,2.3673,2.3759,2.3887,2.3937,2.4021,2.4113,2.4196,2.4271,2.4297,2.4297,2.4387,2.4477,2.4451,2.4459,2.4333,2.4184,2.3316,2.2133,2.1265,2.0415,2.013,1.9863,1.9634,1.9487,1.9442,1.9369,1.9295,2.6503,2.6442,2.6312,2.6252,2.6225,2.6154,2.6118,2.6126,2.601,2.6018,2.611,2.6026,2.6018,2.6126,2.6126,2.6134,2.6162,2.6225,2.6268,2.626,2.6225,2.6233,2.6206,2.6162,2.6287,2.6357,2.6383,2.6181,2.6082,2.6118,2.6126,2.6126,2.6126,2.6134,2.611,2.6162,2.6134,2.6143,2.6258,2.6928,2.8053,2.8864,2.9476,2.9939,3.0071,3.0063,2.9954,2.9582,2.9176,2.8976,2.7893,2.7284,2.6958,2.6363,2.6151,2.5949,2.5746,2.5416,2.5362,2.5315,2.5384,2.546,2.5551,2.5522,2.5484,2.5516,2.577,2.6613,2.6756,2.7226,2.8054,2.8602,2.9143,2.9434,2.9531,2.9186,2.8627,2.7985,2.7243,2.6591,2.564,2.4996,2.4606,2.4436,2.4313,2.432,2.4279,2.4271,2.4313,2.4428,2.455,2.4671,2.4711,2.4799,2.4847,2.4918,2.491,2.4863,2.491,2.5044,2.5005,2.4974,2.4958,2.465,2.3927,2.3178,2.2234,2.146,2.0847,2.0322,1.9972,1.9797,1.969,1.9581,1.9479,2.6933,2.6792,2.664,2.6564,2.653,2.6487,2.6504,2.6453,2.6435,2.6426,2.6469,2.6435,2.6461,2.653,2.6607,2.6691,2.6716,2.6733,2.6758,2.675,2.675,2.6758,2.6791,2.6758,2.6816,2.6816,2.6858,2.6849,2.6691,2.653,2.6469,2.6504,2.653,2.6521,2.6521,2.6607,2.6607,2.669,2.6999,2.7897,2.9051,2.9761,3.0258,3.0979,3.0973,3.099,3.0906,3.074,3.0244,2.9977,2.9142,2.8527,2.7931,2.7374,2.713,2.6657,2.6547,2.6297,2.6013,2.5949,2.5977,2.6085,2.6137,2.6173,2.6137,2.6118,2.6212,2.6714,2.7055,2.7611,2.826,2.8591,2.8909,2.9243,2.9617,2.9568,2.9148,2.8588,2.796,2.7357,2.6735,2.6072,2.5484,2.5229,2.5105,2.5005,2.5005,2.5028,2.5082,2.5176,2.5299,2.5468,2.5476,2.5476,2.5522,2.5559,2.5551,2.5535,2.5468,2.5551,2.5581,2.5551,2.5522,2.5492,2.5161,2.4304,2.3255,2.2236,2.1358,2.0767,2.022,2.0108,1.996,1.9767,1.9624,2.7426,2.7224,2.6989,2.6891,2.6825,2.6825,2.6833,2.6816,2.68,2.6783,2.6816,2.6825,2.6858,2.6899,2.6973,2.7047,2.7166,2.7221,2.7253,2.7253,2.7284,2.7261,2.723,2.7261,2.7261,2.7324,2.7261,2.7244,2.7204,2.7109,2.6947,2.6825,2.6858,2.6882,2.6923,2.6956,2.6965,2.6933,2.7539,2.8577,2.9668,3.012,3.0757,3.1293,3.1516,3.1487,3.1495,3.1432,3.1064,3.0506,3.0035,2.9264,2.839,2.7858,2.7573,2.7235,2.7109,2.7068,2.6799,2.6666,2.6581,2.6615,2.6716,2.6741,2.68,2.6725,2.6725,2.6984,2.7241,2.7632,2.8066,2.8507,2.881,2.9118,2.9436,2.9551,2.9593,2.9036,2.8566,2.8009,2.746,2.7072,2.6536,2.6167,2.5919,2.5726,2.5726,2.5746,2.5827,2.5924,2.5997,2.6148,2.6175,2.6139,2.6129,2.6173,2.6181,2.6189,2.6154,2.6118,2.6129,2.6093,2.603,2.6038,2.6046,2.531,2.4227,2.2996,2.1813,2.1135,2.0587,2.0418,2.0231,2.0,1.976,2.7996,2.7873,2.7369,2.7172,2.7149,2.7141,2.7181,2.7141,2.7085,2.7109,2.7172,2.7181,2.7181,2.7213,2.7253,2.7324,2.7404,2.7364,2.7457,2.7496,2.7505,2.7518,2.7548,2.7578,2.7548,2.7617,2.763,2.7642,2.7642,2.7654,2.7413,2.7204,2.7267,2.7204,2.7213,2.7276,2.7411,2.7495,2.8058,2.8825,2.9756,3.0369,3.1052,3.1721,3.1903,3.1948,3.2091,3.1993,3.1697,3.1063,3.062,2.9828,2.899,2.846,2.8124,2.7717,2.7633,2.7624,2.7517,2.7281,2.7149,2.7172,2.7187,2.7264,2.7329,2.7281,2.7321,2.74,2.7617,2.7869,2.8251,2.8568,2.8726,2.8987,2.923,2.9429,2.9523,2.9523,2.9014,2.8574,2.8148,2.7736,2.7577,2.7192,2.6673,2.6471,2.6454,2.648,2.6598,2.6649,2.6682,2.6749,2.6807,2.6774,2.6766,2.6766,2.6791,2.6791,2.6757,2.6708,2.6674,2.6615,2.6573,2.6513,2.6437,2.584,2.5179,2.3959,2.2735,2.1576,2.0925,2.0753,2.0444,2.0162,1.9889,2.8219,2.8164,2.7979,2.773,2.7504,2.7504,2.7513,2.7522,2.7483,2.7513,2.7582,2.7582,2.7651,2.7727,2.7757,2.7806,2.7884,2.7884,2.7893,2.7922,2.7922,2.795,2.7988,2.7979,2.8026,2.8054,2.8073,2.8101,2.8137,2.8092,2.8064,2.7915,2.7751,2.771,2.7689,2.7762,2.8003,2.8407,2.8772,2.9404,3.0645,3.1032,3.1628,3.2408,3.2403,3.2437,3.247,3.2412,3.2243,3.1985,3.1647,3.0813,2.9937,2.9503,2.8945,2.8287,2.819,2.8164,2.8083,2.78,2.7603,2.7654,2.7666,2.7687,2.7771,2.7725,2.78,2.7876,2.7941,2.8218,2.8337,2.8424,2.8557,2.8806,2.9056,2.9251,2.9391,2.9449,2.9506,2.9086,2.8709,2.8313,2.8273,2.8202,2.7656,2.7175,2.7201,2.721,2.7295,2.7356,2.7378,2.7361,2.7404,2.7422,2.737,2.7378,2.7378,2.7378,2.7356,2.7295,2.7264,2.7258,2.7218,2.71,2.692,2.6488,2.5815,2.4831,2.3666,2.2352,2.1552,2.1055,2.072,2.0357,2.008,2.8423,2.8432,2.8397,2.8182,2.7862,2.7856,2.7847,2.7856,2.7847,2.7876,2.7913,2.7933,2.8016,2.8118,2.8136,2.8191,2.8228,2.8246,2.8282,2.8282,2.8309,2.8353,2.838,2.838,2.8371,2.8466,2.8466,2.8449,2.8457,2.8483,2.8448,2.8396,2.8362,2.8255,2.8127,2.8217,2.8593,2.9173,2.943,3.0071,3.1412,3.1689,3.2085,3.2809,3.2885,3.2934,3.2943,3.2894,3.2706,3.2572,3.2307,3.1873,3.1222,3.0631,3.008,2.9375,2.886,2.8822,2.8511,2.8255,2.8064,2.8129,2.8156,2.8147,2.8183,2.821,2.8299,2.8405,2.8457,2.85,2.8558,2.8589,2.859,2.8863,2.8963,2.9161,2.9296,2.9413,2.9602,2.9575,2.9385,2.9385,2.8748,2.8667,2.838,2.7911,2.7835,2.7835,2.7901,2.7937,2.7974,2.7993,2.8021,2.8011,2.8001,2.802,2.8002,2.7929,2.7909,2.7871,2.7823,2.782,2.7762,2.7598,2.7404,2.7156,2.6589,2.5789,2.4492,2.3077,2.2202,2.1246,2.0966,2.0603,2.0281,2.8728,2.877,2.8662,2.8442,2.8198,2.8182,2.8182,2.8165,2.8174,2.8201,2.8192,2.8192,2.8228,2.8327,2.8344,2.8423,2.8501,2.8527,2.8552,2.8578,2.8587,2.8621,2.8612,2.8612,2.8653,2.8603,2.8653,2.8703,2.8718,2.8718,2.8743,2.8806,2.8782,2.8685,2.8431,2.8405,2.8828,2.9494,2.9593,3.0638,3.1611,3.2034,3.2633,3.3033,3.3282,3.333,3.3377,3.3406,3.3179,3.2836,3.2765,3.2256,3.1491,3.1396,3.0865,2.9996,2.9939,2.9633,2.8973,2.8646,2.8576,2.8608,2.859,2.8658,2.8716,2.8773,2.8788,2.8854,2.8868,2.8888,2.8893,2.8906,2.8897,2.8934,2.9081,2.9182,2.9342,2.9438,2.9645,2.9925,3.0485,3.0693,2.972,2.9069,2.8897,2.8652,2.8511,2.8485,2.8501,2.8526,2.8535,2.8576,2.8567,2.8551,2.8569,2.8624,2.8599,2.8522,2.8444,2.8402,2.8333,2.829,2.8201,2.8093,2.792,2.771,2.7317,2.6854,2.5369,2.3845,2.2299,2.1371,2.1127,2.0835,2.052,2.8966,2.8975,2.8961,2.8855,2.8714,2.8555,2.8484,2.8484,2.8475,2.851,2.8527,2.8543,2.8569,2.8619,2.8669,2.8718,2.8776,2.8834,2.8867,2.8867,2.8867,2.8923,2.8905,2.8919,2.8934,2.8989,2.8998,2.8998,2.9044,2.9044,2.9076,2.9143,2.9128,2.9021,2.8863,2.8864,2.9202,2.9958,3.0515,3.1334,3.2292,3.2858,3.3286,3.3588,3.3671,3.3734,3.378,3.3798,3.3622,3.3382,3.3379,3.3071,3.2502,3.2436,3.1876,3.0884,3.0497,3.0126,2.9542,2.9175,2.911,2.9056,2.9002,2.9034,2.9056,2.9163,2.9194,2.9228,2.9263,2.9277,2.9299,2.9358,2.9358,2.9349,2.9433,2.9442,2.9544,2.961,2.9759,3.0115,3.059,3.0529,2.9887,2.972,2.9596,2.9414,2.9256,2.908,2.9058,2.9049,2.9061,2.9104,2.9126,2.9092,2.9089,2.9098,2.9095,2.9023,2.8956,2.8939,2.8846,2.8748,2.8694,2.8612,2.8455,2.8273,2.7852,2.7279,2.6059,2.4643,2.3249,2.1988,2.1517,2.1175,2.0786,2.9175,2.92,2.9181,2.9152,2.9095,2.8852,2.8737,2.8746,2.8737,2.8776,2.8825,2.8858,2.8863,2.8915,2.8962,2.9016,2.9039,2.9071,2.9102,2.9112,2.9093,2.9106,2.9138,2.9191,2.9203,2.9277,2.9307,2.9307,2.9328,2.9337,2.9388,2.942,2.9442,2.9372,2.9255,2.9243,2.9715,3.0554,3.137,3.2096,3.3019,3.3656,3.3977,3.4014,3.4065,3.4124,3.4114,3.4148,3.4173,3.4188,3.4152,3.4083,3.37,3.3449,3.299,3.2055,3.0987,3.0536,2.9833,2.9626,2.9532,2.9475,2.9377,2.9366,2.9395,2.9493,2.9523,2.957,2.9607,2.9652,2.9669,2.9732,2.975,2.975,2.9748,2.9757,2.9784,2.9833,2.9897,3.0264,3.0671,3.0466,3.0392,3.0358,3.0358,3.0184,3.0009,2.9808,2.9598,2.9542,2.9514,2.9541,2.956,2.9541,2.9523,2.9514,2.9495,2.9514,2.9446,2.9387,2.9336,2.9228,2.9181,2.9113,2.8934,2.8717,2.8341,2.7652,2.6641,2.5617,2.4451,2.3262,2.2153,2.1574,2.1175,2.9365,2.9383,2.9344,2.9334,2.9353,2.9147,2.9021,2.9007,2.9017,2.9053,2.9098,2.9089,2.9106,2.9166,2.9188,2.924,2.9291,2.9312,2.9342,2.9332,2.9312,2.9323,2.9332,2.9383,2.9412,2.9423,2.9453,2.952,2.9588,2.9598,2.9617,2.9673,2.9673,2.9645,2.957,2.9782,3.0297,3.1126,3.175,3.2573,3.3533,3.4195,3.4325,3.4367,3.4431,3.4454,3.4476,3.4498,3.4498,3.452,3.4533,3.4555,3.4588,3.4677,3.4183,3.3232,3.1778,3.0803,3.0045,2.9907,2.993,2.9869,2.9776,2.9743,2.9743,2.9795,2.982,2.9869,2.9909,2.9956,2.9987,3.0041,3.008,3.0076,3.0071,3.0075,3.0089,3.0109,3.0132,3.048,3.104,3.1173,3.1333,3.1335,3.1021,3.0732,3.0535,3.0369,3.0152,2.9962,2.9933,2.9889,2.993,2.9954,2.9939,2.9895,2.9864,2.9849,2.9822,2.9772,2.9731,2.9678,2.9579,2.9486,2.938,2.9142,2.8782,2.8218,2.7459,2.6471,2.5693,2.4528,2.3397,2.2233,2.1678,2.9605,2.9598,2.9598,2.9598,2.9617,2.9541,2.9395,2.9237,2.9197,2.9228,2.924,2.9258,2.927,2.9263,2.9392,2.9423,2.9472,2.9521,2.9579,2.9569,2.9551,2.9579,2.9579,2.9589,2.9608,2.9608,2.9636,2.9673,2.97,2.9736,2.9808,2.9835,2.9842,2.9859,3.0022,3.0363,3.0866,3.1382,3.1926,3.2885,3.3761,3.4365,3.4517,3.4642,3.4691,3.4732,3.4781,3.4821,3.4831,3.4851,3.4889,3.4936,3.4963,3.4952,3.4558,3.3016,3.1895,3.1029,3.0319,3.0166,3.0194,3.0211,3.0142,3.0099,3.0061,3.0061,3.0109,3.0128,3.0146,3.0177,3.0206,3.0263,3.0297,3.03,3.0304,3.0308,3.0309,3.0319,3.0349,3.0532,3.111,3.1382,3.1628,3.1969,3.1642,3.1301,3.1009,3.081,3.0617,3.0383,3.0275,3.0225,3.0237,3.0249,3.0261,3.022,3.0208,3.0193,3.0151,3.0107,3.0052,2.9999,2.9933,2.9838,2.9685,2.9486,2.9202,2.8644,2.8169,2.7861,2.7118,2.5867,2.4643,2.3537,2.2565,2.9785,2.9773,2.9797,2.9779,2.979,2.977,2.9681,2.9542,2.9474,2.9454,2.9446,2.9484,2.9474,2.9513,2.9579,2.9626,2.9636,2.9709,2.9764,2.9774,2.9782,2.9763,2.9763,2.979,2.9817,2.9817,2.9835,2.9876,2.9865,2.9914,2.9991,2.9972,2.9994,3.0019,3.0228,3.076,3.1374,3.1885,3.2466,3.3251,3.397,3.4567,3.4756,3.4879,3.4945,3.4991,3.5046,3.5108,3.5124,3.5138,3.5171,3.5187,3.5213,3.5212,3.4812,3.3456,3.2588,3.176,3.1024,3.0492,3.0431,3.0388,3.0429,3.0389,3.0356,3.0323,3.0333,3.0344,3.0369,3.0381,3.0422,3.0452,3.0482,3.0501,3.051,3.0507,3.0507,3.0507,3.0565,3.0651,3.0912,3.1191,3.1557,3.2018,3.2178,3.1705,3.1249,3.0902,3.0734,3.0574,3.0491,3.0482,3.051,3.0528,3.0528,3.049,3.0452,3.0414,3.0404,3.0363,3.0329,3.0283,3.0212,3.0103,2.9987,2.9782,2.9588,2.9407,2.9017,2.8667,2.8321,2.7428,2.6178,2.4913,2.402,2.9924,2.9895,2.9914,2.9902,2.9905,2.9914,2.9914,2.9907,2.9773,2.9709,2.9708,2.9708,2.9735,2.9744,2.9789,2.9789,2.9816,2.9876,2.9919,2.9938,2.9917,2.9914,2.993,2.9962,2.9991,3.0013,3.0044,3.0063,3.0098,3.0118,3.0114,3.0104,3.0166,3.0289,3.0638,3.1336,3.2077,3.2871,3.3516,3.4249,3.4754,3.5095,3.5148,3.5181,3.5207,3.5232,3.5293,3.5324,3.5304,3.5325,3.5345,3.535,3.5393,3.5391,3.4892,3.4164,3.3222,3.2388,3.1551,3.0907,3.0579,3.053,3.0576,3.0564,3.0537,3.0511,3.0511,3.0501,3.0519,3.0536,3.0563,3.0579,3.0603,3.0622,3.0637,3.0632,3.0646,3.0649,3.0674,3.0738,3.0792,3.1061,3.1324,3.1744,3.1855,3.169,3.1636,3.1205,3.0821,3.0682,3.066,3.0658,3.0668,3.0674,3.0684,3.0648,3.0639,3.062,3.0605,3.0566,3.0496,3.0481,3.0482,3.036,3.0237,3.014,2.9984,2.9787,2.9588,2.9361,2.9012,2.8764,2.7736,2.6419,2.545,3.0041,3.0063,3.0059,3.0059,3.0072,3.0053,3.0063,3.0038,3.0016,2.9949,2.9855,2.9855,2.9855,2.9881,2.9933,2.9949,2.9965,3.0007,3.0057,3.0047,3.0049,3.0045,3.0055,3.0099,3.0142,3.0142,3.0171,3.0208,3.024,3.0247,3.0276,3.0308,3.0362,3.0547,3.1237,3.2003,3.2849,3.3712,3.4493,3.4918,3.5184,3.532,3.5335,3.5345,3.535,3.5393,3.5449,3.5463,3.548,3.5518,3.5521,3.5536,3.5541,3.5552,3.5139,3.4386,3.3635,3.2774,3.1999,3.123,3.0723,3.0639,3.0661,3.0672,3.0655,3.0647,3.0649,3.0644,3.0658,3.0672,3.0685,3.0703,3.0714,3.0718,3.0734,3.0754,3.077,3.0763,3.0765,3.0762,3.0764,3.0928,3.1165,3.1306,3.1399,3.1597,3.1872,3.1669,3.1035,3.075,3.0724,3.0728,3.0755,3.0762,3.0771,3.0765,3.0729,3.0728,3.0706,3.0687,3.065,3.063,3.0608,3.0552,3.0472,3.0364,3.0263,3.0121,2.9939,2.977,2.9588,2.9273,2.8964,2.7909,2.6934,3.017,3.0184,3.0175,3.019,3.0195,3.0195,3.0195,3.0195,3.018,3.0147,3.0055,3.0028,2.9997,2.9994,3.0034,3.0074,3.0089,3.0128,3.0142,3.0147,3.0175,3.0184,3.0198,3.0215,3.0257,3.0279,3.0296,3.0321,3.0357,3.0392,3.0426,3.0437,3.0497,3.0884,3.1745,3.2575,3.3445,3.4318,3.5189,3.5471,3.5457,3.5483,3.5493,3.5486,3.5502,3.5536,3.5572,3.5593,3.5626,3.5668,3.5689,3.5669,3.5679,3.5689,3.5513,3.4871,3.4051,3.3048,3.2339,3.1537,3.0817,3.0736,3.074,3.0735,3.0745,3.0729,3.0735,3.0731,3.0735,3.074,3.0747,3.0762,3.0759,3.0768,3.0764,3.0772,3.0779,3.0784,3.0779,3.0781,3.0781,3.0811,3.0987,3.1016,3.1089,3.1087,3.1433,3.1503,3.1009,3.0768,3.0753,3.0753,3.0759,3.0781,3.0791,3.0781,3.078,3.0787,3.0792,3.0767,3.0725,3.0741,3.0731,3.0656,3.061,3.0571,3.0461,3.0345,3.0242,3.0087,2.9926,2.9744,2.9448,2.9161,2.8315,3.0309,3.0321,3.0311,3.0315,3.0324,3.0324,3.0315,3.0305,3.0305,3.0305,3.0299,3.019,3.0152,3.0133,3.0128,3.0166,3.0203,3.023,3.0234,3.0257,3.0315,3.0321,3.0316,3.0331,3.0362,3.0394,3.0398,3.0418,3.044,3.0481,3.0511,3.0521,3.0723,3.1023,3.1922,3.2735,3.3626,3.4623,3.5359,3.566,3.5689,3.5649,3.5617,3.5628,3.5629,3.565,3.5699,3.5727,3.5745,3.5771,3.5797,3.5794,3.5794,3.5801,3.5818,3.5324,3.4137,3.3453,3.2871,3.1675,3.1101,3.0789,3.0791,3.0792,3.0793,3.0792,3.0792,3.0796,3.0791,3.0794,3.079,3.0796,3.0788,3.079,3.0791,3.079,3.0797,3.0795,3.0792,3.0796,3.0788,3.0789,3.0784,3.0804,3.0794,3.0764,3.0742,3.0717,3.0704,3.0703,3.0691,3.0701,3.071,3.0739,3.077,3.0765,3.0757,3.079,3.0796,3.0789,3.0791,3.0779,3.0761,3.0732,3.0693,3.0667,3.0637,3.0552,3.0448,3.0337,3.0215,3.0054,2.9867,2.9591,2.9344,3.0391,3.0388,3.039,3.0386,3.0376,3.0376,3.0367,3.0386,3.0376,3.0376,3.0386,3.0364,3.0318,3.0257,3.0264,3.0279,3.0292,3.0336,3.0355,3.0376,3.0414,3.0447,3.0459,3.0452,3.0482,3.0482,3.0492,3.0511,3.0539,3.0566,3.0603,3.0647,3.0653,3.1385,3.2807,3.3468,3.3924,3.4989,3.5558,3.5828,3.5821,3.577,3.5708,3.5708,3.5745,3.5771,3.5788,3.5795,3.5828,3.5856,3.5866,3.5872,3.5881,3.5885,3.5891,3.5514,3.4321,3.359,3.2839,3.1669,3.1011,3.0788,3.0788,3.079,3.0791,3.0791,3.0791,3.079,3.0791,3.0791,3.079,3.0789,3.0797,3.0792,3.0794,3.0791,3.0792,3.0792,3.0798,3.0774,3.075,3.073,3.071,3.0718,3.0714,3.0698,3.0685,3.0659,3.0599,3.0616,3.0616,3.0622,3.062,3.0665,3.0697,3.0706,3.0715,3.0759,3.0786,3.0772,3.0771,3.0787,3.0772,3.0742,3.0751,3.0749,3.0718,3.0658,3.0624,3.0523,3.0474,3.0346,3.0184,3.0012,2.9781]},{"header":{"parameterUnit":"m.s-1","parameterCategory":1,"la1":31.0,"la2":29.5877,"lo1":-88.7671,"lo2":-86.6584,"dy":0.0162,"dx":0.0185,"nx":115,"ny":88,"refTime":"2023-09-04T12:00:00:Z","depth":0,"parameterNumber":3,"parameterNumberName":"V-component_of_WINDS"},"data":[0.0,0.0,0.0,0.0,0.0,0.0,0.0,0.0,0.0,0.0,0.0,0.0,0.0,0.0,0.0,0.0,0.0,0.0,0.0,0.0,0.0,0.0,0.0,0.0,0.0,0.0,0.0,0.0,0.0,0.0,0.0,0.0,0.0,0.0,0.0,0.0,0.0,0.0,0.0,0.0,0.0,0.0,0.0,0.0,0.0,0.0,0.0,0.0,0.0,0.0,0.0,0.0,0.0,0.0,0.0,0.0,0.0,0.0,0.0,0.0,0.0,0.0,0.0,0.0,0.0,0.0,0.0,0.0,0.0,0.0,0.0,0.0,0.0,0.0,0.0,0.0,0.0,0.0,0.0,0.0,0.0,0.0,0.0,0.0,0.0,0.0,0.0,0.0,0.0,0.0,0.0,0.0,0.0,0.0,0.0,0.0,0.0,0.0,0.0,0.0,0.0,0.0,0.0,0.0,0.0,0.0,0.0,0.0,0.0,0.0,0.0,0.0,0.0,0.0,0.0,0.0,0.0,0.0,0.0,0.0,0.0,0.0,0.0,0.0,0.0,0.0,0.0,0.0,0.0,0.0,0.0,0.0,0.0,0.0,0.0,0.0,0.0,0.0,0.0,0.0,0.0,0.0,0.0,0.0,0.0,0.0,0.0,0.0,0.0,0.0,0.0,0.0,0.0,0.0,0.0,0.0,0.0,0.0,0.0,0.0,0.0,0.0,0.0,0.0,0.0,0.0,0.0,0.0,0.0,0.0,0.0,0.0,0.0,0.0,0.0,0.0,0.0,0.0,0.0,0.0,0.0,0.0,0.0,0.0,0.0,0.0,0.0,0.0,0.0,0.0,0.0,0.0,0.0,0.0,0.0,0.0,0.0,0.0,0.0,0.0,0.0,0.0,0.0,0.0,0.0,0.0,0.0,0.0,0.0,0.0,0.0,0.0,0.0,0.0,0.0,0.0,0.0,0.0,0.0,0.0,0.0,0.0,0.0,0.0,0.0,0.0,0.0,0.0,0.0,0.0,0.0,0.0,0.0,0.0,0.0,0.0,0.0,0.0,0.0,0.0,0.0,0.0,0.0,0.0,0.0,0.0,0.0,0.0,0.0,0.0,0.0,0.0,0.0,0.0,0.0,0.0,0.0,0.0,0.0,0.0,0.0,0.0,0.0,0.0,0.0,0.0,0.0,0.0,0.0,0.0,0.0,0.0,0.0,0.0,0.0,0.0,0.0,0.0,0.0,0.0,0.0,0.0,0.0,0.0,0.0,0.0,0.0,0.0,0.0,0.0,0.0,0.0,0.0,0.0,0.0,0.0,0.0,0.0,0.0,0.0,0.0,0.0,0.0,0.0,0.0,0.0,0.0,0.0,0.0,0.0,0.0,0.0,0.0,0.0,0.0,0.0,0.0,0.0,0.0,0.0,0.0,0.0,0.0,0.0,0.0,0.0,0.0,0.0,0.0,0.0,0.0,0.0,0.0,0.0,0.0,0.0,0.0,0.0,0.0,0.0,0.0,0.0,0.0,0.0,0.0,0.0,0.0,0.0,0.0,0.0,0.0,0.0,0.0,0.0,0.0,0.0,0.0,0.0,0.0,0.0,0.0,0.0,0.0,0.0,0.0,0.0,0.0,0.0,0.0,0.0,0.0,0.0,0.0,0.0,0.0,0.0,0.0,0.0,0.0,0.0,0.0,0.0,0.0,0.0,0.0,0.0,0.0,0.0,0.0,0.0,0.0,0.0,0.0,0.0,0.0,0.0,0.0,0.0,0.0,0.0,0.0,0.0,0.0,0.0,0.0,0.0,0.0,0.0,0.0,0.0,0.0,0.0,0.0,0.0,0.0,0.0,0.0,0.0,0.0,0.0,0.0,0.0,0.0,0.0,0.0,0.0,0.0,0.0,0.0,0.0,0.0,0.0,0.0,0.0,0.0,0.0,0.0,0.0,0.0,0.0,0.0,0.0,0.0,0.0,0.0,0.0,0.0,0.0,0.0,0.0,0.0,0.0,0.0,0.0,0.0,0.0,0.0,0.0,0.0,0.0,0.0,0.0,0.0,0.0,0.0,0.0,0.0,0.0,0.0,0.0,0.0,0.0,0.0,0.0,0.0,0.0,0.0,0.0,0.0,0.0,0.0,0.0,0.0,0.0,0.0,0.0,0.0,0.0,0.0,0.0,0.0,0.0,0.0,0.0,0.0,0.0,0.0,0.0,0.0,0.0,0.0,0.0,0.0,0.0,0.0,0.0,0.0,0.0,0.0,0.0,0.0,0.0,0.0,0.0,0.0,0.0,0.0,0.0,0.0,0.0,0.0,0.0,0.0,0.0,0.0,0.0,0.0,0.0,0.0,0.0,0.0,0.0,0.0,0.0,0.0,0.0,0.0,0.0,0.0,0.0,0.0,0.0,0.0,0.0,0.0,0.0,0.0,0.0,0.0,0.0,0.0,0.0,0.0,0.0,0.0,0.0,0.0,0.0,0.0,0.0,0.0,0.0,0.0,0.0,0.0,0.0,0.0,0.0,0.0,0.0,0.0,0.0,0.0,0.0,0.0,0.0,0.0,0.0,0.0,0.0,0.0,0.0,0.0,0.0,0.0,0.0,0.0,0.0,0.0,0.0,0.0,0.0,0.0,0.0,0.0,0.0,0.0,0.0,0.0,0.0,0.0,0.0,0.0,0.0,0.0,0.0,0.0,0.0,0.0,0.0,0.0,0.0,0.0,0.0,0.0,0.0,0.0,0.0,0.0,0.0,0.0,0.0,0.0,0.0,0.0,0.0,0.0,0.0,0.0,0.0,0.0,0.0,0.0,0.0,0.0,0.0,0.0,0.0,0.0,0.0,0.0,0.0,0.0,0.0,0.0,0.0,0.0,0.0,0.0,0.0,0.0,0.0,0.0,0.0,0.0,0.0,0.0,0.0,0.0,0.0,0.0,0.0,0.0,0.0,0.0,0.0,0.0,0.0,0.0,0.0,0.0,0.0,0.0,0.0,0.0,0.0,0.0,0.0,0.0,0.0,0.0,0.0,0.0,0.0,0.0,0.0,0.0,0.0,0.0,0.0,0.0,0.0,0.0,0.0,0.0,0.0,0.0,0.0,0.0,0.0,0.0,0.0,0.0,0.0,0.0,0.0,0.0,0.0,0.0,0.0,0.0,0.0,0.0,0.0,0.0,0.0,0.0,0.0,0.0,0.0,0.0,0.0,0.0,0.0,0.0,0.0,0.0,0.0,0.0,0.0,0.0,0.0,0.0,0.0,0.0,0.0,0.0,0.0,0.0,0.0,0.0,0.0,0.0,0.0,0.0,0.0,0.0,0.0,0.0,0.0,0.0,0.0,0.0,0.0,0.0,0.0,0.0,0.0,0.0,0.0,0.0,0.0,0.0,0.0,0.0,0.0,0.0,0.0,0.0,0.0,0.0,0.0,0.0,0.0,0.0,0.0,0.0,0.0,0.0,0.0,0.0,0.0,0.0,0.0,0.0,0.0,0.0,0.0,0.0,0.0,0.0,0.0,0.0,0.0,0.0,0.0,0.0,0.0,0.0,0.0,0.0,0.0,0.0,0.0,0.0,0.0,0.0,0.0,0.0,0.0,0.0,0.0,0.0,0.0,0.0,0.0,0.0,0.0,0.0,0.0,0.0,0.0,0.0,0.0,0.0,0.0,0.0,0.0,0.0,0.0,0.0,0.0,0.0,0.0,0.0,0.0,0.0,0.0,0.0,0.0,0.0,0.0,0.0,0.0,0.0,0.0,0.0,0.0,0.0,0.0,0.0,0.0,0.0,0.0,0.0,0.0,0.0,0.0,0.0,0.0,0.0,0.0,0.0,0.0,0.0,0.0,0.0,0.0,0.0,0.0,0.0,0.0,0.0,0.0,0.0,0.0,0.0,0.0,0.0,0.0,0.0,0.0,0.0,0.0,0.0,0.0,0.0,0.0,0.0,0.0,0.0,0.0,0.0,0.0,0.0,0.0,0.0,0.0,0.0,0.0,0.0,0.0,0.0,0.0,0.0,0.0,0.0,0.0,0.0,0.0,0.0,0.0,0.0,0.0,0.0,0.0,0.0,0.0,0.0,0.0,0.0,0.0,0.0,0.0,0.0,0.0,0.0,0.0,0.0,0.0,0.0,0.0,0.0,0.0,0.0,0.0,0.0,0.0,0.0,0.0,0.0,0.0,0.0,0.0,0.0,0.0,0.0,0.0,0.0,0.0,0.0,0.0,0.0,0.0,0.0,0.0,0.0,0.0,0.0,0.0,0.0,0.0,0.0,0.0,0.0,0.0,-1.9291,0.0,0.0,0.0,0.0,0.0,0.0,0.0,0.0,0.0,0.0,0.0,0.0,0.0,0.0,0.0,0.0,0.0,0.0,0.0,0.0,0.0,0.0,0.0,0.0,0.0,0.0,0.0,0.0,0.0,0.0,0.0,0.0,0.0,0.0,0.0,0.0,0.0,0.0,0.0,0.0,0.0,0.0,0.0,0.0,0.0,0.0,0.0,0.0,0.0,0.0,0.0,0.0,0.0,0.0,0.0,0.0,0.0,0.0,0.0,0.0,0.0,0.0,0.0,0.0,0.0,0.0,0.0,0.0,0.0,0.0,0.0,0.0,0.0,0.0,0.0,0.0,0.0,0.0,0.0,0.0,0.0,0.0,0.0,0.0,0.0,0.0,0.0,0.0,0.0,0.0,0.0,0.0,0.0,0.0,0.0,0.0,0.0,0.0,0.0,0.0,0.0,0.0,0.0,0.0,0.0,0.0,0.0,0.0,0.0,0.0,-1.9235,-1.9255,-1.9354,-1.9418,-1.9399,0.0,0.0,0.0,0.0,0.0,0.0,0.0,0.0,0.0,0.0,0.0,0.0,0.0,0.0,0.0,0.0,0.0,0.0,0.0,0.0,0.0,0.0,0.0,0.0,0.0,0.0,0.0,0.0,0.0,0.0,0.0,0.0,0.0,0.0,0.0,0.0,0.0,0.0,0.0,0.0,0.0,0.0,0.0,0.0,0.0,0.0,0.0,0.0,0.0,0.0,0.0,0.0,0.0,0.0,0.0,0.0,0.0,0.0,0.0,0.0,0.0,0.0,0.0,0.0,0.0,0.0,0.0,0.0,0.0,0.0,0.0,0.0,0.0,0.0,0.0,0.0,0.0,0.0,0.0,0.0,0.0,0.0,0.0,0.0,0.0,0.0,0.0,0.0,0.0,0.0,0.0,0.0,0.0,0.0,0.0,0.0,0.0,0.0,0.0,0.0,0.0,0.0,0.0,0.0,0.0,0.0,0.0,0.0,0.0,0.0,0.0,0.0,-1.9455,-1.9536,-1.9541,0.0,0.0,0.0,0.0,0.0,0.0,0.0,0.0,0.0,0.0,0.0,0.0,0.0,0.0,0.0,0.0,0.0,0.0,0.0,0.0,0.0,0.0,0.0,0.0,0.0,0.0,0.0,0.0,0.0,0.0,0.0,0.0,0.0,0.0,0.0,0.0,0.0,0.0,0.0,0.0,0.0,0.0,0.0,0.0,0.0,0.0,0.0,0.0,0.0,0.0,0.0,0.0,0.0,0.0,0.0,0.0,0.0,0.0,0.0,0.0,0.0,0.0,0.0,0.0,0.0,0.0,0.0,0.0,0.0,0.0,0.0,0.0,0.0,0.0,0.0,0.0,0.0,0.0,0.0,0.0,0.0,0.0,0.0,0.0,0.0,0.0,0.0,0.0,0.0,0.0,0.0,0.0,0.0,0.0,0.0,0.0,0.0,0.0,0.0,0.0,0.0,0.0,0.0,0.0,0.0,0.0,0.0,0.0,0.0,0.0,-1.942,-1.9489,-1.955,0.0,-1.9669,0.0,0.0,0.0,0.0,0.0,0.0,0.0,0.0,0.0,0.0,0.0,0.0,0.0,0.0,0.0,0.0,0.0,0.0,0.0,0.0,0.0,0.0,0.0,0.0,0.0,0.0,0.0,0.0,0.0,0.0,0.0,0.0,0.0,0.0,0.0,0.0,0.0,0.0,0.0,0.0,0.0,0.0,0.0,0.0,0.0,0.0,0.0,0.0,0.0,0.0,0.0,0.0,0.0,0.0,0.0,0.0,0.0,0.0,0.0,0.0,0.0,0.0,0.0,0.0,0.0,0.0,0.0,0.0,0.0,0.0,0.0,0.0,0.0,0.0,0.0,0.0,0.0,0.0,0.0,0.0,0.0,0.0,0.0,0.0,0.0,0.0,0.0,0.0,0.0,0.0,0.0,0.0,0.0,0.0,0.0,0.0,0.0,0.0,0.0,0.0,0.0,0.0,0.0,0.0,0.0,0.0,0.0,0.0,0.0,0.0,-1.9513,-1.9564,-1.9619,-1.9677,0.0,0.0,0.0,0.0,0.0,0.0,0.0,0.0,0.0,0.0,0.0,0.0,0.0,0.0,0.0,0.0,0.0,0.0,0.0,0.0,0.0,0.0,0.0,0.0,0.0,0.0,0.0,0.0,0.0,0.0,0.0,0.0,0.0,0.0,0.0,0.0,0.0,0.0,0.0,0.0,0.0,0.0,0.0,0.0,0.0,0.0,0.0,0.0,0.0,0.0,0.0,0.0,0.0,0.0,0.0,0.0,0.0,0.0,0.0,0.0,0.0,0.0,0.0,0.0,0.0,0.0,0.0,0.0,0.0,0.0,0.0,0.0,0.0,0.0,0.0,0.0,0.0,0.0,0.0,0.0,0.0,0.0,0.0,0.0,0.0,0.0,0.0,0.0,0.0,0.0,0.0,0.0,0.0,0.0,0.0,0.0,0.0,0.0,0.0,0.0,0.0,0.0,0.0,0.0,0.0,0.0,0.0,0.0,0.0,0.0,-1.9583,-1.9647,-1.9649,-1.9701,-1.9717,-1.9719,0.0,0.0,0.0,0.0,0.0,0.0,0.0,0.0,0.0,0.0,0.0,0.0,0.0,0.0,0.0,0.0,0.0,0.0,0.0,0.0,0.0,0.0,0.0,0.0,0.0,0.0,0.0,0.0,0.0,0.0,0.0,0.0,0.0,0.0,0.0,0.0,0.0,0.0,0.0,0.0,0.0,0.0,0.0,0.0,0.0,0.0,0.0,0.0,0.0,0.0,0.0,0.0,0.0,0.0,0.0,0.0,0.0,0.0,0.0,0.0,0.0,0.0,0.0,0.0,0.0,0.0,0.0,0.0,0.0,0.0,0.0,0.0,0.0,0.0,0.0,0.0,0.0,0.0,0.0,0.0,0.0,0.0,0.0,0.0,0.0,0.0,0.0,0.0,0.0,0.0,0.0,0.0,0.0,0.0,0.0,0.0,0.0,0.0,0.0,0.0,0.0,0.0,0.0,0.0,0.0,0.0,0.0,0.0,-1.9688,-1.9701,-1.9735,-1.9788,-1.9806,-1.9797,0.0,0.0,0.0,0.0,0.0,0.0,0.0,0.0,0.0,0.0,0.0,0.0,0.0,0.0,0.0,0.0,0.0,0.0,0.0,0.0,0.0,0.0,0.0,0.0,0.0,0.0,0.0,0.0,0.0,0.0,0.0,0.0,0.0,0.0,0.0,0.0,0.0,0.0,0.0,0.0,0.0,0.0,0.0,0.0,0.0,0.0,0.0,0.0,0.0,0.0,0.0,0.0,0.0,0.0,0.0,0.0,0.0,0.0,0.0,0.0,0.0,0.0,0.0,0.0,0.0,0.0,0.0,0.0,0.0,0.0,0.0,0.0,0.0,0.0,0.0,0.0,0.0,0.0,0.0,0.0,0.0,0.0,0.0,0.0,0.0,0.0,0.0,0.0,0.0,0.0,0.0,0.0,0.0,0.0,0.0,0.0,0.0,0.0,0.0,0.0,0.0,0.0,0.0,0.0,0.0,0.0,0.0,0.0,0.0,-1.9754,-1.9806,-1.984,-1.9863,-1.9866,-1.9866,0.0,0.0,0.0,0.0,0.0,0.0,0.0,0.0,0.0,0.0,0.0,0.0,0.0,0.0,0.0,0.0,0.0,0.0,0.0,0.0,0.0,0.0,0.0,0.0,0.0,0.0,0.0,0.0,0.0,0.0,0.0,0.0,0.0,0.0,0.0,0.0,0.0,0.0,0.0,0.0,0.0,0.0,0.0,0.0,0.0,0.0,0.0,0.0,0.0,0.0,0.0,0.0,0.0,0.0,0.0,0.0,0.0,0.0,0.0,0.0,0.0,0.0,0.0,0.0,0.0,0.0,0.0,0.0,0.0,0.0,0.0,0.0,0.0,0.0,0.0,0.0,0.0,0.0,0.0,0.0,0.0,0.0,0.0,0.0,0.0,0.0,0.0,0.0,0.0,0.0,0.0,0.0,0.0,0.0,0.0,0.0,0.0,0.0,0.0,0.0,0.0,0.0,0.0,0.0,0.0,0.0,0.0,0.0,0.0,-1.9854,0.0,-1.9922,-1.9932,-1.9922,-1.9921,0.0,0.0,0.0,0.0,0.0,0.0,0.0,0.0,0.0,0.0,0.0,0.0,0.0,0.0,0.0,0.0,0.0,0.0,0.0,0.0,0.0,0.0,0.0,0.0,0.0,0.0,0.0,0.0,0.0,0.0,0.0,0.0,0.0,0.0,0.0,0.0,0.0,0.0,0.0,0.0,0.0,0.0,0.0,0.0,0.0,0.0,0.0,0.0,0.0,0.0,0.0,0.0,0.0,0.0,0.0,0.0,0.0,0.0,0.0,0.0,0.0,0.0,0.0,0.0,0.0,0.0,0.0,0.0,0.0,0.0,0.0,0.0,0.0,0.0,0.0,0.0,0.0,0.0,0.0,0.0,0.0,0.0,0.0,0.0,0.0,0.0,0.0,0.0,0.0,0.0,0.0,0.0,0.0,0.0,0.0,0.0,0.0,0.0,0.0,0.0,0.0,0.0,0.0,0.0,0.0,0.0,0.0,0.0,-1.9866,-1.9993,-1.999,-1.999,-1.9989,-1.9988,-1.9957,0.0,0.0,0.0,0.0,0.0,0.0,0.0,0.0,0.0,0.0,0.0,0.0,0.0,0.0,0.0,0.0,0.0,0.0,0.0,0.0,0.0,0.0,0.0,0.0,0.0,0.0,0.0,0.0,0.0,0.0,0.0,0.0,0.0,0.0,0.0,0.0,0.0,0.0,0.0,0.0,0.0,0.0,0.0,0.0,0.0,0.0,0.0,0.0,0.0,0.0,0.0,0.0,0.0,0.0,0.0,0.0,0.0,0.0,0.0,0.0,0.0,0.0,0.0,0.0,0.0,0.0,0.0,0.0,0.0,0.0,0.0,0.0,0.0,0.0,0.0,0.0,0.0,0.0,0.0,0.0,0.0,0.0,0.0,0.0,0.0,0.0,0.0,0.0,0.0,0.0,0.0,0.0,0.0,0.0,0.0,0.0,0.0,0.0,0.0,0.0,0.0,0.0,0.0,0.0,0.0,0.0,0.0,0.0,0.0,-1.9997,-1.9989,-1.9989,-1.9985,-1.9985,-1.9984,0.0,0.0,0.0,0.0,0.0,0.0,0.0,0.0,0.0,0.0,0.0,0.0,0.0,0.0,0.0,0.0,0.0,0.0,0.0,0.0,0.0,0.0,0.0,0.0,0.0,0.0,0.0,0.0,0.0,0.0,0.0,0.0,0.0,0.0,0.0,0.0,0.0,0.0,0.0,0.0,0.0,0.0,0.0,0.0,0.0,0.0,0.0,0.0,0.0,0.0,0.0,0.0,0.0,0.0,0.0,0.0,0.0,0.0,0.0,0.0,0.0,0.0,0.0,0.0,0.0,0.0,0.0,0.0,0.0,0.0,0.0,0.0,0.0,0.0,0.0,0.0,0.0,0.0,0.0,0.0,0.0,0.0,0.0,0.0,0.0,0.0,0.0,0.0,0.0,0.0,0.0,0.0,0.0,0.0,0.0,0.0,0.0,0.0,0.0,0.0,0.0,0.0,0.0,0.0,0.0,0.0,0.0,0.0,0.0,-2.0,-2.0019,-2.0018,-1.9996,-1.9985,-1.9995,-1.9993,0.0,0.0,0.0,0.0,0.0,0.0,0.0,0.0,0.0,0.0,0.0,0.0,0.0,0.0,0.0,0.0,0.0,0.0,0.0,0.0,0.0,0.0,0.0,0.0,0.0,0.0,0.0,0.0,0.0,0.0,0.0,0.0,0.0,0.0,0.0,0.0,0.0,0.0,0.0,0.0,0.0,0.0,0.0,0.0,0.0,0.0,0.0,0.0,0.0,0.0,0.0,0.0,0.0,0.0,0.0,0.0,0.0,0.0,0.0,0.0,0.0,0.0,0.0,0.0,0.0,0.0,0.0,0.0,0.0,0.0,0.0,0.0,0.0,0.0,0.0,0.0,0.0,0.0,0.0,0.0,0.0,0.0,0.0,0.0,0.0,0.0,0.0,0.0,0.0,0.0,0.0,0.0,0.0,0.0,0.0,0.0,0.0,0.0,0.0,0.0,0.0,0.0,0.0,0.0,0.0,0.0,0.0,0.0,-2.0058,-2.0088,-2.0059,-1.9998,-1.9998,-1.9997,0.0,0.0,0.0,0.0,0.0,0.0,0.0,0.0,0.0,0.0,0.0,0.0,0.0,0.0,0.0,0.0,0.0,0.0,0.0,0.0,0.0,0.0,0.0,0.0,0.0,0.0,0.0,0.0,0.0,0.0,0.0,0.0,0.0,0.0,0.0,0.0,0.0,0.0,0.0,0.0,0.0,0.0,0.0,0.0,0.0,0.0,0.0,0.0,0.0,0.0,0.0,0.0,0.0,0.0,0.0,0.0,0.0,0.0,0.0,0.0,0.0,0.0,0.0,0.0,0.0,0.0,0.0,0.0,0.0,0.0,0.0,0.0,0.0,0.0,0.0,0.0,0.0,0.0,0.0,0.0,0.0,0.0,0.0,0.0,0.0,0.0,0.0,0.0,0.0,0.0,0.0,0.0,0.0,0.0,0.0,0.0,0.0,0.0,0.0,0.0,0.0,0.0,0.0,0.0,0.0,0.0,0.0,0.0,0.0,-2.0916,-2.0363,-2.0019,-1.9995,-1.9995,-1.9995,0.0,0.0,0.0,0.0,0.0,0.0,0.0,0.0,0.0,0.0,0.0,0.0,0.0,0.0,0.0,0.0,0.0,0.0,0.0,0.0,0.0,0.0,0.0,0.0,0.0,0.0,0.0,0.0,0.0,0.0,0.0,0.0,0.0,0.0,0.0,0.0,0.0,0.0,0.0,0.0,0.0,0.0,0.0,0.0,0.0,0.0,0.0,0.0,0.0,0.0,0.0,0.0,0.0,0.0,0.0,0.0,0.0,0.0,0.0,0.0,0.0,0.0,0.0,0.0,0.0,0.0,0.0,0.0,0.0,0.0,0.0,0.0,0.0,0.0,0.0,0.0,0.0,0.0,0.0,0.0,0.0,0.0,0.0,0.0,0.0,0.0,0.0,0.0,0.0,0.0,0.0,0.0,0.0,0.0,0.0,0.0,0.0,0.0,0.0,0.0,0.0,0.0,0.0,0.0,0.0,0.0,0.0,0.0,-2.1004,-2.1809,-2.0978,-2.0499,-2.0505,-2.0142,-1.9962,0.0,0.0,0.0,0.0,0.0,0.0,0.0,0.0,0.0,0.0,0.0,0.0,0.0,0.0,0.0,0.0,0.0,0.0,0.0,0.0,0.0,0.0,0.0,0.0,0.0,0.0,0.0,0.0,0.0,0.0,0.0,0.0,0.0,0.0,0.0,0.0,0.0,0.0,0.0,0.0,0.0,0.0,0.0,0.0,0.0,0.0,0.0,0.0,0.0,0.0,0.0,0.0,0.0,0.0,0.0,0.0,0.0,0.0,0.0,0.0,0.0,0.0,0.0,0.0,0.0,0.0,0.0,0.0,0.0,0.0,0.0,0.0,0.0,0.0,0.0,0.0,0.0,0.0,0.0,0.0,0.0,0.0,0.0,0.0,0.0,0.0,0.0,0.0,0.0,0.0,0.0,0.0,0.0,0.0,0.0,0.0,0.0,0.0,0.0,0.0,0.0,0.0,0.0,0.0,0.0,0.0,0.0,0.0,-2.1772,-2.2673,-2.1803,-2.1294,-2.1183,-2.0346,-1.99,0.0,0.0,0.0,0.0,0.0,0.0,0.0,0.0,0.0,0.0,0.0,0.0,0.0,0.0,0.0,0.0,0.0,0.0,0.0,0.0,0.0,0.0,0.0,0.0,0.0,0.0,0.0,0.0,0.0,0.0,0.0,0.0,0.0,0.0,0.0,0.0,0.0,0.0,0.0,0.0,0.0,0.0,0.0,0.0,0.0,0.0,0.0,0.0,0.0,0.0,0.0,0.0,0.0,0.0,0.0,0.0,0.0,0.0,0.0,0.0,0.0,0.0,0.0,0.0,0.0,0.0,0.0,0.0,0.0,0.0,0.0,0.0,0.0,0.0,0.0,0.0,0.0,0.0,0.0,0.0,0.0,0.0,0.0,0.0,0.0,0.0,0.0,0.0,0.0,0.0,0.0,0.0,0.0,0.0,0.0,0.0,0.0,0.0,0.0,0.0,0.0,0.0,0.0,0.0,0.0,0.0,0.0,0.0,-2.1996,-2.3401,-2.2599,-2.1821,-2.1142,-2.0328,-1.9898,0.0,0.0,0.0,0.0,0.0,0.0,0.0,0.0,0.0,0.0,0.0,0.0,0.0,0.0,0.0,0.0,0.0,0.0,0.0,0.0,0.0,0.0,0.0,0.0,0.0,0.0,0.0,0.0,0.0,0.0,0.0,0.0,0.0,0.0,0.0,0.0,0.0,0.0,0.0,0.0,0.0,0.0,0.0,0.0,0.0,0.0,0.0,0.0,-2.2241,0.0,0.0,0.0,0.0,0.0,0.0,0.0,0.0,0.0,0.0,0.0,0.0,0.0,0.0,0.0,0.0,0.0,0.0,0.0,0.0,0.0,0.0,0.0,0.0,0.0,0.0,0.0,0.0,0.0,0.0,0.0,0.0,0.0,0.0,0.0,0.0,0.0,0.0,0.0,0.0,0.0,0.0,0.0,0.0,0.0,0.0,0.0,0.0,0.0,0.0,0.0,0.0,0.0,0.0,0.0,0.0,0.0,0.0,0.0,-2.3041,-2.4238,-2.3381,-2.2705,-2.2233,-2.1411,-2.0625,0.0,0.0,0.0,0.0,0.0,0.0,0.0,0.0,0.0,0.0,0.0,0.0,0.0,0.0,0.0,0.0,0.0,0.0,0.0,0.0,0.0,0.0,0.0,0.0,0.0,0.0,0.0,0.0,0.0,0.0,0.0,0.0,0.0,0.0,0.0,0.0,0.0,0.0,0.0,0.0,0.0,0.0,0.0,0.0,0.0,0.0,0.0,0.0,0.0,0.0,0.0,0.0,0.0,0.0,0.0,0.0,0.0,0.0,0.0,0.0,0.0,0.0,0.0,0.0,0.0,0.0,0.0,0.0,0.0,0.0,0.0,0.0,0.0,0.0,0.0,0.0,0.0,0.0,0.0,0.0,0.0,0.0,0.0,0.0,0.0,0.0,0.0,0.0,0.0,0.0,0.0,0.0,0.0,0.0,0.0,0.0,0.0,0.0,0.0,0.0,0.0,0.0,0.0,0.0,0.0,0.0,0.0,-2.3303,-2.4098,-2.4874,-2.4115,-2.361,-2.3459,-2.2768,-2.162,-2.0023,0.0,0.0,0.0,0.0,0.0,0.0,0.0,0.0,0.0,0.0,0.0,0.0,0.0,0.0,0.0,0.0,0.0,0.0,0.0,0.0,0.0,0.0,0.0,0.0,0.0,0.0,0.0,0.0,0.0,0.0,0.0,0.0,0.0,0.0,0.0,0.0,0.0,0.0,-2.027,-2.1044,0.0,0.0,0.0,0.0,0.0,0.0,0.0,0.0,-2.4729,0.0,0.0,0.0,0.0,0.0,0.0,0.0,0.0,0.0,0.0,0.0,0.0,0.0,0.0,0.0,0.0,0.0,0.0,0.0,0.0,0.0,0.0,0.0,0.0,0.0,0.0,0.0,0.0,0.0,0.0,0.0,0.0,0.0,0.0,0.0,0.0,0.0,0.0,0.0,0.0,0.0,0.0,0.0,0.0,0.0,0.0,0.0,0.0,0.0,0.0,0.0,0.0,0.0,0.0,0.0,0.0,-2.2426,-2.3217,-2.3993,-2.471,-2.4591,-2.4126,-2.3381,-2.3248,-2.2402,-2.0759,0.0,0.0,0.0,0.0,0.0,0.0,0.0,0.0,0.0,0.0,0.0,0.0,0.0,0.0,0.0,0.0,0.0,0.0,0.0,0.0,0.0,0.0,0.0,0.0,0.0,0.0,0.0,0.0,0.0,0.0,0.0,0.0,0.0,0.0,0.0,0.0,0.0,0.0,0.0,-2.1862,-2.2671,0.0,0.0,0.0,0.0,0.0,0.0,0.0,0.0,-2.649,0.0,0.0,0.0,0.0,0.0,0.0,0.0,0.0,0.0,0.0,0.0,0.0,0.0,0.0,0.0,0.0,0.0,0.0,0.0,0.0,0.0,0.0,0.0,0.0,0.0,0.0,0.0,0.0,0.0,0.0,0.0,0.0,0.0,0.0,0.0,0.0,0.0,0.0,0.0,0.0,0.0,0.0,0.0,0.0,0.0,0.0,0.0,0.0,0.0,0.0,0.0,0.0,0.0,0.0,0.0,-2.3011,-2.3771,-2.4338,-2.4676,-2.4629,-2.4377,-2.3931,-2.3905,-2.3119,0.0,0.0,0.0,0.0,0.0,0.0,0.0,0.0,0.0,0.0,0.0,0.0,0.0,0.0,0.0,0.0,0.0,0.0,0.0,0.0,0.0,0.0,0.0,0.0,0.0,0.0,0.0,0.0,0.0,0.0,0.0,0.0,0.0,0.0,0.0,0.0,0.0,0.0,0.0,0.0,-2.3334,-2.4274,-2.5465,0.0,0.0,0.0,0.0,0.0,0.0,-2.6906,-2.7001,0.0,0.0,0.0,0.0,0.0,0.0,0.0,0.0,0.0,0.0,0.0,0.0,0.0,0.0,0.0,0.0,0.0,0.0,0.0,0.0,0.0,0.0,0.0,0.0,0.0,0.0,0.0,0.0,0.0,0.0,0.0,0.0,0.0,0.0,0.0,0.0,0.0,0.0,0.0,0.0,0.0,0.0,0.0,0.0,0.0,0.0,0.0,0.0,0.0,0.0,0.0,0.0,0.0,0.0,0.0,-2.354,-2.4267,-2.465,-2.4643,-2.4523,-2.4462,-2.4429,-2.4394,-2.3555,0.0,0.0,0.0,0.0,0.0,0.0,0.0,0.0,0.0,0.0,0.0,0.0,0.0,0.0,0.0,0.0,0.0,0.0,0.0,0.0,0.0,0.0,0.0,0.0,0.0,0.0,0.0,0.0,0.0,0.0,0.0,0.0,0.0,0.0,0.0,0.0,0.0,0.0,0.0,0.0,0.0,-2.5821,-2.738,-2.7412,0.0,0.0,0.0,0.0,-2.7081,-2.7204,0.0,0.0,0.0,0.0,0.0,0.0,0.0,0.0,0.0,0.0,0.0,0.0,0.0,0.0,0.0,0.0,0.0,0.0,0.0,0.0,0.0,0.0,0.0,0.0,0.0,0.0,0.0,0.0,0.0,0.0,0.0,0.0,0.0,0.0,0.0,0.0,0.0,0.0,0.0,0.0,0.0,0.0,0.0,0.0,0.0,0.0,0.0,0.0,0.0,0.0,0.0,0.0,0.0,0.0,0.0,0.0,-2.3335,-2.4102,-2.4506,-2.442,-2.4357,-2.4303,-2.4238,-2.4228,-2.3447,0.0,0.0,0.0,0.0,0.0,0.0,0.0,0.0,0.0,0.0,0.0,0.0,0.0,0.0,0.0,0.0,0.0,0.0,0.0,0.0,0.0,0.0,0.0,0.0,0.0,0.0,0.0,0.0,0.0,0.0,0.0,0.0,0.0,0.0,0.0,0.0,0.0,0.0,0.0,0.0,0.0,-2.6615,-2.8075,-2.762,-2.7117,0.0,0.0,-2.7,-2.6944,-2.7521,0.0,0.0,0.0,0.0,0.0,0.0,0.0,0.0,0.0,0.0,0.0,0.0,0.0,0.0,0.0,0.0,0.0,0.0,0.0,0.0,0.0,0.0,0.0,0.0,0.0,0.0,0.0,0.0,0.0,0.0,0.0,0.0,0.0,0.0,0.0,0.0,0.0,0.0,0.0,0.0,0.0,0.0,0.0,0.0,0.0,0.0,0.0,0.0,0.0,0.0,0.0,0.0,0.0,0.0,0.0,-2.2722,-2.394,-2.4216,-2.433,-2.4294,-2.42,-2.4134,-2.4143,-2.4036,-2.3239,0.0,0.0,0.0,0.0,0.0,0.0,0.0,0.0,0.0,0.0,0.0,0.0,0.0,0.0,0.0,0.0,0.0,0.0,0.0,0.0,0.0,0.0,0.0,0.0,0.0,0.0,0.0,0.0,0.0,0.0,0.0,0.0,0.0,0.0,0.0,0.0,0.0,0.0,0.0,0.0,0.0,0.0,-2.8171,-2.7586,0.0,0.0,0.0,-2.7034,-2.746,0.0,0.0,0.0,0.0,0.0,0.0,0.0,0.0,0.0,0.0,0.0,0.0,0.0,0.0,0.0,0.0,0.0,0.0,0.0,0.0,0.0,0.0,0.0,0.0,0.0,0.0,0.0,0.0,0.0,0.0,0.0,0.0,0.0,0.0,0.0,0.0,0.0,0.0,0.0,0.0,0.0,0.0,0.0,0.0,0.0,0.0,0.0,0.0,0.0,0.0,0.0,0.0,0.0,0.0,0.0,0.0,0.0,-2.4374,-2.4247,-2.4163,-2.4135,-2.3998,-2.3994,-2.4025,-2.3834,0.0,0.0,0.0,0.0,0.0,0.0,0.0,0.0,0.0,0.0,0.0,0.0,0.0,0.0,0.0,0.0,0.0,0.0,0.0,0.0,0.0,0.0,0.0,0.0,0.0,0.0,0.0,-2.022,0.0,0.0,0.0,0.0,0.0,0.0,0.0,0.0,0.0,0.0,0.0,0.0,0.0,0.0,-2.6484,-2.7864,-2.7382,-2.6998,0.0,0.0,-2.6665,-2.7265,-2.7541,-2.7693,0.0,0.0,0.0,0.0,0.0,0.0,0.0,0.0,0.0,0.0,0.0,0.0,0.0,0.0,0.0,0.0,0.0,0.0,0.0,0.0,0.0,0.0,0.0,0.0,0.0,0.0,0.0,0.0,0.0,0.0,0.0,0.0,0.0,0.0,0.0,0.0,0.0,0.0,0.0,0.0,0.0,0.0,0.0,0.0,0.0,0.0,0.0,0.0,0.0,0.0,0.0,0.0,0.0,0.0,0.0,-2.4164,-2.4142,-2.4036,-2.3917,-2.385,-2.381,-2.3816,-2.3691,-2.3288,0.0,0.0,0.0,0.0,0.0,0.0,0.0,0.0,0.0,0.0,0.0,0.0,0.0,0.0,0.0,0.0,0.0,0.0,0.0,0.0,0.0,0.0,0.0,0.0,0.0,0.0,0.0,0.0,0.0,0.0,0.0,0.0,0.0,0.0,0.0,0.0,0.0,0.0,0.0,0.0,0.0,-2.6193,-2.7,-2.6924,-2.6548,0.0,0.0,-2.5591,-2.5588,-2.6229,-2.69,-2.7533,0.0,0.0,0.0,0.0,0.0,0.0,0.0,0.0,0.0,0.0,0.0,0.0,0.0,0.0,0.0,0.0,0.0,0.0,0.0,0.0,0.0,0.0,0.0,0.0,0.0,0.0,0.0,0.0,0.0,0.0,0.0,0.0,0.0,0.0,0.0,0.0,0.0,0.0,0.0,0.0,0.0,0.0,0.0,0.0,0.0,0.0,0.0,0.0,0.0,0.0,0.0,0.0,0.0,-2.2547,-2.4028,-2.3926,-2.3843,-2.3777,-2.3634,-2.3576,-2.3616,-2.3485,-2.311,0.0,0.0,0.0,0.0,0.0,0.0,0.0,0.0,0.0,0.0,0.0,0.0,0.0,0.0,0.0,0.0,0.0,0.0,0.0,0.0,0.0,0.0,0.0,0.0,0.0,0.0,0.0,0.0,-2.2438,-2.2639,-2.2662,0.0,0.0,0.0,0.0,0.0,0.0,0.0,0.0,0.0,0.0,-2.6042,-2.6767,-2.592,0.0,0.0,-2.5654,-2.5475,-2.596,-2.6688,-2.71,-2.6841,-2.7287,0.0,0.0,0.0,0.0,0.0,0.0,0.0,0.0,0.0,0.0,0.0,0.0,0.0,0.0,0.0,0.0,0.0,0.0,0.0,0.0,0.0,0.0,0.0,0.0,0.0,0.0,0.0,0.0,0.0,0.0,0.0,0.0,0.0,0.0,0.0,0.0,0.0,0.0,0.0,0.0,0.0,0.0,0.0,0.0,0.0,0.0,0.0,0.0,0.0,0.0,0.0,0.0,-2.2419,-2.3917,-2.378,-2.3664,-2.3652,-2.3462,-2.336,-2.3415,-2.3289,-2.3024,0.0,0.0,0.0,0.0,0.0,0.0,0.0,0.0,0.0,0.0,0.0,0.0,0.0,0.0,0.0,0.0,0.0,0.0,0.0,0.0,0.0,0.0,0.0,0.0,0.0,0.0,0.0,0.0,-2.328,-2.3233,-2.2795,0.0,0.0,0.0,0.0,0.0,0.0,0.0,0.0,0.0,0.0,-2.5811,-2.631,-2.5093,-2.4608,-2.589,-2.5543,-2.5426,-2.6186,-2.6995,-2.7298,-2.6666,0.0,0.0,0.0,0.0,0.0,0.0,0.0,0.0,0.0,0.0,0.0,0.0,0.0,0.0,0.0,0.0,0.0,0.0,0.0,0.0,0.0,0.0,0.0,0.0,0.0,0.0,0.0,0.0,0.0,0.0,-2.1802,0.0,0.0,0.0,0.0,0.0,0.0,0.0,0.0,0.0,0.0,0.0,0.0,0.0,0.0,0.0,0.0,0.0,0.0,0.0,0.0,0.0,0.0,-2.2334,-2.3777,-2.3678,-2.3558,-2.3485,-2.3313,-2.3208,-2.3201,-2.3061,-2.3019,-2.3049,0.0,0.0,0.0,0.0,0.0,0.0,0.0,0.0,0.0,0.0,0.0,0.0,0.0,0.0,0.0,0.0,0.0,0.0,0.0,0.0,0.0,0.0,0.0,0.0,0.0,0.0,-2.3033,-2.3704,-2.3584,0.0,0.0,0.0,0.0,0.0,0.0,0.0,0.0,0.0,0.0,-2.6097,-2.5493,-2.5481,-2.4626,-2.4304,-2.5059,-2.5085,-2.5272,-2.5988,-2.6799,-2.7279,0.0,0.0,0.0,0.0,0.0,0.0,0.0,0.0,0.0,0.0,0.0,0.0,0.0,0.0,0.0,0.0,0.0,0.0,0.0,0.0,0.0,0.0,0.0,0.0,0.0,0.0,0.0,-2.3575,-2.2592,0.0,0.0,0.0,0.0,0.0,0.0,0.0,0.0,0.0,0.0,0.0,-2.3543,-2.3533,0.0,0.0,0.0,0.0,0.0,0.0,0.0,0.0,0.0,0.0,0.0,0.0,-2.2656,-2.3544,-2.343,-2.3313,-2.3241,-2.3095,-2.2995,-2.2944,-2.2885,-2.2616,-2.2062,0.0,0.0,0.0,0.0,0.0,0.0,0.0,0.0,0.0,0.0,0.0,0.0,0.0,0.0,0.0,0.0,0.0,0.0,0.0,0.0,0.0,0.0,0.0,0.0,0.0,-2.3152,0.0,0.0,0.0,0.0,0.0,0.0,0.0,0.0,0.0,0.0,0.0,-2.6841,-2.7423,-2.7175,-2.6927,-2.6812,-2.5576,-2.4913,0.0,0.0,0.0,0.0,0.0,0.0,0.0,0.0,0.0,0.0,0.0,0.0,0.0,0.0,-2.6365,-2.604,-2.61,-2.6208,-2.6152,0.0,0.0,0.0,0.0,0.0,0.0,0.0,0.0,0.0,0.0,0.0,0.0,0.0,0.0,-2.5098,0.0,-2.381,0.0,0.0,0.0,0.0,0.0,0.0,0.0,0.0,-2.4992,-2.4716,-2.4228,-2.421,-2.4247,0.0,-2.3713,-2.3197,0.0,0.0,0.0,0.0,0.0,0.0,0.0,0.0,-2.2692,-2.3357,-2.3184,-2.3061,-2.3036,-2.2859,-2.2764,-2.2677,-2.2659,-2.2365,-2.1841,-2.1842,-2.149,0.0,0.0,0.0,0.0,0.0,0.0,0.0,0.0,0.0,0.0,0.0,0.0,0.0,0.0,0.0,0.0,0.0,0.0,0.0,0.0,0.0,0.0,0.0,-2.345,0.0,0.0,0.0,0.0,0.0,0.0,0.0,0.0,0.0,-2.4816,-2.6461,-2.7648,-2.7661,-2.7369,-2.7018,-2.6635,0.0,0.0,0.0,0.0,0.0,0.0,0.0,-2.7885,-2.736,-2.7707,-2.8072,-2.8062,-2.7691,-2.7228,-2.6736,0.0,0.0,-2.667,-2.6696,-2.6785,-2.67,-2.6535,-2.6383,-2.6328,-2.6244,-2.614,0.0,0.0,0.0,0.0,0.0,0.0,0.0,0.0,-2.6457,-2.6381,0.0,-2.5515,0.0,0.0,0.0,0.0,0.0,-2.5232,0.0,0.0,-2.4136,-2.4054,-2.4084,-2.4094,-2.4103,-2.4094,-2.4133,-2.4095,-2.3886,-2.2474,0.0,0.0,0.0,0.0,0.0,0.0,-2.2482,-2.3166,-2.2986,-2.2876,-2.2893,-2.2685,-2.2569,-2.2496,-2.2349,-2.233,-2.2377,-2.2304,-2.1919,-2.1159,-2.1153,0.0,0.0,0.0,0.0,0.0,0.0,0.0,0.0,0.0,0.0,0.0,0.0,0.0,0.0,0.0,0.0,0.0,0.0,0.0,0.0,-2.3431,0.0,0.0,0.0,0.0,0.0,0.0,0.0,0.0,0.0,0.0,-2.6134,-2.6829,-2.7317,-2.7381,0.0,0.0,0.0,0.0,-2.3791,-2.4491,-2.5135,-2.5818,-2.6561,-2.7247,-2.7721,-2.7853,0.0,0.0,-2.7968,-2.7933,-2.7871,-2.788,-2.7835,-2.7723,-2.7227,-2.7576,-2.7973,-2.7934,-2.773,-2.7624,-2.75,-2.7287,-2.7215,-2.6804,0.0,0.0,0.0,0.0,-2.7871,-2.7742,-2.7214,-2.7079,-2.6723,-2.6172,-2.5945,0.0,0.0,0.0,0.0,0.0,0.0,-2.5111,-2.4883,-2.4853,-2.4531,-2.3967,-2.3946,-2.3928,-2.3896,-2.3908,-2.3864,-2.3771,-2.3337,-2.312,-2.3088,0.0,0.0,0.0,0.0,-2.2809,-2.2969,-2.2833,-2.2721,-2.2685,-2.2533,-2.2388,-2.2293,-2.2098,-2.2015,-2.2052,-2.1974,-2.1882,-2.166,-2.1175,0.0,0.0,0.0,0.0,0.0,0.0,0.0,0.0,0.0,0.0,0.0,0.0,0.0,0.0,0.0,0.0,0.0,0.0,0.0,-2.3346,-2.3586,-2.3712,0.0,0.0,0.0,0.0,0.0,0.0,0.0,0.0,0.0,-2.6552,-2.6853,-2.71,0.0,0.0,-2.5781,-2.5501,-2.4715,-2.4191,-2.4362,-2.4514,0.0,0.0,-2.5467,-2.5891,-2.5928,-2.6345,-2.6877,-2.761,-2.7707,-2.7719,-2.7751,-2.773,-2.764,-2.7522,-2.7639,-2.7777,-2.7727,-2.7509,-2.7347,-2.7293,-2.7175,-2.7081,-2.6514,-2.7177,-2.7236,-2.7405,-2.7643,-2.8006,-2.8048,-2.7858,-2.7461,-2.6988,-2.6492,-2.5897,-2.5546,-2.5378,-2.5466,0.0,0.0,0.0,-2.4941,-2.4651,-2.4629,-2.4345,-2.385,-2.3789,-2.3768,-2.3716,-2.3694,-2.3638,-2.3553,-2.3513,-2.3467,-2.3389,0.0,0.0,-2.3135,-2.2961,-2.2833,-2.2721,-2.2614,-2.2506,-2.2451,-2.2248,-2.2126,-2.2032,-2.1886,-2.1789,-2.1811,-2.1768,-2.1746,-2.1781,-2.1354,-2.1011,0.0,0.0,0.0,0.0,0.0,0.0,0.0,0.0,0.0,0.0,0.0,-2.0026,-2.0631,0.0,0.0,0.0,-2.259,-2.2845,-2.3454,-2.3752,0.0,0.0,0.0,0.0,0.0,0.0,0.0,-2.5359,-2.5877,-2.6377,-2.6917,-2.6602,-2.6428,-2.6837,-2.6455,-2.5862,-2.513,0.0,-2.4086,-2.3737,-2.4155,-2.4537,-2.4537,-2.5294,-2.5872,-2.5889,-2.6251,-2.6714,-2.7273,-2.7373,-2.7373,-2.7386,-2.7386,-2.7341,-2.7364,-2.7395,-2.7448,-2.7417,-2.727,-2.7103,-2.707,-2.7023,-2.6917,-2.6991,-2.7497,-2.665,-2.6795,-2.7543,-2.745,-2.7825,-2.8412,-2.7623,-2.7273,-2.7175,-2.5781,-2.5517,-2.6084,-2.6024,0.0,-2.4906,-2.4896,-2.4507,-2.3804,-2.3795,-2.3752,-2.3678,-2.3629,-2.3585,-2.3562,-2.3508,-2.3424,-2.3274,-2.3208,-2.3052,-2.2868,-2.3098,-2.3122,-2.2868,-2.2738,-2.2605,-2.2479,-2.2358,-2.2245,-2.2155,-2.1915,-2.1789,-2.1768,-2.1625,-2.1603,-2.1656,-2.1589,-2.1559,-2.155,-2.1559,-2.1278,-2.0681,0.0,0.0,0.0,0.0,0.0,0.0,0.0,0.0,0.0,0.0,0.0,0.0,0.0,0.0,0.0,-2.3207,0.0,-2.3168,-2.3885,0.0,0.0,0.0,-2.4193,-2.3448,-2.3314,-2.3778,-2.5126,0.0,0.0,-2.7083,-2.6078,-2.5507,-2.6439,-2.6411,-2.5713,-2.411,-2.383,-2.3498,-2.2823,-2.3865,-2.4744,-2.4597,-2.5665,-2.651,-2.6582,-2.6925,-2.6965,-2.7085,-2.7064,-2.7016,-2.7048,-2.7024,-2.7024,-2.6975,-2.7007,-2.6999,-2.7085,-2.7038,-2.6942,-2.6867,-2.6842,-2.6784,-2.6543,-2.6531,-2.6276,-2.6962,-2.8254,-2.817,-2.8226,-2.8379,-2.8138,-2.804,-2.8013,-2.7663,-2.6954,-2.5973,-2.5377,-2.4707,-2.401,-2.4013,-2.3902,-2.3721,-2.373,-2.3656,-2.3562,-2.3539,-2.3448,-2.328,-2.3289,-2.3193,-2.302,-2.2986,-2.2833,-2.264,-2.3199,-2.3182,-2.2596,-2.2515,-2.2405,-2.2276,-2.2138,-2.1986,-2.1852,-2.1746,-2.1639,-2.1509,-2.1411,-2.1356,-2.1333,-2.1247,-2.1255,-2.131,-2.1325,-2.1337,-2.1203,-2.0681,0.0,0.0,0.0,0.0,0.0,0.0,0.0,0.0,0.0,-2.0586,-2.147,0.0,-2.2711,0.0,-2.3584,-2.3396,-2.3005,-2.3152,0.0,0.0,-2.332,-2.3524,-2.3928,-2.3868,-2.4128,-2.4973,-2.5057,-2.5149,-2.5492,-2.5253,-2.5109,-2.5299,-2.4348,-2.3465,-2.3023,-2.2899,-2.2738,-2.2564,-2.2829,-2.2997,-2.3119,-2.3717,-2.4594,-2.5031,-2.5698,-2.635,-2.6839,-2.6983,-2.6992,-2.6992,-2.695,-2.6909,-2.6883,-2.6775,-2.6649,-2.6632,-2.67,-2.6708,-2.6564,-2.6461,-2.6357,-2.7376,-2.7257,-2.7141,-2.7588,-2.837,-2.7976,-2.803,-2.8317,-2.7897,-2.771,-2.7701,-2.7325,-2.6691,-2.5859,-2.5428,-2.4998,-2.4599,-2.4628,-2.4605,-2.4554,-2.4265,-2.4057,-2.3922,-2.3519,-2.3256,-2.316,-2.307,-2.2927,-2.2808,-2.2782,-2.2787,-2.2898,-2.3306,-2.3409,-2.3186,-2.3207,-2.3026,-2.2496,-2.2036,-2.173,-2.1534,-2.1526,-2.145,-2.1294,-2.123,-2.1183,-2.1151,-2.1111,-2.1111,-2.1167,-2.1183,-2.123,-2.1246,-2.0683,-2.0383,0.0,0.0,0.0,0.0,0.0,0.0,0.0,0.0,0.0,0.0,0.0,-2.2658,-2.3078,-2.314,-2.3052,-2.2807,-2.3137,-2.3241,-2.2954,-2.3249,-2.3458,-2.3493,-2.3422,-2.3626,-2.4282,-2.4359,-2.4505,-2.4773,-2.4524,-2.431,-2.429,-2.3232,-2.2626,-2.2942,-2.2926,-2.2694,-2.2307,-2.2453,-2.2786,-2.3068,-2.3531,-2.3988,-2.4363,-2.4839,-2.5319,-2.5676,-2.5785,-2.5776,-2.5785,-2.5752,-2.572,-2.5687,-2.5622,-2.5472,-2.5355,-2.538,-2.5622,-2.6102,-2.594,-2.5663,-2.8552,-2.8536,-2.8362,-2.8264,-2.821,-2.7512,-2.7629,-2.8237,-2.7478,-2.7157,-2.7077,-2.639,-2.5938,-2.5692,-2.5849,-2.5787,-2.5541,-2.5699,-2.5744,-2.5613,-2.5,-2.4665,-2.4589,-2.3759,-2.3359,-2.3342,-2.3146,-2.3005,-2.2916,-2.2862,-2.3037,-2.3452,-2.3578,-2.3787,-2.4116,-2.4371,-2.3954,-2.2876,-2.2102,-2.1547,-2.1285,-2.1285,-2.1199,-2.107,-2.107,-2.107,-2.1046,-2.1046,-2.1038,-2.1038,-2.103,-2.107,-2.1054,-2.0534,-2.0243,0.0,-1.978,0.0,0.0,0.0,0.0,0.0,0.0,0.0,0.0,-2.2358,-2.2375,-2.2358,-2.249,-2.2598,-2.2569,-2.3234,-2.3417,-2.2797,-2.3342,-2.3472,-2.2673,-2.2552,-2.2773,-2.3366,-2.3397,-2.367,-2.4232,-2.3756,-2.3299,-2.324,-2.265,-2.2402,-2.2975,-2.3047,-2.2744,-2.2065,-2.247,-2.2867,-2.3496,-2.3901,-2.4032,-2.4083,-2.4257,-2.4282,-2.4317,-2.4317,-2.4324,-2.43,-2.4359,-2.4285,-2.4163,-2.418,-2.4066,-2.3992,-2.3967,-2.4288,-2.5234,-2.5176,-2.4761,-2.8467,-2.8255,-2.8245,-2.8145,-2.8053,-2.7902,-2.7956,-2.8145,-2.7949,-2.7868,-2.7794,-2.7652,-2.6854,-2.5711,-2.6322,-2.587,-2.4618,-2.5262,-2.5526,-2.5455,-2.5314,-2.5226,-2.5127,-2.4914,-2.4734,-2.4622,-2.4491,-2.4317,-2.4147,-2.4133,-2.404,-2.3907,-2.4489,-2.4754,-2.4697,0.0,0.0,0.0,-2.2338,-2.1916,-2.1263,-2.1151,-2.1087,-2.0942,-2.095,0.0,-2.0793,-2.0801,-2.0718,-2.0636,-2.0761,0.0,0.0,0.0,0.0,0.0,0.0,0.0,0.0,0.0,0.0,0.0,-2.154,-2.1715,-2.1966,-2.2631,-2.2769,-2.2157,-2.2681,-2.2866,-2.2398,-2.2513,-2.2586,-2.2576,-2.2643,-2.2641,-2.2449,-2.2341,-2.2344,-2.2434,-2.2369,-2.2382,-2.255,-2.2362,-2.2282,-2.2249,-2.2036,-2.1923,-2.2034,-2.2157,-2.2103,-2.1865,-2.1911,-2.1966,-2.2142,-2.2733,-2.3169,-2.3227,-2.3804,-2.4087,-2.4031,-2.3991,-2.4031,-2.4007,-2.4016,-2.3934,-2.391,-2.3819,-2.3603,-2.3583,-2.3456,-2.3511,-2.388,-2.3883,-2.3716,-2.7188,0.0,-2.6979,-2.6925,0.0,-2.6854,-2.6845,-2.6844,-2.7252,-2.7208,-2.6808,-2.678,-2.6496,-2.608,-2.6476,-2.6367,-2.5897,-2.6282,-2.6446,-2.6388,-2.5985,-2.5773,-2.5678,-2.5181,-2.4921,-2.4842,-2.4628,-2.4475,-2.4337,-2.4322,-2.4329,-2.4455,-2.4827,-2.5059,-2.5196,-2.5443,-2.4754,-2.2995,-2.2497,-2.1841,-2.1103,-2.0974,-2.0916,-2.0802,0.0,0.0,0.0,0.0,0.0,0.0,0.0,0.0,0.0,0.0,0.0,-2.0957,-2.0663,-2.071,-2.1198,-2.1325,-2.1573,-2.2018,-2.2456,-2.2444,-2.1898,-2.2287,-2.2383,-2.1991,-2.2337,-2.248,-2.2205,-2.2192,-2.2248,-2.2268,-2.2276,-2.2248,-2.2147,-2.2089,-2.204,-2.1995,-2.1936,-2.1882,-2.1899,-2.1869,-2.1848,-2.1811,-2.1738,-2.1694,-2.1664,-2.1724,-2.1708,-2.1631,-2.1556,-2.1503,-2.1581,-2.1841,-2.2199,-2.2295,-2.2613,-2.2836,-2.2838,-2.283,-2.2813,-2.2725,-2.2701,-2.2638,-2.2549,-2.2467,-2.2385,-2.2327,-2.226,-2.2176,-2.2226,-2.2509,-2.2766,-2.6266,-2.6249,-2.6092,-2.6039,-2.6056,-2.603,-2.5861,-2.5683,0.0,0.0,0.0,-2.5613,-2.5873,-2.6277,-2.6502,-2.6835,-2.7187,-2.7356,-2.7373,-2.7284,-2.664,-2.6285,-2.6189,-2.5436,-2.5031,-2.5023,-2.477,-2.461,-2.4562,-2.4472,-2.4637,-2.5001,-2.5007,-2.5183,-2.5508,-2.5333,-2.47,-2.36,-2.2817,-2.1969,-2.1083,-2.0976,-2.0862,-2.0652,-2.0569,-2.0494,-2.0486,-2.0467,-2.0467,-2.046,-2.046,-2.0494,-2.0494,-2.0728,-2.0907,-2.0951,-2.112,-2.13,-2.152,-2.2149,-2.2539,-2.2622,-2.3267,-2.3153,-2.201,-2.201,-2.2003,-2.1848,-2.1928,-2.1949,-2.1949,-2.2052,-2.2061,-2.1978,-2.2052,-2.204,-2.189,-2.1832,-2.1789,-2.1751,-2.1721,-2.173,-2.173,-2.1708,-2.1664,-2.1634,-2.1581,-2.1559,-2.152,-2.152,-2.1503,-2.1371,-2.134,-2.1348,-2.134,-2.1388,-2.1402,-2.1569,-2.1599,-2.1559,-2.155,-2.155,-2.1481,-2.1493,-2.134,-2.1334,-2.1223,-2.1239,-2.1119,-2.1054,-2.1014,-2.0965,-2.0842,-2.132,-2.1742,-2.7697,-2.7628,-2.749,-2.7394,-2.7323,-2.7264,-2.6791,-2.6089,-2.5703,-2.5416,-2.5289,-2.5831,-2.5811,-2.5374,-2.6558,-2.6693,-2.6122,-2.6842,-2.7079,0.0,-2.6831,-2.6797,-2.6788,-2.6488,-2.6337,-2.6337,-2.6125,-2.6012,-2.5889,-2.5722,-2.5607,-2.5504,-2.54,-2.5327,-2.5317,-2.5131,-2.4656,-2.3872,-2.3715,-2.2998,-2.1726,-2.1545,-2.1194,-2.0574,-2.0494,-2.046,-2.0423,-2.0415,-2.0381,-2.0339,-2.0381,-2.0415,-2.0438,-2.1101,-2.1491,-2.1604,-2.2126,-2.2512,-2.2733,-2.288,-2.2979,-2.3178,-2.3329,-2.3158,-2.2556,-2.2608,-2.2409,-2.1732,-2.179,-2.1746,-2.1738,-2.1804,-2.1867,-2.1877,-2.1822,-2.1746,-2.179,-2.1669,-2.1577,-2.1554,-2.1456,-2.1505,-2.1587,-2.1599,-2.1569,-2.1435,-2.1389,-2.1294,-2.1223,-2.127,-2.127,-2.1199,-2.1143,-2.1143,-2.1151,-2.1215,-2.1262,-2.1325,-2.1348,-2.1356,-2.1348,-2.1302,-2.1238,-2.1159,-2.1151,-2.1079,-2.095,-2.0893,-2.0843,-2.0767,-2.0685,-2.061,-2.0535,-2.0676,-2.0704,-2.6584,-2.6518,-2.6396,-2.6188,-2.5962,-2.6335,-2.6091,-2.5441,-2.5117,-2.4982,-2.5005,-2.5265,-2.5403,-2.5471,-2.6091,-2.636,-2.6308,-2.6672,-2.6733,-2.6615,-2.6581,-2.6563,-2.6512,-2.6355,-2.6241,-2.6206,-2.6038,-2.5901,-2.5762,-2.565,-2.5546,-2.5418,-2.5286,-2.5123,-2.5013,-2.4846,-2.4649,-2.4288,-2.3912,-2.3246,-2.2274,-2.209,-2.1683,-2.1019,-2.0949,-2.0702,-2.0243,-2.0304,-2.0304,-2.0193,-2.0624,-2.0895,-2.0918,-2.1608,-2.2045,-2.2082,-2.2457,-2.2739,-2.2856,-2.3285,-2.3785,-2.4233,-2.4356,-2.4152,-2.3506,-2.3281,-2.2989,-2.2614,-2.2639,-2.2687,-2.2679,-2.2695,-2.2679,-2.2719,-2.2663,-2.2639,-2.2606,-2.2508,-2.2416,-2.2325,-2.2317,-2.2325,-2.2325,-2.2069,-2.1827,-2.1697,-2.1408,-2.1038,-2.0932,-2.0916,-2.0966,-2.1014,-2.099,-2.0949,-2.0966,-2.103,-2.1095,-2.1191,-2.1199,-2.1191,-2.1175,-2.1111,-2.103,-2.0941,-2.0924,-2.0818,-2.072,-2.0654,-2.0603,-2.0551,-2.0483,-2.0407,-2.0323,-2.0235,-2.0208,-2.589,-2.5873,-2.5721,-2.5429,-2.5097,-2.5656,-2.5652,-2.5178,-2.5094,-2.4992,-2.487,-2.4839,-2.5037,-2.5378,-2.5644,-2.6092,-2.6514,-2.6538,-2.6435,-2.6314,-2.626,-2.6162,-2.6134,-2.5974,-2.5873,-2.577,-2.568,-2.5522,-2.5347,-2.5309,-2.5232,-2.5131,-2.4966,-2.4846,-2.4734,-2.4597,-2.45,-2.4469,-2.394,-2.3406,-2.2777,-2.2624,-2.2238,-2.1584,-2.1464,-2.1153,-2.0561,-2.0625,-2.0653,-2.0553,-2.1115,-2.1464,-2.1532,-2.2154,-2.26,-2.2654,-2.2953,-2.3106,-2.3168,-2.3806,-2.4435,-2.4918,-2.5115,-2.4931,-2.4406,-2.4003,-2.3648,-2.3415,-2.3339,-2.3398,-2.3365,-2.3355,-2.3395,-2.3395,-2.3361,-2.327,-2.3299,-2.3288,-2.3183,-2.306,-2.3076,-2.3028,-2.2937,-2.2582,-2.2192,-2.1921,-2.1321,-2.0818,-2.0677,-2.066,-2.0677,-2.072,-2.0745,-2.0745,-2.0795,-2.0803,-2.086,-2.1006,-2.1006,-2.0998,-2.0965,-2.0901,-2.0819,-2.0761,-2.0703,-2.061,-2.0501,-2.0452,-2.0426,-2.0339,-2.0277,-2.0235,-2.0073,-2.0018,-1.9983,-2.7335,-2.7287,-2.7016,-2.6888,-2.6635,-2.6579,-2.6421,-2.6193,-2.6183,-2.5738,-2.5088,-2.5196,-2.4911,-2.4577,-2.5587,-2.6081,-2.6074,-2.6197,-2.6162,-2.6018,-2.5954,-2.5934,-2.5889,-2.5717,-2.5567,-2.547,-2.5355,-2.5232,-2.5099,-2.4966,-2.4814,-2.4678,-2.4622,-2.4605,-2.4531,-2.4392,-2.4253,-2.4154,-2.404,-2.3738,-2.3255,-2.3107,-2.2667,-2.1964,-2.1926,-2.1911,-2.1721,-2.1858,-2.1827,-2.1812,-2.1888,-2.1957,-2.2087,-2.2653,-2.3154,-2.3405,-2.3988,-2.4337,-2.4387,-2.4497,-2.4592,-2.4655,-2.4774,-2.4831,-2.4744,-2.4673,-2.4207,-2.3466,-2.3258,-2.3366,-2.3167,-2.3195,-2.3267,-2.3315,-2.3267,-2.3123,-2.3219,-2.308,-2.2988,-2.2935,-2.3085,-2.2891,-2.292,-2.2815,-2.2469,-2.1906,-2.1192,-2.0678,-2.0644,-2.0506,-2.0457,-2.0475,-2.0501,-2.0527,-2.0553,-2.0561,-2.0636,-2.0726,-2.0726,-2.0726,-2.0718,-2.0718,-2.0685,-2.0527,-2.0494,-2.0433,-2.0373,-2.0304,-2.0235,-2.0096,-2.0033,-2.0005,-1.9876,-1.9841,-1.9833,-2.731,-2.723,-2.7111,-2.6957,-2.6775,-2.6489,-2.636,-2.6314,-2.6197,-2.5677,-2.5011,-2.5206,-2.5029,-2.4604,-2.5129,-2.5527,-2.5738,-2.5754,-2.568,-2.5575,-2.5462,-2.5424,-2.5355,-2.527,-2.5193,-2.5053,-2.5021,-2.4918,-2.4783,-2.4686,-2.4531,-2.4328,-2.4287,-2.4261,-2.42,-2.4143,-2.4044,-2.3959,-2.3875,-2.3711,-2.347,-2.3565,-2.3295,-2.2662,-2.2578,-2.2341,-2.1946,-2.1947,-2.1955,-2.1931,-2.2319,-2.2618,-2.2603,-2.3282,-2.3689,-2.39,-2.4205,-2.4441,-2.4523,-2.4523,-2.4531,-2.4523,-2.4645,-2.4686,-2.462,-2.4645,-2.446,-2.4061,-2.409,-2.4166,-2.4097,-2.412,-2.4082,-2.4074,-2.4028,-2.4012,-2.4074,-2.4012,-2.3951,-2.3881,-2.3881,-2.3873,-2.3772,-2.3513,-2.2959,-2.2207,-2.1486,-2.1047,-2.0996,-2.0617,-2.0362,-2.0346,-2.0304,-2.0331,-2.0407,-2.0467,-2.0501,-2.0517,-2.0533,-2.0525,-2.0475,-2.0365,-2.0331,-2.0289,-2.0262,-2.0227,-2.0131,-2.0103,-2.0068,-1.9927,-1.9841,-1.9805,-1.9762,-1.9726,-1.9733,-2.6995,-2.6956,-2.6994,-2.681,-2.6487,-2.6155,-2.6075,-2.6074,-2.5909,-2.5362,-2.4684,-2.4804,-2.4786,-2.4572,-2.4737,-2.5061,-2.5368,-2.5301,-2.5193,-2.517,-2.4997,-2.4926,-2.4846,-2.4839,-2.4726,-2.4645,-2.4613,-2.4564,-2.4426,-2.44,-2.4227,-2.4036,-2.4029,-2.3967,-2.3897,-2.3862,-2.3804,-2.3675,-2.366,-2.3589,-2.3494,-2.3683,-2.3571,-2.3134,-2.3096,-2.2814,-2.2266,-2.2325,-2.2332,-2.2251,-2.2791,-2.313,-2.3186,-2.3675,-2.4032,-2.4116,-2.4193,-2.4276,-2.4367,-2.4367,-2.4416,-2.4374,-2.4467,-2.4475,-2.4434,-2.4434,-2.4434,-2.4362,-2.4498,-2.4566,-2.4726,-2.4734,-2.4701,-2.4726,-2.4645,-2.463,-2.467,-2.4597,-2.4502,-2.4451,-2.4368,-2.4508,-2.4399,-2.3895,-2.3243,-2.2693,-2.2037,-2.1568,-2.147,-2.098,-2.0507,-2.0469,-2.0268,-2.0158,-2.0312,-2.0296,-2.0331,-2.0304,-2.0277,-2.0285,-2.0243,-2.0123,-2.0088,-2.0131,-2.0033,-1.9998,-1.9955,-1.9955,-1.9891,-1.9784,-1.9705,-1.9661,-1.9625,-1.9632,-1.9596,-2.6657,-2.6581,-2.6866,-2.6614,-2.601,-2.5725,-2.5619,-2.5645,-2.5448,-2.4902,-2.4215,-2.4056,-2.3916,-2.3856,-2.4571,-2.4958,-2.4997,-2.4902,-2.4815,-2.4783,-2.4645,-2.4531,-2.4539,-2.4392,-2.4253,-2.4154,-2.4162,-2.4135,-2.4032,-2.4032,-2.3932,-2.3847,-2.3789,-2.3711,-2.3545,-2.3502,-2.3466,-2.3312,-2.3312,-2.3312,-2.3312,-2.3319,-2.3297,-2.3231,-2.326,-2.3237,-2.3171,-2.3201,-2.3186,-2.3216,-2.3347,-2.3463,-2.355,-2.3709,-2.389,-2.3982,-2.4024,-2.4024,-2.4074,-2.4166,-2.4166,-2.4067,-2.4219,-2.4253,-2.4162,-2.4193,-2.4193,-2.412,-2.4094,-2.4185,-2.45,-2.449,-2.449,-2.4564,-2.4597,-2.4549,-2.4498,-2.449,-2.44,-2.4211,-2.4253,-2.4302,-2.4287,-2.3725,-2.3417,-2.3108,-2.257,-2.2072,-2.1988,-2.1432,-2.1044,-2.0877,-2.055,-2.0056,-2.0096,-2.0123,-2.0068,-2.0033,-2.0061,-2.0041,-1.9998,-1.9998,-1.9998,-2.0005,-1.997,-1.9891,-1.9841,-1.9769,-1.9741,-1.9676,-1.9618,-1.9574,-1.9523,-1.9457,-1.942,-2.6332,-2.6181,-2.6225,-2.6028,-2.5709,-2.5454,-2.5319,-2.527,-2.5099,-2.4823,-2.4422,-2.4231,-2.4062,-2.39,-2.4138,-2.4385,-2.4645,-2.4549,-2.441,-2.4362,-2.4294,-2.4177,-2.4051,-2.4002,-2.3909,-2.3817,-2.3774,-2.3746,-2.3683,-2.3675,-2.3596,-2.3487,-2.34,-2.3312,-2.3216,-2.3172,-2.3031,-2.2934,-2.2882,-2.2904,-2.2873,-2.2873,-2.2821,-2.2873,-2.3135,-2.3268,-2.3268,-2.3268,-2.3268,-2.3268,-2.3356,-2.3363,-2.3436,-2.3551,-2.3688,-2.3739,-2.3847,-2.3882,-2.3982,-2.3975,-2.3975,-2.4024,-2.4059,-2.4051,-2.3967,-2.3982,-2.3975,-2.3817,-2.3774,-2.3867,-2.4051,-2.4151,-2.4185,-2.4177,-2.4227,-2.4227,-2.42,-2.42,-2.4151,-2.4051,-2.4101,-2.4109,-2.4063,-2.3888,-2.375,-2.3682,-2.3122,-2.2717,-2.2557,-2.2093,-2.163,-2.1614,-2.1349,-2.1024,-2.0547,-2.0225,-2.0013,-1.9919,-1.9876,-1.9841,-1.9841,-1.9805,-1.9812,-1.9748,-1.9748,-1.972,-1.9632,-1.9596,-1.9567,-1.9531,-1.9472,-1.9465,-1.9413,-1.9376,-1.9339,-2.5885,-2.5746,-2.5594,-2.5489,-2.5362,-2.5121,-2.4965,-2.4895,-2.4735,-2.4541,-2.4392,-2.4177,-2.3959,-2.3797,-2.366,-2.3754,-2.4059,-2.4017,-2.4009,-2.3902,-2.3867,-2.3789,-2.366,-2.3617,-2.3566,-2.3465,-2.3377,-2.3348,-2.3312,-2.3312,-2.3216,-2.309,-2.2979,-2.2934,-2.2904,-2.2821,-2.267,-2.2618,-2.2572,-2.2548,-2.2456,-2.2456,-2.247,-2.2509,-2.2783,-2.3001,-2.309,-2.3053,-2.3053,-2.3105,-2.3135,-2.3231,-2.3312,-2.3443,-2.3516,-2.353,-2.3566,-2.366,-2.3754,-2.3746,-2.3739,-2.3754,-2.3897,-2.3932,-2.3711,-2.3804,-2.3746,-2.3602,-2.3508,-2.3559,-2.3668,-2.3761,-2.3804,-2.389,-2.3932,-2.389,-2.3855,-2.3839,-2.3897,-2.3932,-2.3932,-2.3932,-2.3982,-2.3975,-2.3959,-2.3982,-2.3565,-2.3281,-2.3182,-2.2672,-2.2194,-2.2116,-2.1819,-2.1425,-2.1057,-2.0752,-2.0152,-1.9981,-1.9831,-1.9757,-1.9654,-1.9625,-1.9589,-1.9567,-1.9494,-1.9465,-1.9465,-1.9428,-1.9391,-1.9391,-1.9384,-1.9376,-1.9332,-1.9295,-1.925,-2.5307,-2.5278,-2.5067,-2.4989,-2.4918,-2.4703,-2.4581,-2.4508,-2.4223,-2.4055,-2.3967,-2.3696,-2.3508,-2.3385,-2.3312,-2.3216,-2.3172,-2.3356,-2.3458,-2.3502,-2.3356,-2.3319,-2.3312,-2.326,-2.3216,-2.3068,-2.2942,-2.2889,-2.2897,-2.2897,-2.2844,-2.2701,-2.2663,-2.2625,-2.2601,-2.2456,-2.2377,-2.237,-2.2263,-2.2231,-2.217,-2.2177,-2.2177,-2.2177,-2.2231,-2.237,-2.2601,-2.2601,-2.2654,-2.2646,-2.2806,-2.3031,-2.3224,-2.3268,-2.3282,-2.326,-2.3312,-2.3312,-2.3356,-2.3487,-2.3516,-2.3443,-2.3711,-2.3769,-2.3451,-2.3523,-2.3566,-2.3451,-2.3363,-2.3363,-2.3458,-2.3407,-2.3443,-2.3696,-2.3754,-2.3668,-2.3596,-2.3574,-2.3645,-2.3739,-2.3739,-2.3832,-2.3932,-2.3932,-2.389,-2.3882,-2.3779,-2.3626,-2.3558,-2.3073,-2.2693,-2.2453,-2.2237,-2.1899,-2.1602,-2.1263,-2.0604,-2.0035,-1.9872,-1.9738,-1.9568,-1.9494,-1.9487,-1.942,-1.9384,-1.9347,-1.9347,-1.931,-1.931,-1.931,-1.9258,-1.9221,-1.9183,-1.9146,-1.9094,-2.4672,-2.4734,-2.467,-2.4508,-2.4317,-2.4234,-2.4094,-2.3902,-2.3688,-2.3581,-2.3487,-2.3253,-2.3038,-2.2859,-2.2737,-2.2586,-2.2502,-2.2593,-2.2783,-2.3046,-2.3024,-2.2979,-2.2897,-2.2882,-2.2852,-2.273,-2.2646,-2.2548,-2.2548,-2.2456,-2.2402,-2.2349,-2.2256,-2.2217,-2.2184,-2.203,-2.1996,-2.1996,-2.1935,-2.1942,-2.1935,-2.1895,-2.1935,-2.1942,-2.1949,-2.1949,-2.2044,-2.2317,-2.247,-2.247,-2.2593,-2.2737,-2.2828,-2.2949,-2.3024,-2.3038,-2.3216,-2.3268,-2.3312,-2.3348,-2.3356,-2.3319,-2.3451,-2.3451,-2.3312,-2.3363,-2.3356,-2.3246,-2.3098,-2.3083,-2.3157,-2.3098,-2.3165,-2.3451,-2.3443,-2.3443,-2.3371,-2.3363,-2.3407,-2.3443,-2.3443,-2.3487,-2.3487,-2.3538,-2.3538,-2.3545,-2.3494,-2.348,-2.3399,-2.3258,-2.3118,-2.3023,-2.2714,-2.2426,-2.2113,-2.1823,-2.141,-2.0649,-2.0239,-1.9886,-1.9626,-1.9347,-1.9347,-1.9317,-1.9272,-1.9228,-1.9191,-1.9191,-1.9183,-1.9153,-1.9116,-1.9078,-1.9048,-1.8995,-1.8981,-2.3765,-2.3761,-2.3753,-2.3595,-2.34,-2.3621,-2.3563,-2.3311,-2.3047,-2.2943,-2.2859,-2.267,-2.2449,-2.2224,-2.213,-2.2037,-2.1902,-2.1888,-2.2077,-2.2342,-2.2572,-2.2572,-2.2526,-2.248,-2.2449,-2.2363,-2.2217,-2.2137,-2.2084,-2.203,-2.1935,-2.1888,-2.18,-2.1807,-2.1759,-2.1664,-2.1561,-2.1568,-2.1506,-2.1513,-2.152,-2.152,-2.1506,-2.152,-2.152,-2.152,-2.152,-2.18,-2.2044,-2.2184,-2.2317,-2.2417,-2.2516,-2.2639,-2.2716,-2.2814,-2.2971,-2.3075,-2.3053,-2.3149,-2.3201,-2.3164,-2.3187,-2.3187,-2.3142,-2.3142,-2.3098,-2.3016,-2.2963,-2.2918,-2.2911,-2.2926,-2.2926,-2.3008,-2.3135,-2.312,-2.3076,-2.312,-2.3172,-2.3216,-2.3268,-2.3268,-2.3268,-2.3268,-2.3268,-2.3268,-2.3268,-2.3268,-2.3268,-2.3304,-2.3268,-2.3231,-2.3054,-2.2819,-2.2556,-2.2381,-2.2184,-2.1432,-2.0706,-2.0223,-1.985,-1.9433,-1.9221,-1.916,-1.913,-1.904,-1.904,-1.8988,-1.8981,-1.8957,-1.8965,-1.892,-1.8912,-1.8867,-1.8853,-2.2683,-2.2456,-2.2396,-2.235,-2.2354,-2.2807,-2.2944,-2.2756,-2.2366,-2.2218,-2.2156,-2.2037,-2.1855,-2.1609,-2.1602,-2.1513,-2.1423,-2.1354,-2.1416,-2.1554,-2.1834,-2.203,-2.2084,-2.2037,-2.1996,-2.1949,-2.1841,-2.1698,-2.1616,-2.1616,-2.152,-2.141,-2.1361,-2.1368,-2.1319,-2.1229,-2.1173,-2.1173,-2.1033,-2.1039,-2.1039,-2.099,-2.0977,-2.0977,-2.1039,-2.1039,-2.1033,-2.1166,-2.1403,-2.1752,-2.1942,-2.2091,-2.2331,-2.2377,-2.247,-2.2555,-2.2682,-2.2728,-2.2706,-2.2888,-2.3,-2.2826,-2.2933,-2.3001,-2.2926,-2.2911,-2.2911,-2.2866,-2.2835,-2.279,-2.2723,-2.2714,-2.2728,-2.2608,-2.2768,-2.2844,-2.2747,-2.2837,-2.2897,-2.3038,-2.3179,-2.3224,-2.3179,-2.3179,-2.3179,-2.3179,-2.3179,-2.3135,-2.3179,-2.3142,-2.3149,-2.3112,-2.303,-2.2905,-2.2628,-2.2555,-2.2395,-2.2033,-2.1207,-2.0548,-1.9943,-1.9442,-1.9101,-1.904,-1.8979,-1.8934,-1.8882,-1.8867,-1.886,-1.886,-1.886,-1.8815,-1.8784,-1.8753,-1.8714,-2.1888,-2.1794,-2.141,-2.1355,-2.1583,-2.177,-2.192,-2.2035,-2.186,-2.1759,-2.1698,-2.1506,-2.1375,-2.1271,-2.1187,-2.1138,-2.1082,-2.1013,-2.0957,-2.0957,-2.0944,-2.1251,-2.1554,-2.1561,-2.1568,-2.1513,-2.1423,-2.1326,-2.1284,-2.118,-2.1124,-2.0957,-2.0957,-2.0914,-2.0815,-2.0759,-2.0766,-2.0759,-2.0723,-2.0723,-2.0666,-2.0666,-2.0723,-2.0716,-2.0723,-2.0716,-2.0723,-2.0809,-2.116,-2.1609,-2.1657,-2.1759,-2.1949,-2.2037,-2.2123,-2.227,-2.2424,-2.253,-2.2608,-2.2661,-2.2721,-2.2675,-2.2706,-2.2692,-2.2692,-2.2685,-2.2692,-2.2646,-2.2608,-2.2516,-2.2502,-2.2491,-2.2438,-2.2363,-2.2559,-2.2675,-2.2586,-2.2639,-2.2692,-2.2737,-2.2776,-2.2783,-2.2821,-2.2828,-2.2828,-2.2835,-2.2835,-2.2828,-2.2873,-2.2881,-2.2888,-2.2797,-2.2752,-2.2706,-2.267,-2.2663,-2.2539,-2.2381,-2.1707,-2.0826,-2.0086,-1.9336,-1.9063,-1.8874,-1.8889,-1.8851,-1.8843,-1.8829,-1.8784,-1.8745,-1.8753,-1.8721,-1.8697,-1.8666,-1.8588,-2.0526,-2.0234,-1.99,-2.005,-2.0443,-2.0478,-2.0808,-2.1294,-2.1299,-2.1202,-2.1068,-2.097,-2.0828,-2.0779,-2.0686,-2.0686,-2.0636,-2.0573,-2.056,-2.051,-2.0416,-2.0616,-2.0963,-2.1062,-2.1062,-2.1062,-2.097,-2.0921,-2.0871,-2.0779,-2.0673,-2.0566,-2.056,-2.0459,-2.0372,-2.0321,-2.0315,-2.0258,-2.0258,-2.0258,-2.0258,-2.0258,-2.0258,-2.0251,-2.0315,-2.0378,-2.0422,-2.051,-2.0759,-2.1153,-2.1313,-2.1423,-2.152,-2.165,-2.18,-2.1935,-2.213,-2.2217,-2.227,-2.2363,-2.2417,-2.2377,-2.2377,-2.2377,-2.2417,-2.2363,-2.2363,-2.2324,-2.2331,-2.2278,-2.224,-2.2348,-2.2454,-2.2373,-2.2468,-2.2465,-2.2266,-2.2324,-2.2363,-2.2417,-2.247,-2.2562,-2.2555,-2.2608,-2.2615,-2.2615,-2.2661,-2.2661,-2.2661,-2.2615,-2.2569,-2.2516,-2.2562,-2.2562,-2.2562,-2.2555,-2.2417,-2.2296,-2.1812,-2.1008,-2.0245,-1.9397,-1.9109,-1.8924,-1.8838,-1.8728,-1.869,-1.869,-1.8651,-1.8613,-1.8627,-1.8627,-1.8556,-1.8556,-1.8478,-1.8996,-1.8425,-1.8365,-1.8687,-1.929,-1.9323,-1.9878,-2.0578,-2.0696,-2.0553,-2.0416,-2.0321,-2.0321,-2.0175,-2.0226,-2.0175,-2.0175,-2.0175,-2.0125,-2.0074,-2.0035,-2.0131,-2.0422,-2.051,-2.0503,-2.051,-2.051,-2.0459,-2.0365,-2.0321,-2.0271,-2.0163,-2.0118,-2.008,-1.9984,-1.9933,-1.9875,-1.9817,-1.9805,-1.9805,-1.9805,-1.9805,-1.9805,-1.9805,-1.9869,-1.9984,-2.0074,-2.0118,-2.0321,-2.0653,-2.0828,-2.0983,-2.118,-2.1264,-2.141,-2.1568,-2.1759,-2.1848,-2.1855,-2.199,-2.2037,-2.1949,-2.1942,-2.199,-2.203,-2.199,-2.1935,-2.1949,-2.2044,-2.2005,-2.2042,-2.2359,-2.2528,-2.2517,-2.2551,-2.2321,-2.1959,-2.1889,-2.199,-2.2123,-2.2263,-2.237,-2.2463,-2.2509,-2.247,-2.2317,-2.2324,-2.2324,-2.2324,-2.2317,-2.2317,-2.2363,-2.241,-2.2456,-2.2456,-2.2456,-2.227,-2.2081,-2.1623,-2.0959,-2.0279,-1.9613,-1.9284,-1.9009,-1.8753,-1.8588,-1.8471,-1.8471,-1.8471,-1.8464,-1.8425,-1.8425,-1.8425,-1.8432,-1.8354,-1.8615,-1.8429,-1.7945,-1.8312,-1.9051,-1.9159,-1.9468,-2.0029,-2.0003,-2.0003,-1.9959,-1.9907,-1.9907,-1.9856,-1.9862,-1.9914,-1.9869,-1.9759,-1.9662,-1.9571,-1.9583,-1.9583,-1.972,-1.985,-1.9952,-1.9959,-1.9952,-1.9952,-1.9907,-1.9907,-1.985,-1.9708,-1.9708,-1.9675,-1.9577,-1.9525,-1.9525,-1.9466,-1.9466,-1.946,-1.946,-1.946,-1.946,-1.946,-1.9525,-1.9525,-1.9565,-1.9662,-1.9759,-1.992,-2.0271,-2.0573,-2.0815,-2.0908,-2.1062,-2.1222,-2.1326,-2.1423,-2.1458,-2.1513,-2.1568,-2.1506,-2.1506,-2.1568,-2.1554,-2.1561,-2.1513,-2.152,-2.1575,-2.1752,-2.2056,-2.2203,-2.2378,-2.259,-2.2743,-2.2528,-2.19,-2.1701,-2.178,-2.1848,-2.1895,-2.1949,-2.1996,-2.199,-2.199,-2.1983,-2.1983,-2.1983,-2.1983,-2.203,-2.203,-2.2077,-2.2037,-2.2084,-2.2037,-2.2037,-2.1895,-2.1752,-2.1342,-2.0996,-2.0329,-1.9742,-1.9314,-1.8961,-1.862,-1.8462,-1.8311,-1.8282,-1.8282,-1.8275,-1.8268,-1.8235,-1.8235,-1.8275,-1.8268,-1.7976,-1.7718,-1.7388,-1.7756,-1.8455,-1.8534,-1.8886,-1.9328,-1.9448,-1.9442,-1.9448,-1.9448,-1.9442,-1.9442,-1.9448,-1.9396,-1.9402,-1.935,-1.9303,-1.9204,-1.9164,-1.9117,-1.9111,-1.9192,-1.9285,-1.9442,-1.9454,-1.9454,-1.9402,-1.9396,-1.9396,-1.9303,-1.9303,-1.9257,-1.9164,-1.9111,-1.9099,-1.9046,-1.9046,-1.904,-1.904,-1.9046,-1.9052,-1.9105,-1.9111,-1.9158,-1.9198,-1.9251,-1.9344,-1.9448,-1.9701,-2.001,-2.0359,-2.056,-2.0666,-2.0772,-2.0878,-2.0927,-2.1019,-2.1013,-2.1019,-2.1013,-2.1019,-2.1019,-2.1013,-2.1013,-2.1013,-2.1019,-2.1066,-2.1252,-2.1852,-2.2373,-2.2522,-2.2622,-2.2808,-2.2505,-2.1943,-2.1741,-2.1645,-2.158,-2.152,-2.1568,-2.1568,-2.1561,-2.1657,-2.1698,-2.1752,-2.1752,-2.1848,-2.1848,-2.1793,-2.1746,-2.1657,-2.1616,-2.1616,-2.152,-2.1423,-2.1271,-2.1057,-2.0846,-2.048,-1.9906,-1.9324,-1.9001,-1.8658,-1.8324,-1.82,-1.8132,-1.8057,-1.8043,-1.8043,-1.8043,-1.8043,-1.8036,-1.8036,-1.7299,-1.6909,-1.6904,-1.7307,-1.7849,-1.7971,-1.8318,-1.8786,-1.8881,-1.8875,-1.8887,-1.8827,-1.8827,-1.8875,-1.8887,-1.8827,-1.8887,-1.8893,-1.8833,-1.8786,-1.8732,-1.8685,-1.8679,-1.8619,-1.8661,-1.8922,-1.8934,-1.894,-1.8893,-1.8881,-1.8821,-1.8827,-1.8881,-1.878,-1.8685,-1.8691,-1.8631,-1.8572,-1.8566,-1.8566,-1.8607,-1.8666,-1.8838,-1.9008,-1.9069,-1.9124,-1.9149,-1.9108,-1.903,-1.9142,-1.9129,-1.9303,-1.9668,-2.0086,-2.0277,-2.0264,-2.0365,-2.0416,-2.0416,-2.0459,-2.0466,-2.0409,-2.0466,-2.0466,-2.0466,-2.0416,-2.0416,-2.0461,-2.0552,-2.0914,-2.1522,-2.2137,-2.2559,-2.2668,-2.2642,-2.2394,-2.1939,-2.1778,-2.1549,-2.1195,-2.1124,-2.1173,-2.1222,-2.1271,-2.1361,-2.1458,-2.1465,-2.152,-2.1561,-2.1561,-2.1403,-2.1306,-2.1215,-2.1124,-2.1075,-2.0908,-2.0822,-2.0779,-2.0623,-2.0534,-2.0382,-2.0002,-1.9448,-1.9055,-1.8712,-1.8358,-1.7995,-1.7847,-1.7787,-1.7828,-1.7808,-1.7767,-1.7801,-1.7835,-1.7835,-1.6987,-1.6909,-1.703,-1.7372,-1.7901,-1.8001,-1.8089,-1.8236,-1.8242,-1.8242,-1.8247,-1.8242,-1.8247,-1.8247,-1.8253,-1.8247,-1.8236,-1.8236,-1.8247,-1.8193,-1.8193,-1.8139,-1.8139,-1.8024,-1.8024,-1.8084,-1.8247,-1.8416,-1.8416,-1.8362,-1.8236,-1.8242,-1.8242,-1.8193,-1.8193,-1.8193,-1.8193,-1.8156,-1.819,-1.8225,-1.8282,-1.8581,-1.8925,-1.9264,-1.9224,-1.931,-1.9275,-1.9079,-1.8927,-1.8881,-1.8614,-1.8541,-1.8709,-1.9192,-1.9506,-1.9708,-1.9759,-1.9811,-1.9811,-1.9856,-1.9817,-1.972,-1.9714,-1.9759,-1.9759,-1.9662,-1.9656,-1.9845,-2.0188,-2.0769,-2.1628,-2.1965,-2.2222,-2.2381,-2.2424,-2.2163,-2.1473,-2.1188,-2.1123,-2.0707,-2.0684,-2.0723,-2.0716,-2.0766,-2.0858,-2.0908,-2.0908,-2.0957,-2.1006,-2.0908,-2.0759,-2.0759,-2.0716,-2.0623,-2.0579,-2.0359,-2.0201,-2.0213,-2.0118,-2.001,-1.9927,-1.9927,-1.9608,-1.9178,-1.863,-1.8157,-1.7879,-1.7571,-1.7422,-1.7391,-1.7432,-1.7487,-1.7474,-1.7502,-1.7536,-1.6726,-1.677,-1.6901,-1.7137,-1.7435,-1.7523,-1.7579,-1.7634,-1.7645,-1.7639,-1.7639,-1.7651,-1.7651,-1.7639,-1.7645,-1.7584,-1.7523,-1.7418,-1.7429,-1.7423,-1.7423,-1.7418,-1.7423,-1.7357,-1.7307,-1.7312,-1.7423,-1.7639,-1.7744,-1.7695,-1.7645,-1.7639,-1.7639,-1.7639,-1.7628,-1.7634,-1.7639,-1.7667,-1.7857,-1.8008,-1.8064,-1.8505,-1.8907,-1.8992,-1.9087,-1.9059,-1.9015,-1.8946,-1.8675,-1.8486,-1.8301,-1.8108,-1.8049,-1.823,-1.8608,-1.8981,-1.9093,-1.9146,-1.9093,-1.9133,-1.9139,-1.8987,-1.8987,-1.8981,-1.9034,-1.8981,-1.8875,-1.9102,-1.9836,-2.037,-2.0728,-2.1326,-2.1732,-2.1874,-2.1939,-2.1558,-2.1039,-2.0767,-2.0397,-2.0104,-2.0084,-2.0099,-2.015,-2.0251,-2.0302,-2.0352,-2.0346,-2.0403,-2.0403,-2.0302,-2.015,-2.0048,-2.0055,-1.9952,-1.9856,-1.9689,-1.9527,-1.9585,-1.9546,-1.9442,-1.9396,-1.9384,-1.9374,-1.9194,-1.8607,-1.7968,-1.7555,-1.726,-1.7111,-1.6973,-1.7051,-1.7141,-1.7135,-1.7164,-1.7247,-1.64,-1.6462,-1.6632,-1.6745,-1.6842,-1.6842,-1.6904,-1.7022,-1.7083,-1.7078,-1.7027,-1.7088,-1.7094,-1.7032,-1.7027,-1.6971,-1.6848,-1.6751,-1.6756,-1.6751,-1.6751,-1.6694,-1.6699,-1.6699,-1.6694,-1.6637,-1.657,-1.6689,-1.7027,-1.7022,-1.7027,-1.7027,-1.7027,-1.7027,-1.7016,-1.7022,-1.7027,-1.714,-1.7367,-1.7625,-1.7943,-1.8271,-1.8609,-1.8674,-1.8679,-1.8733,-1.8714,-1.8615,-1.845,-1.8186,-1.7937,-1.7718,-1.7453,-1.7295,-1.7518,-1.8007,-1.8296,-1.8398,-1.8392,-1.8333,-1.8327,-1.8164,-1.8121,-1.8176,-1.8236,-1.8187,-1.8113,-1.8324,-1.8918,-1.9621,-1.9852,-2.0498,-2.0934,-2.1066,-2.1101,-2.0917,-2.045,-2.0037,-1.9587,-1.94,-1.9389,-1.9405,-1.9436,-1.9579,-1.9631,-1.9637,-1.9683,-1.9689,-1.9689,-1.9585,-1.943,-1.9384,-1.9279,-1.918,-1.9075,-1.8963,-1.8898,-1.8898,-1.8798,-1.8697,-1.8762,-1.8768,-1.8756,-1.8725,-1.8298,-1.7684,-1.7297,-1.6979,-1.6817,-1.6741,-1.6769,-1.6791,-1.6827,-1.6911,-1.6996,-1.5846,-1.5967,-1.6124,-1.6166,-1.6228,-1.6343,-1.64,-1.6405,-1.657,-1.6575,-1.6394,-1.6581,-1.6575,-1.6405,-1.6405,-1.641,-1.6348,-1.6228,-1.6176,-1.6171,-1.6228,-1.6233,-1.6296,-1.6348,-1.6109,-1.5994,-1.5931,-1.628,-1.6457,-1.64,-1.6405,-1.6405,-1.6405,-1.641,-1.6394,-1.6348,-1.641,-1.6415,-1.6488,-1.6909,-1.7615,-1.8124,-1.8508,-1.8799,-1.8882,-1.8785,-1.8627,-1.8485,-1.8231,-1.8018,-1.7429,-1.7132,-1.7009,-1.6634,-1.642,-1.6611,-1.696,-1.7468,-1.7512,-1.7562,-1.7446,-1.7335,-1.7234,-1.7296,-1.7351,-1.7373,-1.7382,-1.7615,-1.7962,-1.8278,-1.8745,-1.9383,-1.975,-1.9947,-2.0013,-1.9965,-1.9675,-1.9144,-1.8723,-1.8361,-1.8204,-1.8412,-1.8542,-1.875,-1.891,-1.8916,-1.8969,-1.8963,-1.891,-1.8744,-1.8584,-1.8423,-1.8369,-1.8267,-1.8219,-1.8104,-1.8098,-1.8147,-1.8098,-1.7946,-1.8001,-1.8061,-1.8133,-1.7992,-1.7624,-1.7387,-1.6984,-1.6691,-1.6508,-1.6383,-1.6318,-1.6392,-1.6522,-1.665,-1.6784,-1.5083,-1.5391,-1.5536,-1.5647,-1.5705,-1.5758,-1.5768,-1.5816,-1.5884,-1.5879,-1.5826,-1.5884,-1.5821,-1.5705,-1.5594,-1.5488,-1.5425,-1.5357,-1.5294,-1.5289,-1.5289,-1.5294,-1.5235,-1.5294,-1.5172,-1.5172,-1.5118,-1.5113,-1.541,-1.5705,-1.5826,-1.5768,-1.5705,-1.57,-1.57,-1.5594,-1.5594,-1.5722,-1.6063,-1.6597,-1.7198,-1.7531,-1.7823,-1.8157,-1.8245,-1.8254,-1.8205,-1.8198,-1.7904,-1.757,-1.7081,-1.672,-1.6289,-1.5964,-1.5743,-1.5468,-1.5637,-1.6036,-1.6492,-1.6611,-1.6549,-1.6379,-1.6332,-1.6275,-1.6332,-1.64,-1.6379,-1.629,-1.6742,-1.7086,-1.7318,-1.7693,-1.7977,-1.8273,-1.8687,-1.8746,-1.8569,-1.8213,-1.7727,-1.7345,-1.7032,-1.7175,-1.7351,-1.7584,-1.7743,-1.7918,-1.7918,-1.7852,-1.7809,-1.771,-1.7551,-1.734,-1.7346,-1.7346,-1.7296,-1.724,-1.7234,-1.7224,-1.734,-1.7234,-1.7173,-1.7234,-1.7296,-1.7357,-1.7131,-1.6861,-1.6587,-1.6379,-1.6167,-1.6007,-1.5869,-1.5994,-1.6163,-1.6367,-1.6539,-1.4125,-1.4552,-1.4883,-1.5059,-1.5177,-1.5177,-1.5181,-1.5172,-1.524,-1.523,-1.5172,-1.5177,-1.5118,-1.5064,-1.4951,-1.4838,-1.4597,-1.4474,-1.4414,-1.4414,-1.4355,-1.4419,-1.4478,-1.4419,-1.4419,-1.43,-1.4419,-1.441,-1.4465,-1.4642,-1.4937,-1.5177,-1.5118,-1.5055,-1.5001,-1.4942,-1.4947,-1.5083,-1.5581,-1.6086,-1.6615,-1.6868,-1.7049,-1.7168,-1.729,-1.7364,-1.7368,-1.7423,-1.7219,-1.6736,-1.6478,-1.6055,-1.5414,-1.5126,-1.4893,-1.4634,-1.4642,-1.4697,-1.5162,-1.5395,-1.558,-1.5522,-1.5347,-1.5284,-1.524,-1.5352,-1.5352,-1.5112,-1.5412,-1.5633,-1.5718,-1.6129,-1.6466,-1.6811,-1.7081,-1.7234,-1.7258,-1.6933,-1.6576,-1.6253,-1.5934,-1.563,-1.5866,-1.6192,-1.6512,-1.6866,-1.6866,-1.68,-1.6692,-1.6595,-1.6482,-1.626,-1.6197,-1.6255,-1.6327,-1.6275,-1.628,-1.6285,-1.6343,-1.64,-1.6327,-1.6384,-1.6503,-1.6508,-1.6513,-1.6358,-1.6035,-1.5953,-1.5848,-1.5568,-1.5373,-1.5597,-1.5806,-1.6051,-1.6361,-1.2981,-1.322,-1.4172,-1.4524,-1.4588,-1.4583,-1.4529,-1.4583,-1.4706,-1.4642,-1.4524,-1.4529,-1.4529,-1.4469,-1.4414,-1.43,-1.4189,-1.4245,-1.4065,-1.401,-1.4014,-1.3945,-1.3885,-1.3825,-1.3885,-1.3769,-1.37,-1.3631,-1.3631,-1.3563,-1.4043,-1.4465,-1.4346,-1.4465,-1.4469,-1.435,-1.4345,-1.4542,-1.4919,-1.5327,-1.5738,-1.6063,-1.6337,-1.6513,-1.6608,-1.6542,-1.6263,-1.639,-1.6325,-1.5742,-1.5601,-1.5198,-1.4691,-1.4267,-1.4022,-1.3744,-1.3627,-1.3623,-1.3795,-1.4277,-1.4588,-1.4524,-1.4455,-1.4268,-1.4227,-1.4277,-1.4222,-1.4112,-1.4224,-1.4353,-1.455,-1.4872,-1.5033,-1.5251,-1.546,-1.5647,-1.5698,-1.5615,-1.5346,-1.5113,-1.481,-1.4439,-1.4279,-1.4611,-1.5245,-1.5593,-1.5661,-1.5598,-1.5434,-1.5386,-1.5328,-1.5211,-1.5089,-1.5148,-1.5221,-1.5221,-1.5157,-1.5157,-1.5216,-1.5342,-1.54,-1.5522,-1.5575,-1.5695,-1.5728,-1.5603,-1.5505,-1.5337,-1.5191,-1.4968,-1.4926,-1.5147,-1.5546,-1.5894,-1.625,-1.249,-1.2613,-1.2972,-1.345,-1.3863,-1.3863,-1.3868,-1.3872,-1.3928,-1.3868,-1.3752,-1.3752,-1.3636,-1.3524,-1.3463,-1.3338,-1.3151,-1.3151,-1.3155,-1.3094,-1.3094,-1.3033,-1.2977,-1.2972,-1.2846,-1.2785,-1.272,-1.2658,-1.2601,-1.2654,-1.2716,-1.3017,-1.3385,-1.3515,-1.358,-1.3541,-1.3582,-1.3778,-1.4033,-1.4341,-1.4781,-1.4968,-1.5171,-1.5371,-1.5542,-1.5471,-1.5401,-1.5546,-1.5379,-1.517,-1.4926,-1.445,-1.388,-1.3445,-1.3115,-1.2816,-1.2699,-1.2613,-1.265,-1.326,-1.3687,-1.3563,-1.3494,-1.3429,-1.3321,-1.3373,-1.326,-1.3147,-1.3029,-1.3083,-1.2989,-1.3104,-1.3165,-1.3509,-1.3781,-1.403,-1.4098,-1.4046,-1.3995,-1.3718,-1.3463,-1.3203,-1.3034,-1.3001,-1.3713,-1.4373,-1.4387,-1.4392,-1.4209,-1.4089,-1.4025,-1.4016,-1.3888,-1.3897,-1.4021,-1.4025,-1.4025,-1.4025,-1.4089,-1.4209,-1.4268,-1.4341,-1.4396,-1.4638,-1.4845,-1.4758,-1.468,-1.4626,-1.4573,-1.4585,-1.4606,-1.4743,-1.5193,-1.5691,-1.6044,-1.1992,-1.1996,-1.2054,-1.2548,-1.3289,-1.3212,-1.3208,-1.3212,-1.3208,-1.3147,-1.309,-1.3025,-1.2915,-1.274,-1.2674,-1.2552,-1.2421,-1.2355,-1.2297,-1.2297,-1.2236,-1.2182,-1.212,-1.212,-1.2116,-1.1864,-1.1864,-1.193,-1.186,-1.1798,-1.1856,-1.1981,-1.2112,-1.2359,-1.267,-1.2637,-1.273,-1.2989,-1.318,-1.3467,-1.3986,-1.4109,-1.4202,-1.4351,-1.447,-1.4406,-1.441,-1.4474,-1.4391,-1.4163,-1.3964,-1.3612,-1.3172,-1.2688,-1.2383,-1.2018,-1.1807,-1.1718,-1.1883,-1.2286,-1.2716,-1.2524,-1.2462,-1.2458,-1.2401,-1.2339,-1.2158,-1.1984,-1.186,-1.1732,-1.1538,-1.1696,-1.1769,-1.2029,-1.2145,-1.2303,-1.2435,-1.2409,-1.2413,-1.2326,-1.2172,-1.2097,-1.1615,-1.1582,-1.212,-1.2793,-1.298,-1.298,-1.2862,-1.2805,-1.2749,-1.2683,-1.2622,-1.2692,-1.2761,-1.2696,-1.2687,-1.2801,-1.2866,-1.2996,-1.3122,-1.3195,-1.3316,-1.361,-1.3738,-1.3837,-1.3915,-1.4003,-1.4141,-1.4281,-1.4349,-1.4466,-1.4886,-1.5385,-1.5774,-1.1244,-1.1188,-1.1435,-1.2073,-1.2776,-1.2621,-1.2548,-1.254,-1.2544,-1.2482,-1.2478,-1.2478,-1.2421,-1.2243,-1.2178,-1.1992,-1.1806,-1.1743,-1.1681,-1.1619,-1.1622,-1.1564,-1.156,-1.156,-1.1432,-1.1556,-1.1432,-1.1306,-1.124,-1.124,-1.1178,-1.0986,-1.1048,-1.1299,-1.1922,-1.1984,-1.2163,-1.2444,-1.2485,-1.2848,-1.3255,-1.3433,-1.3517,-1.3598,-1.3531,-1.3466,-1.3401,-1.3328,-1.3237,-1.3017,-1.2824,-1.2544,-1.2167,-1.1895,-1.1617,-1.129,-1.1194,-1.1006,-1.0905,-1.1501,-1.1545,-1.1413,-1.1406,-1.1288,-1.1167,-1.1045,-1.0979,-1.086,-1.0793,-1.0657,-1.0588,-1.0521,-1.0518,-1.0531,-1.0585,-1.0621,-1.0752,-1.086,-1.0863,-1.0892,-1.1096,-1.1095,-1.0451,-1.0151,-1.0661,-1.1142,-1.1447,-1.1509,-1.1443,-1.1381,-1.1384,-1.1256,-1.1253,-1.1319,-1.1326,-1.1347,-1.141,-1.1524,-1.1637,-1.1764,-1.1954,-1.2081,-1.2262,-1.2508,-1.2797,-1.2995,-1.325,-1.3462,-1.3631,-1.3836,-1.407,-1.428,-1.4656,-1.5068,-1.5463,-1.0614,-1.0618,-1.0684,-1.1076,-1.1674,-1.1828,-1.1872,-1.1872,-1.1868,-1.1809,-1.1743,-1.1677,-1.1615,-1.149,-1.1365,-1.124,-1.1118,-1.0996,-1.0937,-1.0937,-1.0937,-1.0814,-1.0807,-1.0741,-1.0674,-1.0551,-1.0555,-1.0555,-1.0428,-1.0428,-1.0368,-1.0177,-1.0101,-1.0348,-1.0863,-1.108,-1.1209,-1.15,-1.1713,-1.195,-1.2396,-1.2613,-1.2694,-1.2809,-1.2589,-1.2445,-1.2378,-1.2301,-1.2155,-1.1985,-1.182,-1.1549,-1.1191,-1.0932,-1.0511,-1.0184,-0.9983,-0.9861,-0.967,-0.9904,-1.0094,-1.0218,-1.0342,-1.0281,-1.0218,-0.997,-0.991,-0.9779,-0.9579,-0.9442,-0.9308,-0.9186,-0.9186,-0.9183,-0.921,-0.9212,-0.9245,-0.9265,-0.9312,-0.9351,-0.9499,-0.9334,-0.8924,-0.8663,-0.8978,-0.9204,-0.9506,-0.9942,-1.0005,-1.0002,-0.9936,-0.9809,-0.9745,-0.9875,-0.9945,-0.9948,-1.0018,-1.0135,-1.0325,-1.0461,-1.0713,-1.0892,-1.1087,-1.1271,-1.1714,-1.2147,-1.2401,-1.2648,-1.3064,-1.331,-1.3559,-1.3941,-1.4378,-1.4758,-1.5102,-1.0117,-0.9983,-0.9977,-1.018,-1.0518,-1.1003,-1.1247,-1.1251,-1.1247,-1.1118,-1.0993,-1.0933,-1.0863,-1.0667,-1.0541,-1.0418,-1.0355,-1.0295,-1.0234,-1.0238,-1.0231,-1.0164,-1.0104,-0.998,-0.9913,-0.9725,-0.9664,-0.9664,-0.96,-0.9603,-0.9478,-0.9347,-0.9212,-0.9402,-0.9789,-1.0069,-1.0377,-1.067,-1.0878,-1.1051,-1.1369,-1.1589,-1.1616,-1.1629,-1.1481,-1.1335,-1.1332,-1.126,-1.1186,-1.1108,-1.0932,-1.0665,-1.0384,-1.0067,-0.9694,-0.9343,-0.8959,-0.8828,-0.8695,-0.8495,-0.8748,-0.8871,-0.9192,-0.9259,-0.9198,-0.8947,-0.8815,-0.8619,-0.842,-0.8223,-0.8089,-0.7967,-0.7902,-0.7902,-0.7832,-0.7834,-0.7772,-0.7854,-0.7802,-0.7827,-0.7932,-0.7667,-0.7437,-0.7288,-0.7288,-0.7386,-0.7482,-0.7987,-0.8487,-0.8541,-0.8533,-0.8401,-0.8337,-0.8401,-0.8466,-0.8533,-0.8667,-0.8742,-0.8932,-0.9125,-0.932,-0.9497,-0.9764,-1.0025,-1.0388,-1.0808,-1.145,-1.1809,-1.2282,-1.2703,-1.3069,-1.3498,-1.4045,-1.4415,-1.4758,-0.9612,-0.9335,-0.9393,-0.939,-0.9396,-1.0107,-1.0491,-1.0558,-1.0561,-1.0431,-1.0304,-1.0301,-1.0164,-0.9901,-0.9837,-0.9713,-0.9588,-0.9524,-0.9463,-0.946,-0.9524,-0.9457,-0.946,-0.9335,-0.9274,-0.9207,-0.9145,-0.9025,-0.8835,-0.8767,-0.8703,-0.8579,-0.8509,-0.8571,-0.8759,-0.9105,-0.9553,-0.9814,-1.0011,-1.0192,-1.0493,-1.0536,-1.0576,-1.0507,-1.0363,-1.0288,-1.0212,-1.0137,-1.0137,-1.0062,-0.9984,-0.9908,-0.9755,-0.9617,-0.9239,-0.8827,-0.8292,-0.7966,-0.77,-0.7526,-0.7393,-0.7517,-0.7839,-0.8039,-0.8039,-0.7844,-0.7712,-0.7517,-0.7319,-0.7123,-0.6992,-0.6798,-0.6669,-0.6599,-0.6529,-0.6461,-0.6396,-0.64,-0.6336,-0.634,-0.6527,-0.6413,-0.6162,-0.5949,-0.5819,-0.5557,-0.5659,-0.5903,-0.6478,-0.7055,-0.7048,-0.7107,-0.6979,-0.6915,-0.6981,-0.7039,-0.717,-0.7235,-0.7505,-0.77,-0.7897,-0.8091,-0.8412,-0.8664,-0.8982,-0.9539,-1.0405,-1.1044,-1.1514,-1.1924,-1.2393,-1.3111,-1.3713,-1.4028,-1.4348,-0.8981,-0.8767,-0.8767,-0.8767,-0.8703,-0.8821,-0.9198,-0.9783,-0.984,-0.9779,-0.9713,-0.9719,-0.9652,-0.9579,-0.9338,-0.9207,-0.9081,-0.8955,-0.8832,-0.8829,-0.8823,-0.8762,-0.8762,-0.8765,-0.87,-0.87,-0.8638,-0.8509,-0.8306,-0.8177,-0.7987,-0.7924,-0.7857,-0.7792,-0.7904,-0.8065,-0.856,-0.8999,-0.9155,-0.9352,-0.9522,-0.9611,-0.9573,-0.9526,-0.9458,-0.9306,-0.9157,-0.9005,-0.8927,-0.877,-0.8618,-0.8468,-0.8394,-0.823,-0.7899,-0.7546,-0.7144,-0.6808,-0.6583,-0.6412,-0.628,-0.6147,-0.6338,-0.6535,-0.6664,-0.6664,-0.6537,-0.6404,-0.627,-0.6071,-0.5871,-0.5677,-0.5547,-0.5479,-0.5343,-0.5208,-0.514,-0.5142,-0.5079,-0.5109,-0.5206,-0.5181,-0.4939,-0.4778,-0.4588,-0.4051,-0.3876,-0.4193,-0.4576,-0.5289,-0.5611,-0.567,-0.5604,-0.5538,-0.5472,-0.5533,-0.5599,-0.5732,-0.5997,-0.6262,-0.6525,-0.6719,-0.7048,-0.744,-0.7954,-0.8734,-0.97,-1.0214,-1.0602,-1.1256,-1.1791,-1.2616,-1.331,-1.3589,-1.4032,-0.833,-0.8117,-0.7914,-0.7979,-0.8052,-0.7977,-0.8231,-0.8751,-0.9011,-0.9075,-0.9002,-0.8944,-0.8941,-0.8882,-0.8692,-0.8565,-0.8568,-0.8309,-0.8184,-0.8187,-0.812,-0.8114,-0.8114,-0.8052,-0.799,-0.799,-0.7924,-0.7727,-0.7654,-0.7458,-0.7269,-0.7265,-0.7132,-0.7068,-0.7118,-0.7243,-0.7532,-0.795,-0.8321,-0.8522,-0.8627,-0.8699,-0.8666,-0.8616,-0.847,-0.832,-0.8172,-0.7944,-0.7787,-0.7629,-0.7476,-0.7399,-0.7324,-0.7084,-0.6846,-0.6503,-0.6261,-0.5958,-0.575,-0.5514,-0.5297,-0.5085,-0.4956,-0.5017,-0.5216,-0.5347,-0.5348,-0.5282,-0.5082,-0.4948,-0.475,-0.4619,-0.4488,-0.4355,-0.4152,-0.3949,-0.3949,-0.3949,-0.3956,-0.3899,-0.3864,-0.383,-0.3735,-0.3577,-0.3453,-0.3193,-0.294,-0.2976,-0.3366,-0.3889,-0.4217,-0.4284,-0.4152,-0.4087,-0.4019,-0.4082,-0.4212,-0.441,-0.4612,-0.4877,-0.5143,-0.5408,-0.5736,-0.633,-0.6992,-0.7702,-0.8345,-0.9061,-0.9639,-1.0293,-1.0942,-1.1713,-1.2486,-1.3177,-1.3728,-0.7739,-0.7454,-0.7044,-0.7179,-0.7456,-0.7458,-0.7458,-0.7526,-0.8117,-0.8309,-0.8169,-0.8169,-0.8107,-0.8109,-0.7982,-0.7982,-0.7919,-0.7727,-0.7599,-0.7603,-0.7528,-0.7458,-0.7393,-0.7263,-0.7269,-0.7136,-0.7005,-0.701,-0.6811,-0.6677,-0.6607,-0.6605,-0.6412,-0.63,-0.6303,-0.6447,-0.6672,-0.6837,-0.7277,-0.7671,-0.7784,-0.778,-0.7631,-0.7478,-0.7403,-0.7328,-0.718,-0.7026,-0.7022,-0.6866,-0.671,-0.6632,-0.64,-0.624,-0.5917,-0.5717,-0.5485,-0.5202,-0.4927,-0.4619,-0.4434,-0.4223,-0.4025,-0.3888,-0.402,-0.4288,-0.4356,-0.4287,-0.4086,-0.3952,-0.382,-0.3687,-0.3487,-0.3489,-0.3355,-0.322,-0.3086,-0.2951,-0.2684,-0.2622,-0.2559,-0.2513,-0.2397,-0.2289,-0.2088,-0.2077,-0.2004,-0.184,-0.1885,-0.2347,-0.2615,-0.275,-0.2751,-0.2684,-0.2684,-0.2749,-0.295,-0.3151,-0.3284,-0.355,-0.388,-0.4148,-0.442,-0.5013,-0.5604,-0.6201,-0.6785,-0.7565,-0.8345,-0.8977,-0.9778,-1.0683,-1.156,-1.2249,-1.3248,-0.7143,-0.701,-0.694,-0.694,-0.7012,-0.7007,-0.701,-0.7073,-0.7206,-0.7398,-0.7652,-0.7652,-0.7652,-0.7589,-0.7463,-0.7398,-0.7332,-0.7204,-0.7077,-0.7075,-0.6937,-0.6868,-0.687,-0.6673,-0.6613,-0.6613,-0.6482,-0.6352,-0.6152,-0.6017,-0.5817,-0.5754,-0.5627,-0.5593,-0.5508,-0.5715,-0.5866,-0.5868,-0.616,-0.6708,-0.7078,-0.6945,-0.6868,-0.671,-0.6632,-0.64,-0.6251,-0.6173,-0.6017,-0.5785,-0.5705,-0.5549,-0.5391,-0.5313,-0.5173,-0.4986,-0.4652,-0.4388,-0.4142,-0.3835,-0.3636,-0.3423,-0.3223,-0.3021,-0.3087,-0.3356,-0.3424,-0.3288,-0.3155,-0.3021,-0.2887,-0.2686,-0.2552,-0.262,-0.2554,-0.242,-0.2219,-0.1882,-0.1478,-0.1343,-0.1276,-0.108,-0.102,-0.0888,-0.0685,-0.0552,-0.0417,-0.0276,-0.0135,-0.0335,-0.0737,-0.0939,-0.1276,-0.1343,-0.1344,-0.1478,-0.161,-0.1812,-0.2013,-0.228,-0.2614,-0.2949,-0.3352,-0.3751,-0.4215,-0.4809,-0.5404,-0.6197,-0.6981,-0.763,-0.8345,-0.923,-1.0186,-1.0923,-1.2275,-0.6344,-0.6278,-0.6414,-0.6486,-0.6418,-0.6418,-0.6418,-0.6418,-0.6484,-0.6546,-0.687,-0.7071,-0.7202,-0.7132,-0.7003,-0.6874,-0.6808,-0.6679,-0.6613,-0.6546,-0.6414,-0.6278,-0.6212,-0.6079,-0.6018,-0.5954,-0.582,-0.5688,-0.5489,-0.5291,-0.5092,-0.5025,-0.4967,-0.4892,-0.4886,-0.5014,-0.5073,-0.5052,-0.5102,-0.5459,-0.6093,-0.5938,-0.5939,-0.5859,-0.5702,-0.5549,-0.5316,-0.524,-0.5007,-0.4775,-0.4619,-0.4538,-0.4381,-0.4303,-0.4125,-0.3896,-0.3579,-0.3401,-0.3328,-0.3106,-0.2832,-0.2757,-0.2352,-0.2149,-0.1679,-0.1947,-0.2284,-0.2216,-0.2419,-0.2352,-0.1813,-0.1545,-0.141,-0.1411,-0.1276,-0.1075,-0.0873,-0.0672,-0.0336,-0.0201,0.0134,0.074,0.0744,0.0744,0.095,0.1018,0.1166,0.1375,0.1489,0.1411,0.1074,0.0738,0.0403,0.0,-0.0134,-0.0201,-0.0269,-0.047,-0.0739,-0.094,-0.1274,-0.1746,-0.2216,-0.2547,-0.2947,-0.3416,-0.4078,-0.4738,-0.5469,-0.6121,-0.6909,-0.7692,-0.8653,-0.9545,-1.0657,-0.5481,-0.5415,-0.5686,-0.5824,-0.5826,-0.5826,-0.5824,-0.5822,-0.5822,-0.5822,-0.5958,-0.6486,-0.6616,-0.6611,-0.6541,-0.6412,-0.6282,-0.615,-0.6083,-0.6018,-0.5824,-0.5688,-0.555,-0.5416,-0.5354,-0.5223,-0.5087,-0.5022,-0.4889,-0.4691,-0.4492,-0.4425,-0.4318,-0.4222,-0.4274,-0.4382,-0.4352,-0.4328,-0.4342,-0.43,-0.454,-0.4772,-0.5006,-0.4928,-0.4849,-0.4614,-0.4383,-0.4229,-0.4073,-0.3839,-0.3683,-0.3525,-0.3525,-0.3447,-0.337,-0.309,-0.2987,-0.2853,-0.2659,-0.2284,-0.2243,-0.2085,-0.1546,-0.1075,-0.0672,-0.0739,-0.1075,-0.121,-0.1344,-0.1277,-0.0806,-0.0538,-0.0403,-0.0202,-0.0,0.0269,0.047,0.0605,0.0739,0.0941,0.1412,0.2085,0.2153,0.2154,0.2288,0.2421,0.269,0.2958,0.3092,0.2686,0.2348,0.2214,0.1946,0.1611,0.1142,0.1007,0.094,0.0806,0.0538,0.0336,0.0067,-0.0336,-0.0806,-0.1342,-0.1743,-0.201,-0.2546,-0.3144,-0.3873,-0.4602,-0.5396,-0.6183,-0.7033,-0.7929,-0.8901,-0.4949,-0.5085,-0.5359,-0.5495,-0.5493,-0.5493,-0.5491,-0.5495,-0.5493,-0.5493,-0.5495,-0.5559,-0.5756,-0.6018,-0.5883,-0.5749,-0.5683,-0.5554,-0.5557,-0.5493,-0.5226,-0.5027,-0.4892,-0.4687,-0.4556,-0.4488,-0.4421,-0.4356,-0.4224,-0.4024,-0.3893,-0.3695,-0.356,-0.3437,-0.3448,-0.3518,-0.3566,-0.3523,-0.3424,-0.3371,-0.3449,-0.376,-0.4226,-0.4226,-0.4073,-0.3839,-0.3682,-0.3604,-0.3371,-0.3058,-0.2823,-0.2744,-0.2745,-0.2824,-0.2746,-0.2406,-0.225,-0.2202,-0.2009,-0.1383,-0.1218,-0.0873,-0.0403,-0.0269,0.0,0.0134,0.0,0.0202,0.0067,-0.0,0.0269,0.0336,0.047,0.0739,0.1008,0.1546,0.1883,0.1883,0.1951,0.2017,0.2218,0.2486,0.2484,0.262,0.289,0.2956,0.309,0.3425,0.3689,0.3624,0.3624,0.3489,0.3421,0.2885,0.2281,0.2147,0.2013,0.1949,0.1816,0.1545,0.1344,0.121,0.0739,0.0134,-0.0201,-0.0403,-0.0939,-0.1473,-0.2209,-0.2939,-0.3742,-0.4603,-0.5458,-0.6242,-0.7013]}]]